[[{"header":{"parameterUnit":"m.s-1","parameterCategory":1,"la1":31.0,"la2":29.5877,"lo1":-88.7671,"lo2":-86.6584,"dy":0.0162,"dx":0.0185,"nx":115,"ny":88,"refTime":"2024-03-14T12:00:00:Z","depth":0,"parameterNumber":2,"parameterNumberName":"U-component_of_WINDS"},"data":[0.0,0.0,0.0,0.0,0.0,0.0,0.0,0.0,0.0,0.0,0.0,0.0,0.0,0.0,0.0,0.0,0.0,0.0,0.0,0.0,0.0,0.0,0.0,0.0,0.0,0.0,0.0,0.0,0.0,0.0,0.0,0.0,0.0,0.0,0.0,0.0,0.0,0.0,0.0,0.0,0.0,0.0,0.0,0.0,0.0,0.0,0.0,0.0,0.0,0.0,0.0,0.0,0.0,0.0,0.0,0.0,0.0,0.0,0.0,0.0,0.0,0.0,0.0,0.0,0.0,0.0,0.0,0.0,0.0,0.0,0.0,0.0,0.0,0.0,0.0,0.0,0.0,0.0,0.0,0.0,0.0,0.0,0.0,0.0,0.0,0.0,0.0,0.0,0.0,0.0,0.0,0.0,0.0,0.0,0.0,0.0,0.0,0.0,0.0,0.0,0.0,0.0,0.0,0.0,0.0,0.0,0.0,0.0,0.0,0.0,0.0,0.0,0.0,0.0,0.0,0.0,0.0,0.0,0.0,0.0,0.0,0.0,0.0,0.0,0.0,0.0,0.0,0.0,0.0,0.0,0.0,0.0,0.0,0.0,0.0,0.0,0.0,0.0,0.0,0.0,0.0,0.0,0.0,0.0,0.0,0.0,0.0,0.0,0.0,0.0,0.0,0.0,0.0,0.0,0.0,0.0,0.0,0.0,0.0,0.0,0.0,0.0,0.0,0.0,0.0,0.0,0.0,0.0,0.0,0.0,0.0,0.0,0.0,0.0,0.0,0.0,0.0,0.0,0.0,0.0,0.0,0.0,0.0,0.0,0.0,0.0,0.0,0.0,0.0,0.0,0.0,0.0,0.0,0.0,0.0,0.0,0.0,0.0,0.0,0.0,0.0,0.0,0.0,0.0,0.0,0.0,0.0,0.0,0.0,0.0,0.0,0.0,0.0,0.0,0.0,0.0,0.0,0.0,0.0,0.0,0.0,0.0,0.0,0.0,0.0,0.0,0.0,0.0,0.0,0.0,0.0,0.0,0.0,0.0,0.0,0.0,0.0,0.0,0.0,0.0,0.0,0.0,0.0,0.0,0.0,0.0,0.0,0.0,0.0,0.0,0.0,0.0,0.0,0.0,0.0,0.0,0.0,0.0,0.0,0.0,0.0,0.0,0.0,0.0,0.0,0.0,0.0,0.0,0.0,0.0,0.0,0.0,0.0,0.0,0.0,0.0,0.0,0.0,0.0,0.0,0.0,0.0,0.0,0.0,0.0,0.0,0.0,0.0,0.0,0.0,0.0,0.0,0.0,0.0,0.0,0.0,0.0,0.0,0.0,0.0,0.0,0.0,0.0,0.0,0.0,0.0,0.0,0.0,0.0,0.0,0.0,0.0,0.0,0.0,0.0,0.0,0.0,0.0,0.0,0.0,0.0,0.0,0.0,0.0,0.0,0.0,0.0,0.0,0.0,0.0,0.0,0.0,0.0,0.0,0.0,0.0,0.0,0.0,0.0,0.0,0.0,0.0,0.0,0.0,0.0,0.0,0.0,0.0,0.0,0.0,0.0,0.0,0.0,0.0,0.0,0.0,0.0,0.0,0.0,0.0,0.0,0.0,0.0,0.0,0.0,0.0,0.0,0.0,0.0,0.0,0.0,0.0,0.0,0.0,0.0,0.0,0.0,0.0,0.0,0.0,0.0,0.0,0.0,0.0,0.0,0.0,0.0,0.0,0.0,0.0,0.0,0.0,0.0,0.0,0.0,0.0,0.0,0.0,0.0,0.0,0.0,0.0,0.0,0.0,0.0,0.0,0.0,0.0,0.0,0.0,0.0,0.0,0.0,0.0,0.0,0.0,0.0,0.0,0.0,0.0,0.0,0.0,0.0,0.0,0.0,0.0,0.0,0.0,0.0,0.0,0.0,0.0,0.0,0.0,0.0,0.0,0.0,0.0,0.0,0.0,0.0,0.0,0.0,0.0,0.0,0.0,0.0,0.0,0.0,0.0,0.0,0.0,0.0,0.0,0.0,0.0,0.0,0.0,0.0,0.0,0.0,0.0,0.0,0.0,0.0,0.0,0.0,0.0,0.0,0.0,0.0,0.0,0.0,0.0,0.0,0.0,0.0,0.0,0.0,0.0,0.0,0.0,0.0,0.0,0.0,0.0,0.0,0.0,0.0,0.0,0.0,0.0,0.0,0.0,0.0,0.0,0.0,0.0,0.0,0.0,0.0,0.0,0.0,0.0,0.0,0.0,0.0,0.0,0.0,0.0,0.0,0.0,0.0,0.0,0.0,0.0,0.0,0.0,0.0,0.0,0.0,0.0,0.0,0.0,0.0,0.0,0.0,0.0,0.0,0.0,0.0,0.0,0.0,0.0,0.0,0.0,0.0,0.0,0.0,0.0,0.0,0.0,0.0,0.0,0.0,0.0,0.0,0.0,0.0,0.0,0.0,0.0,0.0,0.0,0.0,0.0,0.0,0.0,0.0,0.0,0.0,0.0,0.0,0.0,0.0,0.0,0.0,0.0,0.0,0.0,0.0,0.0,0.0,0.0,0.0,0.0,0.0,0.0,0.0,0.0,0.0,0.0,0.0,0.0,0.0,0.0,0.0,0.0,0.0,0.0,0.0,0.0,0.0,0.0,0.0,0.0,0.0,0.0,0.0,0.0,0.0,0.0,0.0,0.0,0.0,0.0,0.0,0.0,0.0,0.0,0.0,0.0,0.0,0.0,0.0,0.0,0.0,0.0,0.0,0.0,0.0,0.0,0.0,0.0,0.0,0.0,0.0,0.0,0.0,0.0,0.0,0.0,0.0,0.0,0.0,0.0,0.0,0.0,0.0,0.0,0.0,0.0,0.0,0.0,0.0,0.0,0.0,0.0,0.0,0.0,0.0,0.0,0.0,0.0,0.0,0.0,0.0,0.0,0.0,0.0,0.0,0.0,0.0,0.0,0.0,0.0,0.0,0.0,0.0,0.0,0.0,0.0,0.0,0.0,0.0,0.0,0.0,0.0,0.0,0.0,0.0,0.0,0.0,0.0,0.0,0.0,0.0,0.0,0.0,0.0,0.0,0.0,0.0,0.0,0.0,0.0,0.0,0.0,0.0,0.0,0.0,0.0,0.0,0.0,0.0,0.0,0.0,0.0,0.0,0.0,0.0,0.0,0.0,0.0,0.0,0.0,0.0,0.0,0.0,0.0,0.0,0.0,0.0,0.0,0.0,0.0,0.0,0.0,0.0,0.0,0.0,0.0,0.0,0.0,0.0,0.0,0.0,0.0,0.0,0.0,0.0,0.0,0.0,0.0,0.0,0.0,0.0,0.0,0.0,0.0,0.0,0.0,0.0,0.0,0.0,0.0,0.0,0.0,0.0,0.0,0.0,0.0,0.0,0.0,0.0,0.0,0.0,0.0,0.0,0.0,0.0,0.0,0.0,0.0,0.0,0.0,0.0,0.0,0.0,0.0,0.0,0.0,0.0,0.0,0.0,0.0,0.0,0.0,0.0,0.0,0.0,0.0,0.0,0.0,0.0,0.0,0.0,0.0,0.0,0.0,0.0,0.0,0.0,0.0,0.0,0.0,0.0,0.0,0.0,0.0,0.0,0.0,0.0,0.0,0.0,0.0,0.0,0.0,0.0,0.0,0.0,0.0,0.0,0.0,0.0,0.0,0.0,0.0,0.0,0.0,0.0,0.0,0.0,0.0,0.0,0.0,0.0,0.0,0.0,0.0,0.0,0.0,0.0,0.0,0.0,0.0,0.0,0.0,0.0,0.0,0.0,0.0,0.0,0.0,0.0,0.0,0.0,0.0,0.0,0.0,0.0,0.0,0.0,0.0,0.0,0.0,0.0,0.0,0.0,0.0,0.0,0.0,0.0,0.0,0.0,0.0,0.0,0.0,0.0,0.0,0.0,0.0,0.0,0.0,0.0,0.0,0.0,0.0,0.0,0.0,0.0,0.0,0.0,0.0,0.0,0.0,0.0,0.0,0.0,0.0,0.0,0.0,0.0,0.0,0.0,0.0,0.0,0.0,0.0,0.0,0.0,0.0,0.0,0.0,0.0,0.0,0.0,0.0,0.0,0.0,0.0,0.0,0.0,0.0,0.0,0.0,0.0,0.0,0.0,0.0,0.0,0.0,0.0,0.0,0.0,0.0,0.0,0.0,0.0,0.0,0.0,0.0,0.0,0.0,0.0,0.0,0.0,0.0,0.0,0.0,0.0,0.0,0.0,0.0,0.0,0.0,0.0,0.0,0.0,0.0,0.0,0.0,0.0,0.0,0.0,0.0,-2.2412,0.0,0.0,0.0,0.0,0.0,0.0,0.0,0.0,0.0,0.0,0.0,0.0,0.0,0.0,0.0,0.0,0.0,0.0,0.0,0.0,0.0,0.0,0.0,0.0,0.0,0.0,0.0,0.0,0.0,0.0,0.0,0.0,0.0,0.0,0.0,0.0,0.0,0.0,0.0,0.0,0.0,0.0,0.0,0.0,0.0,0.0,0.0,0.0,0.0,0.0,0.0,0.0,0.0,0.0,0.0,0.0,0.0,0.0,0.0,0.0,0.0,0.0,0.0,0.0,0.0,0.0,0.0,0.0,0.0,0.0,0.0,0.0,0.0,0.0,0.0,0.0,0.0,0.0,0.0,0.0,0.0,0.0,0.0,0.0,0.0,0.0,0.0,0.0,0.0,0.0,0.0,0.0,0.0,0.0,0.0,0.0,0.0,0.0,0.0,0.0,0.0,0.0,0.0,0.0,0.0,0.0,0.0,0.0,0.0,0.0,-2.405,-2.2015,-2.5781,-2.5937,-2.1936,0.0,0.0,0.0,0.0,0.0,0.0,0.0,0.0,0.0,0.0,0.0,0.0,0.0,0.0,0.0,0.0,0.0,0.0,0.0,0.0,0.0,0.0,0.0,0.0,0.0,0.0,0.0,0.0,0.0,0.0,0.0,0.0,0.0,0.0,0.0,0.0,0.0,0.0,0.0,0.0,0.0,0.0,0.0,0.0,0.0,0.0,0.0,0.0,0.0,0.0,0.0,0.0,0.0,0.0,0.0,0.0,0.0,0.0,0.0,0.0,0.0,0.0,0.0,0.0,0.0,0.0,0.0,0.0,0.0,0.0,0.0,0.0,0.0,0.0,0.0,0.0,0.0,0.0,0.0,0.0,0.0,0.0,0.0,0.0,0.0,0.0,0.0,0.0,0.0,0.0,0.0,0.0,0.0,0.0,0.0,0.0,0.0,0.0,0.0,0.0,0.0,0.0,0.0,0.0,0.0,0.0,0.0,0.0,0.0,0.0,0.0,0.0,-2.5794,-2.575,-2.2845,0.0,0.0,0.0,0.0,0.0,0.0,0.0,0.0,0.0,0.0,0.0,0.0,0.0,0.0,0.0,0.0,0.0,0.0,0.0,0.0,0.0,0.0,0.0,0.0,0.0,0.0,0.0,0.0,0.0,0.0,0.0,0.0,0.0,0.0,0.0,0.0,0.0,0.0,0.0,0.0,0.0,0.0,0.0,0.0,0.0,0.0,0.0,0.0,0.0,0.0,0.0,0.0,0.0,0.0,0.0,0.0,0.0,0.0,0.0,0.0,0.0,0.0,0.0,0.0,0.0,0.0,0.0,0.0,0.0,0.0,0.0,0.0,0.0,0.0,0.0,0.0,0.0,0.0,0.0,0.0,0.0,0.0,0.0,0.0,0.0,0.0,0.0,0.0,0.0,0.0,0.0,0.0,0.0,0.0,0.0,0.0,0.0,0.0,0.0,0.0,0.0,0.0,0.0,0.0,0.0,0.0,0.0,0.0,0.0,0.0,-2.3755,-2.7148,-2.6689,0.0,-2.5763,0.0,0.0,0.0,0.0,0.0,0.0,0.0,0.0,0.0,0.0,0.0,0.0,0.0,0.0,0.0,0.0,0.0,0.0,0.0,0.0,0.0,0.0,0.0,0.0,0.0,0.0,0.0,0.0,0.0,0.0,0.0,0.0,0.0,0.0,0.0,0.0,0.0,0.0,0.0,0.0,0.0,0.0,0.0,0.0,0.0,0.0,0.0,0.0,0.0,0.0,0.0,0.0,0.0,0.0,0.0,0.0,0.0,0.0,0.0,0.0,0.0,0.0,0.0,0.0,0.0,0.0,0.0,0.0,0.0,0.0,0.0,0.0,0.0,0.0,0.0,0.0,0.0,0.0,0.0,0.0,0.0,0.0,0.0,0.0,0.0,0.0,0.0,0.0,0.0,0.0,0.0,0.0,0.0,0.0,0.0,0.0,0.0,0.0,0.0,0.0,0.0,0.0,0.0,0.0,0.0,0.0,0.0,0.0,0.0,0.0,-2.396,-2.696,-2.6552,-2.5343,0.0,0.0,0.0,0.0,0.0,0.0,0.0,0.0,0.0,0.0,0.0,0.0,0.0,0.0,0.0,0.0,0.0,0.0,0.0,0.0,0.0,0.0,0.0,0.0,0.0,0.0,0.0,0.0,0.0,0.0,0.0,0.0,0.0,0.0,0.0,0.0,0.0,0.0,0.0,0.0,0.0,0.0,0.0,0.0,0.0,0.0,0.0,0.0,0.0,0.0,0.0,0.0,0.0,0.0,0.0,0.0,0.0,0.0,0.0,0.0,0.0,0.0,0.0,0.0,0.0,0.0,0.0,0.0,0.0,0.0,0.0,0.0,0.0,0.0,0.0,0.0,0.0,0.0,0.0,0.0,0.0,0.0,0.0,0.0,0.0,0.0,0.0,0.0,0.0,0.0,0.0,0.0,0.0,0.0,0.0,0.0,0.0,0.0,0.0,0.0,0.0,0.0,0.0,0.0,0.0,0.0,0.0,0.0,0.0,0.0,-2.4725,-2.5196,-2.7567,-2.6114,-2.4362,-2.2589,0.0,0.0,0.0,0.0,0.0,0.0,0.0,0.0,0.0,0.0,0.0,0.0,0.0,0.0,0.0,0.0,0.0,0.0,0.0,0.0,0.0,0.0,0.0,0.0,0.0,0.0,0.0,0.0,0.0,0.0,0.0,0.0,0.0,0.0,0.0,0.0,0.0,0.0,0.0,0.0,0.0,0.0,0.0,0.0,0.0,0.0,0.0,0.0,0.0,0.0,0.0,0.0,0.0,0.0,0.0,0.0,0.0,0.0,0.0,0.0,0.0,0.0,0.0,0.0,0.0,0.0,0.0,0.0,0.0,0.0,0.0,0.0,0.0,0.0,0.0,0.0,0.0,0.0,0.0,0.0,0.0,0.0,0.0,0.0,0.0,0.0,0.0,0.0,0.0,0.0,0.0,0.0,0.0,0.0,0.0,0.0,0.0,0.0,0.0,0.0,0.0,0.0,0.0,0.0,0.0,0.0,0.0,0.0,-3.2872,-2.8725,-2.7872,-3.0711,-2.559,-2.3634,0.0,0.0,0.0,0.0,0.0,0.0,0.0,0.0,0.0,0.0,0.0,0.0,0.0,0.0,0.0,0.0,0.0,0.0,0.0,0.0,0.0,0.0,0.0,0.0,0.0,0.0,0.0,0.0,0.0,0.0,0.0,0.0,0.0,0.0,0.0,0.0,0.0,0.0,0.0,0.0,0.0,0.0,0.0,0.0,0.0,0.0,0.0,0.0,0.0,0.0,0.0,0.0,0.0,0.0,0.0,0.0,0.0,0.0,0.0,0.0,0.0,0.0,0.0,0.0,0.0,0.0,0.0,0.0,0.0,0.0,0.0,0.0,0.0,0.0,0.0,0.0,0.0,0.0,0.0,0.0,0.0,0.0,0.0,0.0,0.0,0.0,0.0,0.0,0.0,0.0,0.0,0.0,0.0,0.0,0.0,0.0,0.0,0.0,0.0,0.0,0.0,0.0,0.0,0.0,0.0,0.0,0.0,0.0,0.0,-2.5915,-2.784,-2.8856,-2.8718,-2.7776,-2.6947,0.0,0.0,0.0,0.0,0.0,0.0,0.0,0.0,0.0,0.0,0.0,0.0,0.0,0.0,0.0,0.0,0.0,0.0,0.0,0.0,0.0,0.0,0.0,0.0,0.0,0.0,0.0,0.0,0.0,0.0,0.0,0.0,0.0,0.0,0.0,0.0,0.0,0.0,0.0,0.0,0.0,0.0,0.0,0.0,0.0,0.0,0.0,0.0,0.0,0.0,0.0,0.0,0.0,0.0,0.0,0.0,0.0,0.0,0.0,0.0,0.0,0.0,0.0,0.0,0.0,0.0,0.0,0.0,0.0,0.0,0.0,0.0,0.0,0.0,0.0,0.0,0.0,0.0,0.0,0.0,0.0,0.0,0.0,0.0,0.0,0.0,0.0,0.0,0.0,0.0,0.0,0.0,0.0,0.0,0.0,0.0,0.0,0.0,0.0,0.0,0.0,0.0,0.0,0.0,0.0,0.0,0.0,0.0,0.0,-2.4746,0.0,-3.15,-2.9892,-2.9424,-2.8114,0.0,0.0,0.0,0.0,0.0,0.0,0.0,0.0,0.0,0.0,0.0,0.0,0.0,0.0,0.0,0.0,0.0,0.0,0.0,0.0,0.0,0.0,0.0,0.0,0.0,0.0,0.0,0.0,0.0,0.0,0.0,0.0,0.0,0.0,0.0,0.0,0.0,0.0,0.0,0.0,0.0,0.0,0.0,0.0,0.0,0.0,0.0,0.0,0.0,0.0,0.0,0.0,0.0,0.0,0.0,0.0,0.0,0.0,0.0,0.0,0.0,0.0,0.0,0.0,0.0,0.0,0.0,0.0,0.0,0.0,0.0,0.0,0.0,0.0,0.0,0.0,0.0,0.0,0.0,0.0,0.0,0.0,0.0,0.0,0.0,0.0,0.0,0.0,0.0,0.0,0.0,0.0,0.0,0.0,0.0,0.0,0.0,0.0,0.0,0.0,0.0,0.0,0.0,0.0,0.0,0.0,0.0,0.0,-2.6066,-3.0968,-3.445,-3.5725,-3.4899,-3.019,-2.6794,0.0,0.0,0.0,0.0,0.0,0.0,0.0,0.0,0.0,0.0,0.0,0.0,0.0,0.0,0.0,0.0,0.0,0.0,0.0,0.0,0.0,0.0,0.0,0.0,0.0,0.0,0.0,0.0,0.0,0.0,0.0,0.0,0.0,0.0,0.0,0.0,0.0,0.0,0.0,0.0,0.0,0.0,0.0,0.0,0.0,0.0,0.0,0.0,0.0,0.0,0.0,0.0,0.0,0.0,0.0,0.0,0.0,0.0,0.0,0.0,0.0,0.0,0.0,0.0,0.0,0.0,0.0,0.0,0.0,0.0,0.0,0.0,0.0,0.0,0.0,0.0,0.0,0.0,0.0,0.0,0.0,0.0,0.0,0.0,0.0,0.0,0.0,0.0,0.0,0.0,0.0,0.0,0.0,0.0,0.0,0.0,0.0,0.0,0.0,0.0,0.0,0.0,0.0,0.0,0.0,0.0,0.0,0.0,0.0,-2.7703,-3.2963,-3.5946,-3.5982,-3.1442,-2.9104,0.0,0.0,0.0,0.0,0.0,0.0,0.0,0.0,0.0,0.0,0.0,0.0,0.0,0.0,0.0,0.0,0.0,0.0,0.0,0.0,0.0,0.0,0.0,0.0,0.0,0.0,0.0,0.0,0.0,0.0,0.0,0.0,0.0,0.0,0.0,0.0,0.0,0.0,0.0,0.0,0.0,0.0,0.0,0.0,0.0,0.0,0.0,0.0,0.0,0.0,0.0,0.0,0.0,0.0,0.0,0.0,0.0,0.0,0.0,0.0,0.0,0.0,0.0,0.0,0.0,0.0,0.0,0.0,0.0,0.0,0.0,0.0,0.0,0.0,0.0,0.0,0.0,0.0,0.0,0.0,0.0,0.0,0.0,0.0,0.0,0.0,0.0,0.0,0.0,0.0,0.0,0.0,0.0,0.0,0.0,0.0,0.0,0.0,0.0,0.0,0.0,0.0,0.0,0.0,0.0,0.0,0.0,0.0,0.0,-3.0046,-3.4723,-3.736,-3.755,-3.2684,-3.0191,-3.0327,0.0,0.0,0.0,0.0,0.0,0.0,0.0,0.0,0.0,0.0,0.0,0.0,0.0,0.0,0.0,0.0,0.0,0.0,0.0,0.0,0.0,0.0,0.0,0.0,0.0,0.0,0.0,0.0,0.0,0.0,0.0,0.0,0.0,0.0,0.0,0.0,0.0,0.0,0.0,0.0,0.0,0.0,0.0,0.0,0.0,0.0,0.0,0.0,0.0,0.0,0.0,0.0,0.0,0.0,0.0,0.0,0.0,0.0,0.0,0.0,0.0,0.0,0.0,0.0,0.0,0.0,0.0,0.0,0.0,0.0,0.0,0.0,0.0,0.0,0.0,0.0,0.0,0.0,0.0,0.0,0.0,0.0,0.0,0.0,0.0,0.0,0.0,0.0,0.0,0.0,0.0,0.0,0.0,0.0,0.0,0.0,0.0,0.0,0.0,0.0,0.0,0.0,0.0,0.0,0.0,0.0,0.0,0.0,-3.6372,-3.9044,-3.9957,-3.9032,-3.3866,-3.0238,0.0,0.0,0.0,0.0,0.0,0.0,0.0,0.0,0.0,0.0,0.0,0.0,0.0,0.0,0.0,0.0,0.0,0.0,0.0,0.0,0.0,0.0,0.0,0.0,0.0,0.0,0.0,0.0,0.0,0.0,0.0,0.0,0.0,0.0,0.0,0.0,0.0,0.0,0.0,0.0,0.0,0.0,0.0,0.0,0.0,0.0,0.0,0.0,0.0,0.0,0.0,0.0,0.0,0.0,0.0,0.0,0.0,0.0,0.0,0.0,0.0,0.0,0.0,0.0,0.0,0.0,0.0,0.0,0.0,0.0,0.0,0.0,0.0,0.0,0.0,0.0,0.0,0.0,0.0,0.0,0.0,0.0,0.0,0.0,0.0,0.0,0.0,0.0,0.0,0.0,0.0,0.0,0.0,0.0,0.0,0.0,0.0,0.0,0.0,0.0,0.0,0.0,0.0,0.0,0.0,0.0,0.0,0.0,0.0,-3.7635,-3.9854,-4.0912,-4.0579,-3.4626,-3.096,0.0,0.0,0.0,0.0,0.0,0.0,0.0,0.0,0.0,0.0,0.0,0.0,0.0,0.0,0.0,0.0,0.0,0.0,0.0,0.0,0.0,0.0,0.0,0.0,0.0,0.0,0.0,0.0,0.0,0.0,0.0,0.0,0.0,0.0,0.0,0.0,0.0,0.0,0.0,0.0,0.0,0.0,0.0,0.0,0.0,0.0,0.0,0.0,0.0,0.0,0.0,0.0,0.0,0.0,0.0,0.0,0.0,0.0,0.0,0.0,0.0,0.0,0.0,0.0,0.0,0.0,0.0,0.0,0.0,0.0,0.0,0.0,0.0,0.0,0.0,0.0,0.0,0.0,0.0,0.0,0.0,0.0,0.0,0.0,0.0,0.0,0.0,0.0,0.0,0.0,0.0,0.0,0.0,0.0,0.0,0.0,0.0,0.0,0.0,0.0,0.0,0.0,0.0,0.0,0.0,0.0,0.0,0.0,-3.5786,-3.9615,-4.1148,-4.1737,-4.135,-3.6548,-3.2793,0.0,0.0,0.0,0.0,0.0,0.0,0.0,0.0,0.0,0.0,0.0,0.0,0.0,0.0,0.0,0.0,0.0,0.0,0.0,0.0,0.0,0.0,0.0,0.0,0.0,0.0,0.0,0.0,0.0,0.0,0.0,0.0,0.0,0.0,0.0,0.0,0.0,0.0,0.0,0.0,0.0,0.0,0.0,0.0,0.0,0.0,0.0,0.0,0.0,0.0,0.0,0.0,0.0,0.0,0.0,0.0,0.0,0.0,0.0,0.0,0.0,0.0,0.0,0.0,0.0,0.0,0.0,0.0,0.0,0.0,0.0,0.0,0.0,0.0,0.0,0.0,0.0,0.0,0.0,0.0,0.0,0.0,0.0,0.0,0.0,0.0,0.0,0.0,0.0,0.0,0.0,0.0,0.0,0.0,0.0,0.0,0.0,0.0,0.0,0.0,0.0,0.0,0.0,0.0,0.0,0.0,0.0,0.0,-3.6678,-4.1744,-4.2545,-4.2452,-4.143,-3.8762,-3.4872,0.0,0.0,0.0,0.0,0.0,0.0,0.0,0.0,0.0,0.0,0.0,0.0,0.0,0.0,0.0,0.0,0.0,0.0,0.0,0.0,0.0,0.0,0.0,0.0,0.0,0.0,0.0,0.0,0.0,0.0,0.0,0.0,0.0,0.0,0.0,0.0,0.0,0.0,0.0,0.0,0.0,0.0,0.0,0.0,0.0,0.0,0.0,0.0,0.0,0.0,0.0,0.0,0.0,0.0,0.0,0.0,0.0,0.0,0.0,0.0,0.0,0.0,0.0,0.0,0.0,0.0,0.0,0.0,0.0,0.0,0.0,0.0,0.0,0.0,0.0,0.0,0.0,0.0,0.0,0.0,0.0,0.0,0.0,0.0,0.0,0.0,0.0,0.0,0.0,0.0,0.0,0.0,0.0,0.0,0.0,0.0,0.0,0.0,0.0,0.0,0.0,0.0,0.0,0.0,0.0,0.0,0.0,0.0,-3.6783,-4.2166,-4.2717,-4.271,-4.2328,-3.8631,-3.468,0.0,0.0,0.0,0.0,0.0,0.0,0.0,0.0,0.0,0.0,0.0,0.0,0.0,0.0,0.0,0.0,0.0,0.0,0.0,0.0,0.0,0.0,0.0,0.0,0.0,0.0,0.0,0.0,0.0,0.0,0.0,0.0,0.0,0.0,0.0,0.0,0.0,0.0,0.0,0.0,0.0,0.0,0.0,0.0,0.0,0.0,0.0,0.0,-2.3591,0.0,0.0,0.0,0.0,0.0,0.0,0.0,0.0,0.0,0.0,0.0,0.0,0.0,0.0,0.0,0.0,0.0,0.0,0.0,0.0,0.0,0.0,0.0,0.0,0.0,0.0,0.0,0.0,0.0,0.0,0.0,0.0,0.0,0.0,0.0,0.0,0.0,0.0,0.0,0.0,0.0,0.0,0.0,0.0,0.0,0.0,0.0,0.0,0.0,0.0,0.0,0.0,0.0,0.0,0.0,0.0,0.0,0.0,0.0,-3.8275,-4.214,-4.2661,-4.2775,-4.2395,-3.9706,-3.6042,0.0,0.0,0.0,0.0,0.0,0.0,0.0,0.0,0.0,0.0,0.0,0.0,0.0,0.0,0.0,0.0,0.0,0.0,0.0,0.0,0.0,0.0,0.0,0.0,0.0,0.0,0.0,0.0,0.0,0.0,0.0,0.0,0.0,0.0,0.0,0.0,0.0,0.0,0.0,0.0,0.0,0.0,0.0,0.0,0.0,0.0,0.0,0.0,0.0,0.0,0.0,0.0,0.0,0.0,0.0,0.0,0.0,0.0,0.0,0.0,0.0,0.0,0.0,0.0,0.0,0.0,0.0,0.0,0.0,0.0,0.0,0.0,0.0,0.0,0.0,0.0,0.0,0.0,0.0,0.0,0.0,0.0,0.0,0.0,0.0,0.0,0.0,0.0,0.0,0.0,0.0,0.0,0.0,0.0,0.0,0.0,0.0,0.0,0.0,0.0,0.0,0.0,0.0,0.0,0.0,0.0,0.0,-3.6627,-3.9519,-4.204,-4.2604,-4.2744,-4.2429,-4.1173,-3.7886,-3.2405,0.0,0.0,0.0,0.0,0.0,0.0,0.0,0.0,0.0,0.0,0.0,0.0,0.0,0.0,0.0,0.0,0.0,0.0,0.0,0.0,0.0,0.0,0.0,0.0,0.0,0.0,0.0,0.0,0.0,0.0,0.0,0.0,0.0,0.0,0.0,0.0,0.0,0.0,-2.2108,-2.3908,0.0,0.0,0.0,0.0,0.0,0.0,0.0,0.0,-2.5156,0.0,0.0,0.0,0.0,0.0,0.0,0.0,0.0,0.0,0.0,0.0,0.0,0.0,0.0,0.0,0.0,0.0,0.0,0.0,0.0,0.0,0.0,0.0,0.0,0.0,0.0,0.0,0.0,0.0,0.0,0.0,0.0,0.0,0.0,0.0,0.0,0.0,0.0,0.0,0.0,0.0,0.0,0.0,0.0,0.0,0.0,0.0,0.0,0.0,0.0,0.0,0.0,0.0,0.0,0.0,0.0,-3.4723,-3.508,-3.7665,-4.2606,-4.271,-4.265,-4.2555,-4.181,-3.8646,-3.302,0.0,0.0,0.0,0.0,0.0,0.0,0.0,0.0,0.0,0.0,0.0,0.0,0.0,0.0,0.0,0.0,0.0,0.0,0.0,0.0,0.0,0.0,0.0,0.0,0.0,0.0,0.0,0.0,0.0,0.0,0.0,0.0,0.0,0.0,0.0,0.0,0.0,0.0,0.0,-2.662,-2.7198,0.0,0.0,0.0,0.0,0.0,0.0,0.0,0.0,-2.4786,0.0,0.0,0.0,0.0,0.0,0.0,0.0,0.0,0.0,0.0,0.0,0.0,0.0,0.0,0.0,0.0,0.0,0.0,0.0,0.0,0.0,0.0,0.0,0.0,0.0,0.0,0.0,0.0,0.0,0.0,0.0,0.0,0.0,0.0,0.0,0.0,0.0,0.0,0.0,0.0,0.0,0.0,0.0,0.0,0.0,0.0,0.0,0.0,0.0,0.0,0.0,0.0,0.0,0.0,0.0,-3.4955,-3.7584,-4.0518,-4.3557,-4.2815,-4.2526,-4.288,-4.1623,-3.8336,0.0,0.0,0.0,0.0,0.0,0.0,0.0,0.0,0.0,0.0,0.0,0.0,0.0,0.0,0.0,0.0,0.0,0.0,0.0,0.0,0.0,0.0,0.0,0.0,0.0,0.0,0.0,0.0,0.0,0.0,0.0,0.0,0.0,0.0,0.0,0.0,0.0,0.0,0.0,0.0,-2.7898,-2.8879,-2.927,0.0,0.0,0.0,0.0,0.0,0.0,-2.5779,-2.5058,0.0,0.0,0.0,0.0,0.0,0.0,0.0,0.0,0.0,0.0,0.0,0.0,0.0,0.0,0.0,0.0,0.0,0.0,0.0,0.0,0.0,0.0,0.0,0.0,0.0,0.0,0.0,0.0,0.0,0.0,0.0,0.0,0.0,0.0,0.0,0.0,0.0,0.0,0.0,0.0,0.0,0.0,0.0,0.0,0.0,0.0,0.0,0.0,0.0,0.0,0.0,0.0,0.0,0.0,0.0,-3.5069,-3.9917,-4.3132,-4.4361,-4.3104,-4.2654,-4.3165,-4.1564,-3.8096,0.0,0.0,0.0,0.0,0.0,0.0,0.0,0.0,0.0,0.0,0.0,0.0,0.0,0.0,0.0,0.0,0.0,0.0,0.0,0.0,0.0,0.0,0.0,0.0,0.0,0.0,0.0,0.0,0.0,0.0,0.0,0.0,0.0,0.0,0.0,0.0,0.0,0.0,0.0,0.0,0.0,-3.0186,-3.026,-2.9286,0.0,0.0,0.0,0.0,-2.6729,-2.6812,0.0,0.0,0.0,0.0,0.0,0.0,0.0,0.0,0.0,0.0,0.0,0.0,0.0,0.0,0.0,0.0,0.0,0.0,0.0,0.0,0.0,0.0,0.0,0.0,0.0,0.0,0.0,0.0,0.0,0.0,0.0,0.0,0.0,0.0,0.0,0.0,0.0,0.0,0.0,0.0,0.0,0.0,0.0,0.0,0.0,0.0,0.0,0.0,0.0,0.0,0.0,0.0,0.0,0.0,0.0,0.0,-3.492,-3.8631,-4.1817,-4.4297,-4.3749,-4.333,-4.3229,-4.2333,-3.8929,0.0,0.0,0.0,0.0,0.0,0.0,0.0,0.0,0.0,0.0,0.0,0.0,0.0,0.0,0.0,0.0,0.0,0.0,0.0,0.0,0.0,0.0,0.0,0.0,0.0,0.0,0.0,0.0,0.0,0.0,0.0,0.0,0.0,0.0,0.0,0.0,0.0,0.0,0.0,0.0,0.0,-3.0748,-2.8922,-2.8431,-2.8143,0.0,0.0,-2.8296,-2.9511,-3.0628,0.0,0.0,0.0,0.0,0.0,0.0,0.0,0.0,0.0,0.0,0.0,0.0,0.0,0.0,0.0,0.0,0.0,0.0,0.0,0.0,0.0,0.0,0.0,0.0,0.0,0.0,0.0,0.0,0.0,0.0,0.0,0.0,0.0,0.0,0.0,0.0,0.0,0.0,0.0,0.0,0.0,0.0,0.0,0.0,0.0,0.0,0.0,0.0,0.0,0.0,0.0,0.0,0.0,0.0,0.0,-3.3906,-3.5975,-3.9572,-4.2559,-4.4635,-4.3224,-4.2584,-4.293,-4.1883,-3.8524,0.0,0.0,0.0,0.0,0.0,0.0,0.0,0.0,0.0,0.0,0.0,0.0,0.0,0.0,0.0,0.0,0.0,0.0,0.0,0.0,0.0,0.0,0.0,0.0,0.0,0.0,0.0,0.0,0.0,0.0,0.0,0.0,0.0,0.0,0.0,0.0,0.0,0.0,0.0,0.0,0.0,0.0,-3.1171,-3.1006,0.0,0.0,0.0,-3.0684,-3.0137,0.0,0.0,0.0,0.0,0.0,0.0,0.0,0.0,0.0,0.0,0.0,0.0,0.0,0.0,0.0,0.0,0.0,0.0,0.0,0.0,0.0,0.0,0.0,0.0,0.0,0.0,0.0,0.0,0.0,0.0,0.0,0.0,0.0,0.0,0.0,0.0,0.0,0.0,0.0,0.0,0.0,0.0,0.0,0.0,0.0,0.0,0.0,0.0,0.0,0.0,0.0,0.0,0.0,0.0,0.0,0.0,0.0,-3.6813,-4.0855,-4.3714,-4.5158,-4.3276,-4.2446,-4.2884,-4.1655,0.0,0.0,0.0,0.0,0.0,0.0,0.0,0.0,0.0,0.0,0.0,0.0,0.0,0.0,0.0,0.0,0.0,0.0,0.0,0.0,0.0,0.0,0.0,0.0,0.0,0.0,0.0,-1.976,0.0,0.0,0.0,0.0,0.0,0.0,0.0,0.0,0.0,0.0,0.0,0.0,0.0,0.0,-3.2369,-3.2649,-3.2784,-3.276,0.0,0.0,-3.234,-3.1013,-3.2098,-3.2187,0.0,0.0,0.0,0.0,0.0,0.0,0.0,0.0,0.0,0.0,0.0,0.0,0.0,0.0,0.0,0.0,0.0,0.0,0.0,0.0,0.0,0.0,0.0,0.0,0.0,0.0,0.0,0.0,0.0,0.0,0.0,0.0,0.0,0.0,0.0,0.0,0.0,0.0,0.0,0.0,0.0,0.0,0.0,0.0,0.0,0.0,0.0,0.0,0.0,0.0,0.0,0.0,0.0,0.0,0.0,-3.7018,-4.1913,-4.5003,-4.5921,-4.4585,-4.3786,-4.3611,-4.2252,-3.8968,0.0,0.0,0.0,0.0,0.0,0.0,0.0,0.0,0.0,0.0,0.0,0.0,0.0,0.0,0.0,0.0,0.0,0.0,0.0,0.0,0.0,0.0,0.0,0.0,0.0,0.0,0.0,0.0,0.0,0.0,0.0,0.0,0.0,0.0,0.0,0.0,0.0,0.0,0.0,0.0,0.0,-3.201,-3.143,-3.2181,-3.3004,0.0,0.0,-3.2706,-3.3186,-3.4893,-3.5347,-3.2795,0.0,0.0,0.0,0.0,0.0,0.0,0.0,0.0,0.0,0.0,0.0,0.0,0.0,0.0,0.0,0.0,0.0,0.0,0.0,0.0,0.0,0.0,0.0,0.0,0.0,0.0,0.0,0.0,0.0,0.0,0.0,0.0,0.0,0.0,0.0,0.0,0.0,0.0,0.0,0.0,0.0,0.0,0.0,0.0,0.0,0.0,0.0,0.0,0.0,0.0,0.0,0.0,0.0,-3.5921,-3.7416,-4.1691,-4.4196,-4.4747,-4.4164,-4.3363,-4.2442,-4.2315,-4.0163,0.0,0.0,0.0,0.0,0.0,0.0,0.0,0.0,0.0,0.0,0.0,0.0,0.0,0.0,0.0,0.0,0.0,0.0,0.0,0.0,0.0,0.0,0.0,0.0,0.0,0.0,0.0,0.0,-2.6214,-2.6077,-2.4928,0.0,0.0,0.0,0.0,0.0,0.0,0.0,0.0,0.0,0.0,-3.3183,-3.3335,-3.3999,0.0,0.0,-3.4893,-3.4891,-3.4741,-3.537,-3.537,-3.3964,-3.3692,0.0,0.0,0.0,0.0,0.0,0.0,0.0,0.0,0.0,0.0,0.0,0.0,0.0,0.0,0.0,0.0,0.0,0.0,0.0,0.0,0.0,0.0,0.0,0.0,0.0,0.0,0.0,0.0,0.0,0.0,0.0,0.0,0.0,0.0,0.0,0.0,0.0,0.0,0.0,0.0,0.0,0.0,0.0,0.0,0.0,0.0,0.0,0.0,0.0,0.0,0.0,0.0,-3.5964,-3.7711,-4.1597,-4.3967,-4.462,-4.4221,-4.3453,-4.2284,-4.2537,-4.0951,0.0,0.0,0.0,0.0,0.0,0.0,0.0,0.0,0.0,0.0,0.0,0.0,0.0,0.0,0.0,0.0,0.0,0.0,0.0,0.0,0.0,0.0,0.0,0.0,0.0,0.0,0.0,0.0,-2.7906,-2.7473,-2.6618,0.0,0.0,0.0,0.0,0.0,0.0,0.0,0.0,0.0,0.0,-3.418,-3.4662,-3.5347,-3.5756,-3.5723,-3.6194,-3.6369,-3.5714,-3.5558,-3.5228,-3.4337,0.0,0.0,0.0,0.0,0.0,0.0,0.0,0.0,0.0,0.0,0.0,0.0,0.0,0.0,0.0,0.0,0.0,0.0,0.0,0.0,0.0,0.0,0.0,0.0,0.0,0.0,0.0,0.0,0.0,0.0,-2.9562,0.0,0.0,0.0,0.0,0.0,0.0,0.0,0.0,0.0,0.0,0.0,0.0,0.0,0.0,0.0,0.0,0.0,0.0,0.0,0.0,0.0,0.0,-3.605,-3.7711,-4.2013,-4.479,-4.5953,-4.5172,-4.4369,-4.364,-4.3042,-4.117,-3.7872,0.0,0.0,0.0,0.0,0.0,0.0,0.0,0.0,0.0,0.0,0.0,0.0,0.0,0.0,0.0,0.0,0.0,0.0,0.0,0.0,0.0,0.0,0.0,0.0,0.0,0.0,-2.648,-2.6313,-2.7179,0.0,0.0,0.0,0.0,0.0,0.0,0.0,0.0,0.0,0.0,-3.4455,-3.466,-3.4722,-3.5707,-3.635,-3.6183,-3.6483,-3.6551,-3.5937,-3.5678,-3.5195,0.0,0.0,0.0,0.0,0.0,0.0,0.0,0.0,0.0,0.0,0.0,0.0,0.0,0.0,0.0,0.0,0.0,0.0,0.0,0.0,0.0,0.0,0.0,0.0,0.0,0.0,0.0,-3.3183,-3.2939,0.0,0.0,0.0,0.0,0.0,0.0,0.0,0.0,0.0,0.0,0.0,-4.6093,-4.5212,0.0,0.0,0.0,0.0,0.0,0.0,0.0,0.0,0.0,0.0,0.0,0.0,-3.715,-3.8567,-4.2944,-4.5387,-4.5591,-4.5603,-4.5013,-4.3734,-4.3927,-4.2302,-3.865,0.0,0.0,0.0,0.0,0.0,0.0,0.0,0.0,0.0,0.0,0.0,0.0,0.0,0.0,0.0,0.0,0.0,0.0,0.0,0.0,0.0,0.0,0.0,0.0,0.0,-3.0666,0.0,0.0,0.0,0.0,0.0,0.0,0.0,0.0,0.0,0.0,0.0,-3.3576,-3.4607,-3.4634,-3.4748,-3.5294,-3.5908,-3.6097,0.0,0.0,0.0,0.0,0.0,0.0,0.0,0.0,0.0,0.0,0.0,0.0,0.0,0.0,-3.1598,-2.9987,-2.955,-2.946,-2.9451,0.0,0.0,0.0,0.0,0.0,0.0,0.0,0.0,0.0,0.0,0.0,0.0,0.0,0.0,0.0,0.0,-3.5256,0.0,0.0,0.0,0.0,0.0,0.0,0.0,0.0,-4.3909,-4.6385,-4.8429,-4.7552,-4.7151,0.0,-4.6751,-4.4818,0.0,0.0,0.0,0.0,0.0,0.0,0.0,0.0,-3.9143,-4.0126,-4.3749,-4.5681,-4.5661,-4.5929,-4.5433,-4.4117,-4.4173,-4.3088,-4.0657,-3.9154,-3.7437,0.0,0.0,0.0,0.0,0.0,0.0,0.0,0.0,0.0,0.0,0.0,0.0,0.0,0.0,0.0,0.0,0.0,0.0,0.0,0.0,0.0,0.0,0.0,-3.3431,0.0,0.0,0.0,0.0,0.0,0.0,0.0,0.0,0.0,-3.3453,-3.4001,-3.4694,-3.5389,-3.514,-3.5102,-3.5764,0.0,0.0,0.0,0.0,0.0,0.0,0.0,-3.495,-3.4405,-3.4569,-3.4707,-3.4598,-3.465,-3.4576,-3.4164,0.0,0.0,-3.19,-3.1544,-3.1492,-3.1709,-3.1915,-3.2094,-3.2339,-3.2756,-3.3026,0.0,0.0,0.0,0.0,0.0,0.0,0.0,0.0,-3.999,-4.017,0.0,-3.7951,0.0,0.0,0.0,0.0,0.0,-3.9088,0.0,0.0,-4.7357,-4.9112,-4.9062,-4.8997,-4.8889,-4.8771,-4.9319,-4.89,-4.7419,-4.3557,0.0,0.0,0.0,0.0,0.0,0.0,-4.1877,-4.2334,-4.4489,-4.5902,-4.6333,-4.6219,-4.5691,-4.4749,-4.3941,-4.3595,-4.3573,-4.0651,-3.8925,-3.8837,-3.3376,0.0,0.0,0.0,0.0,0.0,0.0,0.0,0.0,0.0,0.0,0.0,0.0,0.0,0.0,0.0,0.0,0.0,0.0,0.0,0.0,-3.4147,0.0,0.0,0.0,0.0,0.0,0.0,0.0,0.0,0.0,0.0,-3.5752,-3.5718,-3.5924,-3.648,0.0,0.0,0.0,0.0,-3.7015,-3.667,-3.7507,-3.7912,-3.7331,-3.7032,-3.6618,-3.5796,0.0,0.0,-3.5319,-3.4957,-3.4446,-3.3571,-3.3395,-3.3241,-3.3361,-3.2857,-3.25,-3.2567,-3.2405,-3.2281,-3.2317,-3.2791,-3.3136,-4.629,0.0,0.0,0.0,0.0,-4.1661,-4.1999,-4.2687,-4.2759,-4.2796,-4.2702,-4.1594,0.0,0.0,0.0,0.0,0.0,0.0,-4.2166,-4.5176,-4.6243,-4.7764,-4.9742,-4.922,-4.918,-4.9447,-4.8675,-4.8023,-4.7429,-4.6384,-4.4297,-4.1238,0.0,0.0,0.0,0.0,-4.3009,-4.3136,-4.5332,-4.6784,-4.728,-4.6731,-4.6234,-4.5723,-4.5317,-4.4898,-4.4464,-4.3504,-4.198,-3.9903,-3.7717,0.0,0.0,0.0,0.0,0.0,0.0,0.0,0.0,0.0,0.0,0.0,0.0,0.0,0.0,0.0,0.0,0.0,0.0,0.0,-3.7404,-3.756,-3.6846,0.0,0.0,0.0,0.0,0.0,0.0,0.0,0.0,0.0,-3.7367,-3.6712,-3.673,0.0,0.0,-3.7139,-3.7867,-3.7863,-3.7623,-3.7079,0.0,0.0,0.0,-3.636,-3.6012,-3.563,-3.5787,-3.609,-3.6427,-3.6368,-3.6154,-3.5591,-3.5082,-3.4703,-3.4504,-3.3152,-3.2241,-3.2319,-3.2651,-3.3017,-3.3245,-3.3791,-3.4192,-4.9971,-4.7235,-4.5473,-4.4817,-4.4849,-4.4625,-4.5114,-4.6058,-4.5959,-4.6088,-4.6249,-4.4885,-4.388,-4.3068,-4.1049,0.0,0.0,0.0,-4.417,-4.7508,-4.7403,-4.8537,-5.0422,-5.0098,-4.9988,-5.0188,-4.9383,-4.8694,-4.8253,-4.829,-4.7145,-4.4937,0.0,0.0,-4.2815,-4.4684,-4.5622,-4.5651,-4.688,-4.7748,-4.7987,-4.7497,-4.7037,-4.6634,-4.6421,-4.5963,-4.5298,-4.4911,-4.3889,-4.2048,-4.0441,-3.8967,0.0,0.0,0.0,0.0,0.0,0.0,0.0,0.0,0.0,0.0,0.0,-3.286,0.0,0.0,0.0,0.0,-3.6533,-3.7748,-3.9082,-3.9086,0.0,0.0,0.0,0.0,0.0,0.0,0.0,-3.8407,-3.8241,-3.8199,-3.8412,-3.7873,-3.7797,-3.8685,-3.7996,-3.7678,-3.8477,0.0,-3.7955,-3.7534,-3.7752,-3.7733,-3.7353,-3.715,-3.6932,-3.683,-3.6954,-3.7177,-3.7625,-3.7711,-3.7519,-3.7094,-3.6633,-3.6158,-3.5537,-3.4303,-3.333,-3.3194,-3.3458,-3.3852,-3.405,-3.4505,-3.4883,-5.3089,-5.1988,-4.8958,-4.7592,-4.7424,-4.732,-4.7996,-4.9159,-4.9155,-4.9511,-4.9997,-4.7809,-4.677,-4.6542,-4.3639,0.0,-4.5837,-4.5699,-4.7287,-5.0196,-5.0196,-5.0519,-5.1167,-5.1199,-5.1086,-5.0896,-5.0864,-5.0364,-4.9571,-4.9349,-4.8992,-4.8504,-4.8941,-4.9018,-4.8739,-4.8917,-4.9026,-4.8994,-4.878,-4.8634,-4.8514,-4.836,-4.8041,-4.7517,-4.7239,-4.6848,-4.6207,-4.5334,-4.4816,-4.4717,-4.2176,-4.0661,-4.0565,0.0,0.0,0.0,0.0,0.0,0.0,0.0,0.0,0.0,0.0,0.0,0.0,0.0,0.0,0.0,-3.9553,0.0,-3.9554,-3.9296,0.0,0.0,0.0,-3.8857,-3.8629,-3.8629,-3.8629,-3.8629,0.0,0.0,0.0,0.0,-3.9108,-3.9108,-3.825,-3.7828,-3.8522,-3.8435,-3.8198,-3.8121,-3.8559,-3.8877,-3.8759,-3.8715,-3.8613,-3.8605,-3.8649,-3.8509,-3.8657,-3.873,-3.8531,-3.8053,-3.7912,-3.7529,-3.6261,-3.5996,-3.5785,-3.4864,-3.466,-3.4702,-3.4735,-3.5001,-3.5297,-5.3583,-5.2823,-5.2006,-5.1237,-5.0489,-5.0384,-5.0505,-5.0649,-5.0681,-5.0704,-5.0612,-4.94,-4.8334,-4.7559,-4.708,-4.7449,-4.8551,-4.8661,-4.9521,-5.0908,-5.094,-5.0962,-5.0972,-5.0972,-5.0934,-5.0864,-5.0317,-5.0,-4.995,-4.9913,-4.97,-4.9309,-5.0236,-4.9988,-4.8771,-4.9291,-4.9328,-4.8812,-4.8707,-4.867,-4.8666,-4.8994,-4.8962,-4.8473,-4.7713,-4.7253,-4.7093,-4.6351,-4.5865,-4.5754,-4.5116,-4.463,-4.4421,-4.1539,0.0,0.0,0.0,0.0,0.0,0.0,0.0,0.0,0.0,-3.8739,-4.1541,0.0,-4.2053,0.0,-4.1045,-4.0523,-4.0117,-4.0067,0.0,0.0,-3.9803,-3.9941,-3.9872,-3.9872,-3.991,-4.0013,-3.9941,-3.9902,-4.0159,-4.0086,-4.0017,-4.0121,-3.969,-3.9597,-4.0232,-3.9864,-3.9556,-3.9485,-3.9606,-3.9661,-3.9451,-3.9199,-3.898,-3.8833,-3.876,-3.876,-3.8797,-3.8767,-3.8738,-3.8597,-3.8178,-3.7836,-3.7588,-3.7342,-3.7127,-3.6858,-3.5945,-3.5096,-3.5096,-3.5329,-3.5653,-5.41,-5.3364,-5.3473,-5.2531,-5.0985,-5.1609,-5.1762,-5.154,-5.154,-5.1424,-5.1124,-5.0364,-4.9528,-4.8794,-4.8955,-4.9407,-4.9987,-5.0133,-5.0515,-5.1167,-5.1124,-5.1048,-5.101,-5.0858,-5.082,-5.0896,-5.0478,-5.0284,-5.0322,-5.0397,-5.0317,-4.9981,-5.0518,-5.044,-4.9737,-5.0091,-5.0054,-4.9555,-4.9448,-4.9411,-4.9411,-4.9795,-4.9705,-4.9106,-4.8327,-4.7832,-4.7722,-4.6693,-4.6203,-4.6385,-4.6126,-4.5896,-4.5614,-4.4024,-4.376,0.0,0.0,0.0,0.0,0.0,0.0,0.0,0.0,0.0,0.0,0.0,-4.2212,0.0,-4.173,0.0,-4.0958,-4.0969,-4.0847,-4.0466,-4.0888,-4.1127,-4.0922,-4.0892,-4.0896,-4.0966,-4.062,-4.0436,-4.0505,-4.0436,-4.0401,-4.0505,-4.0331,-4.0314,-4.0578,-4.0294,-4.0011,-4.0011,-4.0011,-3.9975,-3.9839,-3.9661,-3.9481,-3.9343,-3.9307,-3.9343,-3.9307,-3.9337,-3.9307,-3.9343,-3.9074,-3.8715,-3.8552,-3.8327,-3.8043,-3.7382,-3.6649,-3.622,-3.6367,-3.611,-3.594,-5.4907,-5.4131,-5.4173,-5.2898,-5.0989,-5.2018,-5.2073,-5.1421,-5.1421,-5.1303,-5.1164,-5.0723,-5.0356,-4.9971,-4.9971,-5.0168,-5.0589,-5.0628,-5.0858,-5.1167,-5.101,-5.101,-5.1162,-5.082,-5.0743,-5.0928,-5.0858,-5.0781,-5.0705,-5.082,-5.082,-5.0628,-5.0512,-5.0589,-5.0858,-5.0896,-5.0781,-5.0589,-5.0363,-5.0246,-5.0285,-5.0473,-5.0301,-4.9661,-4.8957,-4.8531,-4.828,-4.6919,-4.6402,-4.694,-4.6429,-4.6003,-4.5782,-4.5688,-4.544,0.0,-4.4898,0.0,0.0,0.0,0.0,0.0,0.0,0.0,0.0,-4.2024,-4.2054,-4.2038,-4.2001,-4.1896,-4.1716,-4.1835,-4.1667,-4.1189,-4.1797,-4.2102,-4.173,-4.174,-4.1709,-4.1617,-4.1063,-4.0597,-4.0505,-4.0505,-4.0505,-4.0505,-4.0505,-4.0466,-4.0362,-4.0222,-4.0117,-4.0051,-4.0081,-4.0051,-4.0046,-4.0011,-3.9975,-3.9975,-3.994,-4.0011,-3.9975,-3.9975,-3.9975,-3.9975,-3.991,-3.9733,-3.9226,-3.9135,-3.8774,-3.7831,-3.7405,-3.7253,-3.7339,-3.6734,-3.6312,-5.6746,-5.6147,-5.5432,-5.4927,-5.4595,-5.3685,-5.1394,-4.8256,-4.8256,-4.8702,-4.9515,-5.0083,-5.0285,-5.0207,-5.0207,-5.0363,-5.0628,-5.0781,-5.0972,-5.1199,-5.1162,-5.1086,-5.0934,-5.0858,-5.0858,-5.0858,-5.0743,-5.082,-5.1086,-5.0972,-5.0858,-5.082,-5.0972,-5.0902,-5.0666,0.0,0.0,0.0,-5.0168,-5.0089,-5.0317,-5.0356,-5.037,-5.0365,-4.9693,0.0,-4.9432,-4.8472,-4.7978,-4.8142,-4.7866,0.0,0.0,0.0,0.0,0.0,0.0,0.0,0.0,0.0,0.0,0.0,-4.3469,-4.3188,-4.2568,-4.2797,-4.2965,-4.2796,-4.2584,-4.2258,-4.1776,-4.1716,-4.173,-4.1617,-4.1886,-4.2071,-4.2132,-4.2308,-4.2202,-4.1678,-4.1463,-4.1155,-4.0628,-4.0505,-4.0505,-4.0505,-4.0505,-4.0505,-4.047,-4.0436,-4.0401,-4.0401,-4.0296,-4.0226,-4.0257,-4.0117,-4.0046,-4.0011,-4.0011,-4.0011,-4.0011,-4.0011,-4.0011,-4.0011,-4.0011,-3.998,-3.9798,-3.9939,-3.986,-3.9677,-3.8861,-3.7853,-3.6647,-3.6283,-3.6225,-5.6489,0.0,-5.5744,-5.4934,0.0,-5.3381,-5.1295,-4.8297,-4.9555,-5.0169,-5.0241,-5.058,-5.0634,-5.0441,-4.9623,-4.9343,-4.9393,-4.8797,-4.901,-4.9839,-4.9871,-5.0295,-5.1048,-5.0858,-5.082,-5.0928,-5.0781,-5.0858,-5.1048,-5.1048,-5.1048,-5.1048,-5.1048,-5.101,-5.0896,-5.082,-5.0666,-5.0473,-5.0089,-4.9971,-5.0089,-5.0207,-5.0246,-5.0214,0.0,0.0,0.0,0.0,0.0,0.0,0.0,0.0,0.0,0.0,0.0,-4.5843,-4.5498,-4.4965,-4.4227,-4.4157,-4.3967,-4.3548,-4.3518,-4.3367,-4.2968,-4.3189,-4.3249,-4.3154,-4.3016,-4.2818,-4.2518,-4.2488,-4.2415,-4.2228,-4.2629,-4.294,-4.2829,-4.2953,-4.294,-4.2633,-4.2294,-4.1832,-4.1155,-4.1063,-4.0909,-4.0566,-4.0505,-4.0505,-4.0505,-4.0505,-4.0505,-4.0505,-4.047,-4.0436,-4.0505,-4.0366,-4.0296,-4.0366,-4.0296,-4.0261,-4.0226,-4.0257,-4.0261,-4.0226,-4.0226,-4.0261,-4.0231,-4.0086,-3.9787,-3.945,-3.9033,-3.8174,-3.669,-3.6352,-3.6506,-5.6089,-5.6089,-5.5953,-5.4801,-5.3112,-5.3276,-5.2062,-5.0155,0.0,0.0,0.0,-5.1182,-5.101,-5.057,-4.926,-4.8679,-4.8621,-4.7504,-4.7709,-4.8983,-4.8978,-4.9769,-5.1167,-5.0858,-5.0781,-5.0934,-5.0896,-5.0896,-5.0934,-5.1086,-5.1162,-5.1199,-5.101,-5.1048,-5.1162,-5.082,-5.0512,-5.0324,-5.005,-4.99,-4.99,-5.0129,-5.0129,-4.9931,-4.9519,-4.9526,-4.9939,-4.8857,-4.8548,-4.9093,-4.8355,-4.7808,-4.7575,-4.7325,-4.6868,-4.6265,-4.6103,-4.5637,-4.4689,-4.4578,-4.4237,-4.3529,-4.3349,-4.329,-4.329,-4.329,-4.329,-4.329,-4.329,-4.329,-4.329,-4.329,-4.3159,-4.2853,-4.3538,-4.386,-4.3532,-4.3629,-4.3747,-4.3593,-4.3063,-4.254,-4.1894,-4.1771,-4.1586,-4.1028,-4.0843,-4.0597,-4.0536,-4.0505,-4.0505,-4.0505,-4.0539,-4.0608,-4.0715,-4.0712,-4.0677,-4.078,-4.0677,-4.0574,-4.0574,-4.0509,-4.0505,-4.047,-4.0509,-4.0574,-4.0512,-4.0208,-3.9624,-3.9069,-3.8984,-3.8647,-3.7468,-3.694,-3.6971,-5.7577,-5.7543,-5.6934,-5.6725,-5.6749,-5.5566,-5.4644,-5.3817,-5.1894,-5.0659,-5.0167,-5.0871,-5.1086,-5.0858,-5.0627,-5.053,-5.0498,-5.0494,-5.0639,0.0,-5.0801,-5.0968,-5.1199,-5.1162,-5.1129,-5.1162,-5.0972,-5.0972,-5.1124,-5.101,-5.101,-5.1167,-5.1199,-5.1167,-5.1162,-5.082,-5.0589,-5.055,-5.0129,-4.99,-4.99,-4.9931,-4.9931,-4.9931,-4.9805,-4.9923,-5.0207,-4.9789,-4.9757,-5.008,-4.9757,-4.9378,-4.9019,-4.8409,-4.7818,-4.715,-4.658,-4.6133,-4.5799,-4.5595,-4.509,-4.4227,-4.3618,-4.329,-4.329,-4.329,-4.329,-4.329,-4.3319,-4.329,-4.329,-4.329,-4.3339,-4.3554,-4.381,-4.4004,-4.4113,-4.4273,-4.424,-4.3716,-4.3531,-4.3187,-4.2602,-4.2479,-4.2417,-4.2232,-4.1678,-4.1217,-4.0689,-4.0505,-4.0505,-4.0539,-4.0677,-4.0749,-4.0817,-4.095,-4.0984,-4.1049,-4.0882,-4.078,-4.0749,-4.0612,-4.0574,-4.0539,-4.0646,-4.0746,-4.0749,-4.0851,-4.064,-4.0422,-4.0115,-3.9462,-3.859,-3.8028,-3.7592,-5.7991,-5.7884,-5.7543,-5.7304,-5.7094,-5.6057,-5.5409,-5.4831,-5.3317,-5.224,-5.1756,-5.2126,-5.1895,-5.1167,-5.0204,-4.9925,-5.0139,-4.9089,-4.9227,-5.0258,-5.0122,-5.0492,-5.1172,-5.1312,-5.135,-5.135,-5.1162,-5.1162,-5.135,-5.1162,-5.1124,-5.1167,-5.1237,-5.1237,-5.1199,-5.082,-5.0589,-5.0589,-5.0129,-4.99,-4.99,-4.99,-4.99,-4.99,-4.99,-4.9971,-5.0089,-4.9971,-4.9971,-5.0089,-4.9852,-4.9622,-4.9461,-4.897,-4.849,-4.8019,-4.762,-4.7119,-4.6579,-4.601,-4.5212,-4.4098,-4.3878,-4.3648,-4.3319,-4.329,-4.3439,-4.3768,-4.3529,-4.329,-4.329,-4.329,-4.3438,-4.3705,-4.3871,-4.4104,-4.4297,-4.4458,-4.4449,-4.4209,-4.4148,-4.3901,-4.3217,-4.3125,-4.2971,-4.2663,-4.2017,-4.1463,-4.1124,-4.0755,-4.0574,-4.0677,-4.0848,-4.0984,-4.1021,-4.1086,-4.112,-4.1187,-4.1086,-4.0984,-4.095,-4.0848,-4.0814,-4.0814,-4.0882,-4.095,-4.095,-4.0707,-4.0618,-4.0493,-4.0092,-3.9405,-3.8748,-3.8152,-3.7588,-5.8027,-5.7881,-5.7881,-5.7507,-5.6889,-5.6341,-5.5896,-5.5432,-5.5028,-5.4444,-5.3746,-5.321,-5.2495,-5.1624,-5.0223,-4.9941,-5.0113,-4.8533,-4.8629,-5.0054,-4.9766,-5.0168,-5.1177,-5.1424,-5.1499,-5.1494,-5.148,-5.148,-5.142,-5.1404,-5.1329,-5.1237,-5.1237,-5.1237,-5.1167,-5.082,-5.0589,-5.0589,-5.0129,-4.99,-4.9892,-5.0058,-5.0153,-5.0153,-5.0153,-5.0153,-5.0153,-4.9995,-4.99,-4.9892,-4.9773,-4.9622,-4.9582,-4.9291,-4.9037,-4.8718,-4.8552,-4.8129,-4.733,-4.6557,-4.5616,-4.4539,-4.4439,-4.4288,-4.3918,-4.3519,-4.3579,-4.3958,-4.3559,-4.329,-4.329,-4.329,-4.3369,-4.3596,-4.3832,-4.4026,-4.4151,-4.4327,-4.4356,-4.4318,-4.4356,-4.4148,-4.3778,-4.3747,-4.3556,-4.294,-4.2355,-4.1986,-4.1617,-4.1128,-4.0959,-4.1034,-4.1109,-4.1117,-4.1254,-4.1254,-4.1254,-4.1357,-4.1254,-4.1153,-4.112,-4.1151,-4.1083,-4.1083,-4.1086,-4.112,-4.1122,-4.0843,-4.0595,-4.0596,-4.0318,-3.9692,-3.8842,-3.84,-3.7862,-5.7918,-5.7881,-5.7918,-5.7665,-5.723,-5.7001,-5.6711,-5.6568,-5.6829,-5.6387,-5.5118,-5.3148,-5.236,-5.2378,-5.2172,-5.2383,-5.2773,-5.2068,-5.1712,-5.1809,-5.1297,-5.1182,-5.1462,-5.1499,-5.1499,-5.1597,-5.2048,-5.194,-5.1345,-5.1788,-5.1782,-5.1302,-5.1237,-5.1205,-5.1162,-5.082,-5.0589,-5.0589,-5.0129,-4.99,-4.9923,-5.0563,-5.092,-5.092,-5.092,-5.092,-5.0857,-5.0247,-4.99,-4.9892,-4.9892,-4.9812,-4.9653,-4.9541,-4.9372,-4.8996,-4.8914,-4.8687,-4.819,-4.7526,-4.6945,-4.667,-4.5556,-4.5102,-4.5303,-4.4368,-4.3587,-4.3519,-4.3389,-4.329,-4.329,-4.329,-4.3329,-4.3409,-4.3723,-4.3949,-4.381,-4.3708,-4.3611,-4.3455,-4.3758,-4.3685,-4.371,-4.4117,-4.4209,-4.3624,-4.3316,-4.2823,-4.1899,-4.174,-4.1731,-4.1769,-4.1523,-4.1211,-4.1312,-4.1388,-4.1584,-4.1586,-4.1423,-4.1321,-4.1288,-4.1187,-4.1117,-4.1218,-4.1221,-4.129,-4.1323,-4.1329,-4.1396,-4.1237,-4.1081,-4.0861,-3.9787,-3.925,-3.8966,-5.8099,-5.7952,-5.8027,-5.7991,-5.7772,-5.7364,-5.6872,-5.6463,-5.6467,-5.5917,-5.4924,-5.4033,-5.3577,-5.3319,-5.3198,-5.3435,-5.3855,-5.2721,-5.243,-5.2721,-5.1831,-5.1424,-5.1499,-5.161,-5.1721,-5.186,-5.2296,-5.2183,-5.1666,-5.1572,-5.1459,-5.1199,-5.1237,-5.1162,-5.101,-5.0858,-5.0666,-5.0434,-5.0207,-5.024,-5.0572,-5.0857,-5.1015,-5.1015,-5.1015,-5.1015,-5.0951,-5.0311,-4.99,-4.99,-4.99,-4.9892,-4.9773,-4.9693,-4.9493,-4.9169,-4.8924,-4.8492,-4.7927,-4.7895,-4.7496,-4.6651,-4.6346,-4.6143,-4.5879,-4.4991,-4.4406,-4.4257,-4.3688,-4.329,-4.329,-4.329,-4.3399,-4.3518,-4.3714,-4.3832,-4.3871,-4.386,-4.3831,-4.3869,-4.3983,-4.4028,-4.4202,-4.4387,-4.4449,-4.4178,-4.3901,-4.3193,-4.2438,-4.2085,-4.179,-4.1582,-4.1653,-4.2103,-4.2394,-4.2372,-4.2284,-4.2157,-4.1806,-4.1489,-4.1456,-4.1454,-4.1421,-4.1388,-4.1423,-4.1456,-4.1489,-4.1522,-4.1588,-4.1525,-4.1178,-4.0798,-4.023,-3.9787,-3.9534,-5.8171,-5.7918,-5.8063,-5.8063,-5.7991,-5.7514,-5.6951,-5.6441,-5.6258,-5.5809,-5.5194,-5.531,-5.5052,-5.4486,-5.4162,-5.4222,-5.4438,-5.3369,-5.3078,-5.3434,-5.2525,-5.2123,-5.216,-5.2277,-5.2458,-5.2631,-5.2954,-5.2938,-5.2459,-5.1777,-5.1459,-5.1459,-5.1459,-5.1415,-5.123,-5.1063,-5.0968,-5.1023,-5.0777,-5.0842,-5.1317,-5.1489,-5.1489,-5.1259,-5.111,-5.1015,-5.0983,-5.0279,-4.99,-4.99,-4.99,-4.99,-4.986,-4.9773,-4.9573,-4.9259,-4.8852,-4.8419,-4.7927,-4.8193,-4.7956,-4.7068,-4.7129,-4.6945,-4.6356,-4.5595,-4.5099,-4.4898,-4.4076,-4.3488,-4.3488,-4.3448,-4.3518,-4.3754,-4.3793,-4.391,-4.3988,-4.3944,-4.3884,-4.4022,-4.3945,-4.4235,-4.4541,-4.461,-4.4579,-4.4517,-4.4024,-4.3507,-4.3061,-4.2514,-4.2027,-4.1887,-4.2532,-4.2865,-4.3066,-4.2819,-4.2631,-4.2315,-4.1841,-4.1588,-4.1588,-4.1588,-4.1588,-4.1521,-4.1555,-4.1588,-4.1555,-4.1588,-4.1588,-4.1494,-4.1209,-4.083,-4.0546,-4.023,-4.0261,-5.7918,-5.7918,-5.7918,-5.7808,-5.7625,-5.7402,-5.7181,-5.693,-5.6925,-5.6773,-5.652,-5.6744,-5.6509,-5.5896,-5.5201,-5.5096,-5.5223,-5.4535,-5.4211,-5.4211,-5.3662,-5.3601,-5.3787,-5.3793,-5.3798,-5.3732,-5.4195,-5.4319,-5.4096,-5.2819,-5.2171,-5.2139,-5.2106,-5.2139,-5.1997,-5.1359,-5.1572,-5.2452,-5.175,-5.1582,-5.2281,-5.2742,-5.2554,-5.1986,-5.1353,-5.111,-5.0943,-5.0311,-4.9931,-4.9931,-4.99,-4.99,-4.9892,-4.9892,-4.9693,-4.93,-4.8883,-4.8604,-4.8543,-4.8532,-4.8501,-4.8378,-4.7876,-4.7497,-4.7201,-4.6162,-4.541,-4.5029,-4.4443,-4.4009,-4.3949,-4.3793,-4.3754,-4.3949,-4.4143,-4.4143,-4.4026,-4.3838,-4.3567,-4.3523,-4.369,-4.4011,-4.451,-4.461,-4.461,-4.4486,-4.4055,-4.3593,-4.3482,-4.3061,-4.3015,-4.3438,-4.3742,-4.3678,-4.2048,-4.2561,-4.26,-4.2252,-4.2157,-4.1683,-4.162,-4.1588,-4.1588,-4.1588,-4.1588,-4.1588,-4.1588,-4.1588,-4.1588,-4.1557,-4.1557,-4.1272,-4.0925,-4.1241,-4.1209,-5.8099,-5.8063,-5.7954,-5.7952,-5.7954,-5.7625,-5.7364,-5.7214,-5.7176,-5.6987,-5.6757,-5.6911,-5.6719,-5.6251,-5.5903,-5.5585,-5.5345,-5.4697,-5.4405,-5.4381,-5.3825,-5.3655,-5.3732,-5.3967,-5.4081,-5.4175,-5.4645,-5.4731,-5.4348,-5.3402,-5.2916,-5.2819,-5.243,-5.232,-5.2494,-5.1933,-5.1906,-5.2501,-5.2292,-5.2394,-5.2784,-5.273,-5.2657,-5.2712,-5.2491,-5.2112,-5.167,-5.0974,-5.0405,-4.9931,-4.99,-4.99,-4.9892,-4.9653,-4.9421,-4.9291,-4.8883,-4.8604,-4.8604,-4.8604,-4.8604,-4.8573,-4.8419,-4.8194,-4.7988,-4.7282,-4.6536,-4.6036,-4.5266,-4.4747,-4.4388,-4.4104,-4.391,-4.3988,-4.4065,-4.4104,-4.3996,-4.3929,-4.3892,-4.3937,-4.4089,-4.4326,-4.4486,-4.461,-4.461,-4.4541,-4.4394,-4.4123,-4.3834,-4.364,-4.3625,-4.3684,-4.4118,-4.4232,-4.316,-4.351,-4.3769,-4.3137,-4.2726,-4.241,-4.2252,-4.178,-4.1685,-4.1621,-4.1621,-4.1588,-4.1588,-4.1588,-4.1588,-4.1588,-4.1588,-4.1494,-4.1304,-4.1462,-4.143,-5.8099,-5.8063,-5.7954,-5.7954,-5.8027,-5.7735,-5.7514,-5.7402,-5.7327,-5.7101,-5.6872,-5.6949,-5.6757,-5.6408,-5.6244,-5.5934,-5.5499,-5.4996,-5.4729,-5.4697,-5.441,-5.43,-5.4339,-5.4612,-5.4728,-5.4722,-5.4724,-5.4749,-5.4672,-5.4017,-5.3653,-5.3628,-5.3142,-5.3064,-5.3269,-5.2713,-5.2595,-5.2973,-5.3021,-5.3113,-5.3248,-5.3121,-5.3101,-5.3355,-5.325,-5.2649,-5.1733,-5.1006,-5.0437,-4.9995,-4.99,-4.99,-4.9892,-4.9573,-4.9372,-4.9291,-4.8965,-4.8676,-4.8604,-4.8604,-4.8604,-4.8604,-4.8604,-4.8604,-4.8532,-4.7989,-4.7342,-4.6625,-4.587,-4.5194,-4.4711,-4.4374,-4.422,-4.422,-4.422,-4.422,-4.422,-4.422,-4.4266,-4.4351,-4.4465,-4.4572,-4.461,-4.461,-4.461,-4.461,-4.461,-4.4432,-4.4205,-4.4161,-4.4215,-4.3997,-4.4485,-4.4499,-4.4067,-4.4358,-4.4271,-4.3703,-4.292,-4.2762,-4.2667,-4.2129,-4.1782,-4.1686,-4.1654,-4.1621,-4.1588,-4.1588,-4.1588,-4.1588,-4.1588,-4.1557,-4.1494,-4.1557,-4.1494,-5.7915,-5.7918,-5.7881,-5.7918,-5.7881,-5.7698,-5.7588,-5.7551,-5.7402,-5.7214,-5.7025,-5.7025,-5.6796,-5.6486,-5.6402,-5.6165,-5.5846,-5.5507,-5.5353,-5.5353,-5.5555,-5.5603,-5.5603,-5.5618,-5.5618,-5.5618,-5.489,-5.4834,-5.5247,-5.4697,-5.4405,-5.4405,-5.4276,-5.4211,-5.4405,-5.3646,-5.3614,-5.4043,-5.3888,-5.3684,-5.3748,-5.3883,-5.3924,-5.3882,-5.3344,-5.2396,-5.111,-5.0405,-5.0058,-4.9931,-4.99,-4.99,-4.9892,-4.9693,-4.9533,-4.93,-4.9087,-4.8914,-4.8646,-4.8646,-4.8676,-4.8635,-4.8604,-4.8604,-4.8512,-4.805,-4.7404,-4.6665,-4.6049,-4.5372,-4.4756,-4.4572,-4.4534,-4.4572,-4.4534,-4.4534,-4.4534,-4.4572,-4.461,-4.461,-4.4648,-4.461,-4.461,-4.4648,-4.4648,-4.4648,-4.4648,-4.4648,-4.46,-4.4606,-4.4699,-4.4856,-4.5065,-4.5038,-4.5043,-4.5016,-4.4583,-4.4085,-4.321,-4.2706,-4.2863,-4.2578,-4.2104,-4.1978,-4.1752,-4.1687,-4.1588,-4.1588,-4.1588,-4.1588,-4.1588,-4.1588,-4.1588,-4.1588,-4.1588,-5.8355,-5.7915,-5.7881,-5.7881,-5.7881,-5.7808,-5.7735,-5.7625,-5.7514,-5.7402,-5.7214,-5.7063,-5.6911,-5.6757,-5.6525,-5.633,-5.6205,-5.5966,-5.5693,-5.5523,-5.5806,-5.5846,-5.5645,-5.5846,-5.5959,-5.5806,-5.5691,-5.5498,-5.5385,-5.5183,-5.5086,-5.5021,-5.4632,-5.4697,-5.5021,-5.4277,-5.4083,-5.4562,-5.4544,-5.4336,-5.4041,-5.4158,-5.4052,-5.3376,-5.2712,-5.1891,-5.1078,-5.0753,-5.0437,-4.9963,-4.99,-4.99,-4.9892,-4.9733,-4.9541,-4.9533,-4.9331,-4.921,-4.9087,-4.8924,-4.8872,-4.8831,-4.8718,-4.8604,-4.8604,-4.8419,-4.7773,-4.6819,-4.6388,-4.5865,-4.488,-4.461,-4.4641,-4.461,-4.461,-4.461,-4.461,-4.4723,-4.4799,-4.4799,-4.4799,-4.4799,-4.4799,-4.4799,-4.4799,-4.4799,-4.4905,-4.498,-4.4874,-4.5017,-4.5241,-4.5352,-4.5541,-4.5614,-4.5493,-4.5376,-4.51,-4.4728,-4.3976,-4.3154,-4.3184,-4.319,-4.2714,-4.2299,-4.201,-4.1816,-4.1686,-4.1621,-4.1621,-4.1588,-4.1588,-4.1588,-4.1588,-4.1588,-4.1588,-5.8558,-5.7915,-5.7881,-5.7881,-5.7881,-5.7881,-5.7845,-5.7735,-5.7698,-5.7588,-5.7402,-5.7289,-5.7139,-5.6987,-5.6719,-5.6525,-5.6441,-5.6362,-5.6053,-5.5726,-5.5846,-5.5806,-5.5564,-5.5693,-5.5806,-5.5685,-5.5766,-5.5653,-5.5409,-5.5409,-5.5409,-5.5312,-5.4988,-5.4988,-5.5304,-5.4858,-5.463,-5.4585,-5.4694,-5.4517,-5.4031,-5.4115,-5.4009,-5.3482,-5.2776,-5.208,-5.1417,-5.1132,-5.0658,-5.0058,-4.99,-4.99,-4.986,-4.9812,-4.9661,-4.9613,-4.9493,-4.9412,-4.9291,-4.9087,-4.8996,-4.8955,-4.8759,-4.8604,-4.8604,-4.8604,-4.8081,-4.7188,-4.6696,-4.6234,-4.5526,-4.5103,-4.501,-4.4979,-4.4726,-4.4678,-4.4685,-4.4836,-4.4942,-4.498,-4.5017,-4.4986,-4.5017,-4.5017,-4.5017,-4.5055,-4.5129,-4.5241,-4.5136,-4.5278,-4.5426,-4.5536,-4.5609,-4.5682,-4.5755,-4.5638,-4.552,-4.5243,-4.4903,-4.4206,-4.379,-4.3802,-4.3553,-4.2974,-4.262,-4.2267,-4.2105,-4.1848,-4.1752,-4.1686,-4.1621,-4.1588,-4.1588,-4.1588,-4.1588,-5.866,-5.7983,-5.7915,-5.7881,-5.7881,-5.7881,-5.7881,-5.7881,-5.7881,-5.7772,-5.7625,-5.7551,-5.7364,-5.7101,-5.6949,-5.6757,-5.6519,-5.6564,-5.6447,-5.6165,-5.6006,-5.5846,-5.5685,-5.5604,-5.5491,-5.545,-5.545,-5.5409,-5.5328,-5.5369,-5.5409,-5.5369,-5.5336,-5.5377,-5.5377,-5.5377,-5.4891,-5.4347,-5.4608,-5.4368,-5.3607,-5.3883,-5.4008,-5.3913,-5.3344,-5.2618,-5.1796,-5.1132,-5.0563,-4.9995,-4.99,-4.99,-4.99,-4.9892,-4.9812,-4.9653,-4.9613,-4.9533,-4.9372,-4.9169,-4.9078,-4.9078,-4.88,-4.8604,-4.8676,-4.8573,-4.8296,-4.7558,-4.7034,-4.6665,-4.6388,-4.5988,-4.5649,-4.5495,-4.4979,-4.4785,-4.4874,-4.4949,-4.5092,-4.5167,-4.5204,-4.5204,-4.5235,-4.5235,-4.5204,-4.5241,-4.5309,-4.5426,-4.5463,-4.5499,-4.5499,-4.5609,-4.5792,-4.5828,-4.59,-4.6052,-4.5932,-4.5801,-4.5553,-4.5112,-4.4473,-4.4388,-4.4231,-4.3683,-4.3201,-4.2814,-4.2428,-4.2169,-4.1881,-4.1752,-4.1654,-4.1621,-4.1652,-4.1683,-4.1746,-5.9404,-5.8693,-5.8118,-5.7881,-5.7881,-5.7881,-5.7881,-5.7881,-5.7881,-5.7845,-5.7772,-5.7662,-5.7476,-5.7214,-5.7063,-5.6872,-5.668,-5.668,-5.668,-5.6525,-5.6362,-5.5934,-5.5645,-5.5645,-5.5604,-5.5483,-5.5564,-5.5523,-5.5237,-5.5328,-5.5328,-5.5196,-5.536,-5.5409,-5.5409,-5.5369,-5.514,-5.4681,-5.4694,-5.4539,-5.4009,-5.4019,-5.385,-5.3376,-5.3218,-5.2491,-5.1353,-5.0595,-5.0153,-4.9963,-4.99,-4.99,-4.99,-4.9892,-4.9892,-4.9852,-4.9781,-4.9781,-4.9693,-4.9412,-4.9291,-4.9372,-4.8924,-4.8687,-4.8841,-4.8687,-4.8266,-4.7742,-4.7404,-4.7127,-4.6696,-4.6449,-4.6142,-4.5626,-4.5217,-4.4936,-4.5092,-4.5241,-4.5352,-4.542,-4.542,-4.542,-4.542,-4.542,-4.5426,-4.5463,-4.5573,-4.5755,-4.5755,-4.5823,-4.5823,-4.5936,-4.6044,-4.6044,-4.6116,-4.6298,-4.6337,-4.6234,-4.608,-4.5998,-4.5389,-4.5009,-4.4685,-4.4264,-4.3814,-4.3427,-4.2878,-4.2426,-4.2137,-4.1817,-4.1781,-4.1811,-4.1873,-4.1936,-4.2064,-5.9674,-5.8927,-5.822,-5.8084,-5.8287,-5.8017,-5.7845,-5.7808,-5.7845,-5.7808,-5.7698,-5.7735,-5.7514,-5.7176,-5.7139,-5.6949,-5.6719,-5.6796,-5.6757,-5.6641,-5.6369,-5.5974,-5.5685,-5.5645,-5.5564,-5.5442,-5.5564,-5.5483,-5.5319,-5.5328,-5.5328,-5.5246,-5.5328,-5.5369,-5.5246,-5.5246,-5.5072,-5.4697,-5.4613,-5.4444,-5.4146,-5.4103,-5.3945,-5.3597,-5.3502,-5.287,-5.1543,-5.0753,-5.0247,-5.0026,-4.99,-4.99,-4.99,-4.99,-4.99,-4.99,-4.99,-4.99,-4.9821,-4.9501,-4.934,-4.934,-4.8893,-4.8718,-4.8759,-4.8646,-4.8389,-4.8112,-4.7804,-4.7588,-4.7465,-4.7188,-4.692,-4.6638,-4.5858,-4.529,-4.5229,-4.5278,-4.5426,-4.5536,-4.5641,-4.5641,-4.5641,-4.5609,-4.5641,-4.5677,-4.5755,-4.59,-4.6008,-4.6112,-4.6148,-4.6223,-4.6259,-4.6187,-4.6223,-4.6369,-4.6615,-4.6547,-4.6689,-4.6633,-4.6277,-4.5729,-4.5468,-4.5111,-4.4528,-4.3945,-4.3394,-4.2749,-4.2171,-4.1946,-4.1973,-4.2064,-4.2222,-4.2667,-4.2699,-5.9708,-5.9066,-5.822,-5.8321,-5.8795,-5.822,-5.791,-5.7833,-5.7876,-5.7735,-5.7551,-5.7735,-5.7551,-5.7063,-5.7214,-5.7063,-5.6719,-5.6872,-5.6834,-5.6641,-5.6323,-5.5966,-5.5846,-5.5564,-5.545,-5.5409,-5.5409,-5.5369,-5.5328,-5.5328,-5.5369,-5.5328,-5.5328,-5.5246,-5.5155,-5.5072,-5.4822,-5.4539,-5.4454,-5.4327,-5.4146,-5.4103,-5.404,-5.4008,-5.3787,-5.3186,-5.2112,-5.1353,-5.0753,-4.9963,-4.9931,-4.99,-4.99,-4.986,-4.986,-4.986,-4.9892,-4.9852,-4.9852,-4.9533,-4.93,-4.9259,-4.8893,-4.8635,-4.8676,-4.8676,-4.8573,-4.8481,-4.805,-4.805,-4.8276,-4.7999,-4.7639,-4.7459,-4.664,-4.5718,-4.5372,-4.5266,-4.5352,-4.575,-4.5823,-4.5823,-4.5823,-4.5823,-4.5818,-4.6066,-4.6117,-4.6099,-4.6171,-4.6207,-4.6287,-4.6404,-4.6369,-4.6298,-4.6333,-4.6404,-4.6719,-4.6892,-4.7167,-4.7238,-4.7039,-4.6647,-4.6419,-4.606,-4.5439,-4.469,-4.3912,-4.3201,-4.2461,-4.2139,-4.2231,-4.2447,-4.2728,-4.3461,-4.3714,-6.0013,-5.9742,-5.8423,-5.8321,-5.8829,-5.822,-5.8183,-5.8586,-5.8082,-5.7876,-5.7772,-5.7698,-5.7514,-5.7252,-5.7285,-5.7101,-5.6757,-5.6911,-5.6872,-5.6641,-5.6284,-5.6086,-5.5927,-5.5572,-5.5409,-5.5409,-5.5409,-5.5328,-5.5237,-5.5287,-5.5287,-5.5196,-5.5196,-5.5155,-5.5072,-5.4906,-5.4697,-5.4454,-5.4412,-5.4285,-5.4146,-5.4103,-5.4103,-5.4071,-5.366,-5.2934,-5.2207,-5.1859,-5.1195,-5.0279,-4.9963,-5.0058,-4.9923,-4.9773,-4.9773,-4.9852,-4.9741,-4.9773,-4.9812,-4.9541,-4.9372,-4.9421,-4.8934,-4.8676,-4.8914,-4.8718,-4.8604,-4.8604,-4.8481,-4.8502,-4.8749,-4.8101,-4.7935,-4.7747,-4.681,-4.5843,-4.5725,-4.5553,-4.5531,-4.5714,-4.5823,-4.5823,-4.5823,-4.5823,-4.5981,-4.636,-4.6439,-4.6394,-4.6434,-4.647,-4.649,-4.6574,-4.6509,-4.6474,-4.658,-4.6684,-4.6961,-4.7201,-4.7471,-4.7638,-4.7505,-4.7339,-4.6977,-4.6648,-4.632,-4.5503,-4.4625,-4.3816,-4.3106,-4.2815,-4.2584,-4.2898,-4.3371,-4.4132,-4.4675,-5.981,-5.9945,-5.849,-5.8321,-5.8896,-5.8592,-5.8349,-5.838,-5.8454,-5.8109,-5.7796,-5.7999,-5.7924,-5.736,-5.77,-5.7582,-5.6982,-5.6949,-5.6949,-5.6757,-5.6408,-5.6126,-5.5846,-5.5564,-5.5287,-5.5369,-5.5319,-5.5196,-5.5155,-5.5196,-5.5155,-5.4989,-5.5031,-5.4915,-5.479,-5.4655,-5.4454,-5.4285,-5.4242,-5.42,-5.4146,-5.4103,-5.4103,-5.4071,-5.3692,-5.3123,-5.2112,-5.2365,-5.1512,-5.0563,-5.046,-5.0492,-4.9987,-4.9812,-4.9781,-4.9821,-4.9812,-4.9773,-4.9812,-4.9541,-4.9372,-4.9452,-4.8893,-4.8759,-4.8759,-4.8646,-4.8604,-4.8604,-4.8604,-4.8728,-4.9047,-4.8707,-4.8428,-4.8333,-4.7468,-4.6849,-4.6827,-4.6084,-4.5426,-4.5609,-4.5719,-4.5787,-4.5823,-4.5823,-4.6244,-4.6729,-4.6682,-4.6639,-4.7065,-4.7073,-4.6792,-4.6773,-4.6679,-4.6684,-4.6823,-4.703,-4.7302,-4.7504,-4.7671,-4.7836,-4.7803,-4.7638,-4.7438,-4.7109,-4.6814,-4.6289,-4.5407,-4.4626,-4.3945,-4.3749,-4.3645,-4.3703,-4.4047,-4.4941,-4.5355,-5.9708,-6.0148,-5.866,-5.849,-5.9066,-5.8896,-5.845,-5.8069,-5.8481,-5.817,-5.7607,-5.8407,-5.798,-5.7767,-5.8006,-5.7792,-5.7196,-5.6949,-5.6872,-5.6757,-5.648,-5.6126,-5.5766,-5.5401,-5.5196,-5.5287,-5.5155,-5.5031,-5.5031,-5.5031,-5.498,-5.4822,-5.4906,-5.4749,-5.4497,-5.437,-5.4285,-5.4114,-5.4146,-5.4146,-5.4103,-5.4103,-5.4103,-5.4071,-5.404,-5.3313,-5.2523,-5.2586,-5.2302,-5.0374,-5.1376,-5.1218,-5.0389,-4.9939,-4.9939,-4.997,-4.9827,-4.9773,-4.9733,-4.9501,-4.9291,-4.9291,-4.8852,-4.8604,-4.8604,-4.8646,-4.8687,-4.8718,-4.8759,-4.8893,-4.925,-4.9066,-4.9066,-4.9063,-4.8546,-4.8133,-4.7785,-4.6452,-4.5796,-4.5756,-4.5845,-4.5823,-4.5823,-4.5823,-4.6475,-4.6961,-4.6914,-4.7019,-4.7417,-4.7505,-4.7155,-4.6805,-4.6682,-4.6892,-4.7064,-4.7267,-4.7571,-4.7704,-4.7902,-4.7935,-4.7968,-4.7869,-4.7671,-4.7539,-4.721,-4.6684,-4.6192,-4.5473,-4.4984,-4.4785,-4.4649,-4.4611,-4.5088,-4.5751,-4.5943,-6.0994,-6.0994,-5.9471,-5.9235,-5.9674,-5.866,-5.8386,-5.8619,-5.8137,-5.7833,-5.7803,-5.7532,-5.7859,-5.7955,-5.7439,-5.7163,-5.7058,-5.6911,-5.6719,-5.6525,-5.6323,-5.6046,-5.5685,-5.536,-5.5155,-5.5072,-5.4989,-5.4864,-5.4822,-5.4854,-5.4813,-5.4739,-5.4623,-5.4454,-5.437,-5.4242,-5.4189,-5.4103,-5.4103,-5.4103,-5.4103,-5.4103,-5.4103,-5.4103,-5.4103,-5.3408,-5.2681,-5.3123,-5.2965,-5.1195,-5.2009,-5.1706,-5.0838,-5.037,-5.0266,-5.0016,-4.9712,-4.9573,-4.9582,-4.9421,-4.93,-4.9178,-4.8893,-4.8646,-4.8676,-4.88,-4.8841,-4.8924,-4.9047,-4.9178,-4.9259,-4.9291,-4.9372,-4.9296,-4.884,-4.8128,-4.7551,-4.6948,-4.641,-4.6534,-4.6229,-4.5981,-4.6139,-4.6302,-4.6729,-4.7252,-4.7379,-4.7553,-4.7914,-4.7698,-4.7277,-4.693,-4.6649,-4.6961,-4.7335,-4.7536,-4.777,-4.7836,-4.7968,-4.7968,-4.8001,-4.8001,-4.7869,-4.7704,-4.7573,-4.7177,-4.6717,-4.6192,-4.58,-4.5404,-4.54,-4.5461,-4.5741,-4.6083,-4.6138,-6.0926,-6.1163,-6.0047,-5.9539,-5.9471,-5.9201,-5.8761,-5.8457,-5.8346,-5.8309,-5.8234,-5.8043,-5.8026,-5.8227,-5.8131,-5.7691,-5.7281,-5.6987,-5.668,-5.6441,-5.6284,-5.5974,-5.5685,-5.536,-5.5196,-5.5113,-5.4989,-5.4822,-5.4655,-5.4771,-5.4687,-5.4444,-5.437,-5.437,-5.4242,-5.4146,-5.4103,-5.4103,-5.4103,-5.4103,-5.4103,-5.4103,-5.4103,-5.4103,-5.4071,-5.3566,-5.2923,-5.2934,-5.2734,-5.1779,-5.2114,-5.182,-5.1162,-5.0673,-5.0351,-4.9883,-4.9559,-4.9493,-4.9541,-4.9381,-4.93,-4.9291,-4.8965,-4.8759,-4.8718,-4.88,-4.8996,-4.9037,-4.9169,-4.934,-4.9421,-4.9421,-4.9533,-4.951,-4.9188,-4.8638,-4.8075,-4.7683,-4.7491,-4.7334,-4.6866,-4.6708,-4.6929,-4.7098,-4.7241,-4.7511,-4.7776,-4.8093,-4.8345,-4.7995,-4.7577,-4.7268,-4.702,-4.7328,-4.7667,-4.7835,-4.7902,-4.7968,-4.8001,-4.8001,-4.8001,-4.8001,-4.7968,-4.7869,-4.7704,-4.754,-4.7243,-4.675,-4.6388,-4.6059,-4.5992,-4.6019,-4.6104,-4.6287,-4.6378,-6.0926,-6.1434,-6.0486,-5.9776,-5.9336,-5.9471,-5.8964,-5.8152,-5.8417,-5.8643,-5.8698,-5.8488,-5.8471,-5.8729,-5.8667,-5.8308,-5.7469,-5.7101,-5.6834,-5.648,-5.6408,-5.6132,-5.5693,-5.545,-5.5409,-5.5319,-5.5196,-5.4874,-5.4539,-5.4613,-5.4444,-5.4274,-5.4285,-5.4285,-5.4146,-5.4103,-5.4103,-5.4103,-5.4103,-5.4103,-5.4103,-5.4103,-5.4103,-5.4103,-5.406,-5.367,-5.2965,-5.3016,-5.2522,-5.1967,-5.1934,-5.1845,-5.1022,-5.0874,-5.037,-4.9418,-4.9372,-4.9452,-4.9412,-4.9331,-4.921,-4.921,-4.9006,-4.88,-4.8759,-4.88,-4.8996,-4.9078,-4.9169,-4.9381,-4.9501,-4.9613,-4.9653,-4.9661,-4.963,-4.937,-4.8804,-4.8435,-4.8292,-4.7997,-4.7498,-4.7245,-4.7308,-4.7188,-4.7173,-4.7649,-4.7951,-4.8496,-4.8683,-4.8437,-4.8052,-4.7675,-4.7556,-4.7828,-4.8031,-4.8165,-4.8101,-4.7968,-4.8001,-4.8001,-4.8001,-4.8001,-4.7968,-4.7968,-4.7968,-4.7803,-4.7539,-4.7342,-4.7012,-4.6748,-4.655,-4.648,-4.6532,-4.6592,-4.6722,-6.2178,-6.2144,-6.0723,-6.0047,-5.9776,-5.8761,-5.8118,-5.7949,-5.787,-5.8163,-5.8627,-5.8006,-5.8518,-5.9437,-5.9197,-5.8186,-5.7348,-5.7101,-5.6949,-5.6519,-5.6525,-5.6369,-5.6013,-5.5774,-5.5693,-5.5612,-5.545,-5.4998,-5.4665,-5.4581,-5.437,-5.4157,-5.4146,-5.4146,-5.4103,-5.4103,-5.4103,-5.4103,-5.4103,-5.4103,-5.4103,-5.4103,-5.4103,-5.406,-5.3899,-5.3593,-5.3047,-5.3001,-5.2578,-5.163,-5.1802,-5.1363,-5.0452,-5.0561,-4.9951,-4.9191,-4.8883,-4.9078,-4.9118,-4.9118,-4.9078,-4.9037,-4.8841,-4.8646,-4.8718,-4.8841,-4.9078,-4.925,-4.9259,-4.9372,-4.9533,-4.9613,-4.9661,-4.9781,-4.9821,-4.9474,-4.9071,-4.9134,-4.9022,-4.8787,-4.832,-4.7688,-4.7372,-4.7188,-4.7098,-4.7649,-4.8194,-4.8703,-4.9022,-4.8774,-4.8725,-4.8442,-4.8446,-4.8685,-4.8692,-4.8794,-4.853,-4.8233,-4.8034,-4.8034,-4.8001,-4.8001,-4.8001,-4.8001,-4.8001,-4.8001,-4.7836,-4.7638,-4.7539,-4.734,-4.7043,-4.6906,-4.6896,-4.6961,-4.6961,-6.2302,-6.2313,-6.1231,-6.052,-5.9979,-5.8964,-5.8254,-5.7913,-5.7698,-5.795,-5.8375,-5.8131,-5.8652,-5.9443,-5.8675,-5.804,-5.7635,-5.7453,-5.7025,-5.668,-5.6641,-5.6519,-5.6205,-5.6093,-5.6053,-5.5934,-5.5894,-5.5733,-5.5205,-5.4749,-5.4528,-5.4285,-5.4189,-5.4103,-5.4103,-5.4103,-5.4103,-5.4103,-5.4103,-5.4017,-5.3974,-5.4017,-5.4017,-5.3962,-5.3833,-5.3601,-5.3326,-5.2691,-5.2424,-5.1623,-5.1543,-5.1055,-5.0456,-5.0259,-4.9774,-4.9404,-4.8903,-4.8872,-4.8996,-4.9027,-4.8996,-4.8996,-4.8872,-4.8872,-4.8841,-4.8883,-4.8996,-4.9118,-4.925,-4.9372,-4.9452,-4.9533,-4.9613,-4.9773,-4.9971,-4.9591,-4.9346,-4.9684,-4.9653,-4.9377,-4.9141,-4.8541,-4.8067,-4.8004,-4.8016,-4.8274,-4.8637,-4.8928,-4.9224,-4.9183,-4.923,-4.9309,-4.9442,-4.9674,-4.9582,-4.9521,-4.9158,-4.8795,-4.8199,-4.8133,-4.8034,-4.8001,-4.8166,-4.81,-4.8034,-4.8034,-4.7968,-4.7803,-4.7605,-4.7538,-4.7504,-4.7268,-4.7098,-4.7064,-4.703,-6.207,-6.2201,-6.1327,-6.0655,-6.0013,-5.9133,-5.8389,-5.7915,-5.7735,-5.8089,-5.8744,-5.9069,-5.9265,-5.9007,-5.837,-5.8165,-5.8026,-5.7637,-5.7243,-5.6987,-5.6796,-5.668,-5.6486,-5.6447,-5.6369,-5.6244,-5.6251,-5.6132,-5.5774,-5.5328,-5.4906,-5.4497,-5.4285,-5.4189,-5.4103,-5.4103,-5.4103,-5.4103,-5.4103,-5.4017,-5.3876,-5.3962,-5.3844,-5.3746,-5.3659,-5.3615,-5.3477,-5.2784,-5.2224,-5.1778,-5.1166,-5.0679,-5.034,-5.0217,-4.9959,-4.9743,-4.957,-4.9519,-4.9264,-4.9058,-4.8944,-4.8914,-4.8914,-4.88,-4.8841,-4.8883,-4.8955,-4.8996,-4.9006,-4.9169,-4.9372,-4.9493,-4.9573,-4.9812,-5.005,-4.9662,-4.948,-4.978,-4.9938,-4.9694,-4.9521,-4.9521,-4.9173,-4.911,-4.9131,-4.9165,-4.9239,-4.9282,-4.9455,-4.9654,-4.9932,-5.0107,-4.9977,-5.0208,-5.0378,-5.0183,-4.9854,-4.9457,-4.8796,-4.8465,-4.8465,-4.8498,-4.863,-4.8465,-4.82,-4.8001,-4.7969,-4.7803,-4.7671,-4.7605,-4.7538,-4.7404,-4.7268,-4.7235,-4.703,-6.1837,-6.1936,-6.0714,-6.0216,-6.0013,-5.8558,-5.7983,-5.7983,-5.7913,-5.8575,-5.9727,-6.0622,-5.9784,-5.8724,-5.8993,-5.8681,-5.7528,-5.7732,-5.7547,-5.736,-5.7214,-5.7025,-5.6834,-5.668,-5.6641,-5.6564,-5.6525,-5.6408,-5.6251,-5.5854,-5.5328,-5.4832,-5.4665,-5.4327,-5.4157,-5.4146,-5.4103,-5.4103,-5.4103,-5.3974,-5.3876,-5.3833,-5.3746,-5.3496,-5.3277,-5.3131,-5.3131,-5.2754,-5.2281,-5.1801,-5.1203,-5.0667,-5.042,-5.0389,-5.0266,-5.0236,-5.0543,-5.0371,-4.9889,-4.918,-4.8738,-4.8676,-4.8676,-4.8646,-4.8687,-4.8646,-4.8759,-4.8883,-4.8841,-4.9006,-4.925,-4.9493,-4.9533,-4.9773,-5.001,-4.9994,-4.9875,-4.9977,-5.0104,-4.9908,-4.9837,-4.9773,-4.9821,-4.9662,-4.9543,-4.9546,-4.971,-4.9789,-5.0232,-5.046,-5.0799,-5.0874,-5.0479,-5.0613,-5.1047,-5.0815,-5.0316,-5.0085,-4.9723,-4.9359,-4.916,-4.916,-4.9226,-4.8894,-4.8663,-4.8332,-4.8034,-4.8133,-4.8067,-4.7803,-4.7638,-4.7538,-4.7404,-4.7369,-4.6996,-6.1361,-6.1098,-6.0757,-6.0405,-6.0013,-5.9032,-5.8558,-5.8555,-5.8332,-5.8988,-6.0287,-6.0427,-6.0393,-6.013,-5.9717,-5.9497,-5.8552,-5.8504,-5.7984,-5.7427,-5.7176,-5.7101,-5.6911,-5.6757,-5.668,-5.668,-5.6603,-5.6564,-5.6525,-5.6251,-5.5974,-5.5572,-5.5205,-5.4832,-5.4581,-5.4231,-5.4103,-5.4103,-5.4103,-5.3974,-5.3833,-5.3789,-5.3702,-5.3421,-5.3188,-5.3131,-5.3086,-5.2863,-5.2342,-5.1836,-5.1467,-5.1067,-5.0728,-5.079,-5.0759,-5.0728,-5.1159,-5.0882,-5.0389,-4.9651,-4.9097,-4.8635,-4.8604,-4.8604,-4.8604,-4.8604,-4.8604,-4.8718,-4.8718,-4.8852,-4.9087,-4.9291,-4.9452,-4.9733,-4.9971,-5.0129,-5.0207,-5.0246,-5.0246,-5.0058,-4.9979,-4.9939,-5.0018,-5.0136,-5.0016,-4.9935,-5.0139,-5.0362,-5.0805,-5.1161,-5.1468,-5.1638,-5.1276,-5.1245,-5.1678,-5.1276,-5.0778,-5.0681,-5.0585,-5.022,-4.9922,-4.9822,-4.9789,-4.9456,-4.929,-4.9223,-4.9058,-4.8761,-4.8497,-4.81,-4.7869,-4.777,-4.7637,-4.747,-4.7064,-6.0591,-6.0525,-6.065,-6.0578,-6.0237,-5.9603,-5.9299,-5.9186,-5.8959,-5.927,-6.0269,-6.0293,-6.0567,-6.0903,-6.0684,-6.0021,-5.9559,-5.9279,-5.8522,-5.8001,-5.7653,-5.7301,-5.6939,-5.6719,-5.668,-5.668,-5.668,-5.668,-5.668,-5.6525,-5.6369,-5.6172,-5.5934,-5.5491,-5.4749,-5.4359,-5.4103,-5.4103,-5.4103,-5.3974,-5.3833,-5.3789,-5.3615,-5.3365,-5.3144,-5.3042,-5.2953,-5.2788,-5.2513,-5.2113,-5.1805,-5.1559,-5.1344,-5.1221,-5.119,-5.1251,-5.1374,-5.119,-5.0851,-5.0143,-4.9497,-4.9097,-4.8696,-4.8635,-4.8604,-4.8604,-4.8604,-4.8604,-4.8604,-4.8718,-4.9037,-4.925,-4.9452,-4.9773,-5.0089,-5.0246,-5.0207,-5.0246,-5.0285,-5.0246,-5.0207,-5.0207,-5.0285,-5.0402,-5.0525,-5.055,-5.087,-5.1112,-5.147,-5.1792,-5.2035,-5.2137,-5.2037,-5.2139,-5.2307,-5.1874,-5.1475,-5.1543,-5.138,-5.0982,-5.0717,-5.0651,-5.0317,-4.9817,-4.9783,-5.0149,-4.9883,-4.9353,-4.8826,-4.8332,-4.8067,-4.7803,-4.7704,-4.7537,-4.7302,-5.9558,-6.0291,-6.0324,-6.0565,-6.0819,-6.027,-5.9928,-5.9809,-5.9732,-5.975,-5.9962,-6.0872,-6.0885,-6.0466,-6.0712,-6.0472,-6.0011,-5.9857,-5.9342,-5.861,-5.8155,-5.774,-5.7315,-5.7028,-5.6912,-5.6713,-5.6812,-5.6879,-5.6779,-5.684,-5.6735,-5.663,-5.6389,-5.5854,-5.4832,-5.4359,-5.4146,-5.4103,-5.4103,-5.3974,-5.3876,-5.3789,-5.3496,-5.3277,-5.3086,-5.2953,-5.2788,-5.2774,-5.2606,-5.2483,-5.2082,-5.1713,-5.1251,-5.159,-5.1498,-5.1097,-5.2052,-5.2175,-5.1713,-5.0451,-4.9866,-4.9466,-4.8974,-4.8758,-4.8696,-4.8696,-4.885,-4.9066,-4.885,-4.8934,-4.9118,-4.9331,-4.9533,-4.9773,-5.005,-5.0246,-5.0207,-5.0168,-5.0168,-5.0285,-5.0473,-5.0589,-5.0666,-5.0743,-5.0972,-5.1167,-5.154,-5.1831,-5.1977,-5.2086,-5.2194,-5.2338,-5.2338,-5.2338,-5.2373,-5.2373,-5.2241,-5.2343,-5.2108,-5.1645,-5.1545,-5.1612,-5.1111,-5.0344,-5.0476,-5.094,-5.0406,-4.9739,-4.9185,-4.8595,-4.8067,-4.777,-4.7704,-4.7604,-4.7404,-5.9536,-5.9451,-6.0577,-6.1098,-6.1127,-6.0656,-6.0393,-6.0354,-6.0348,-6.0464,-6.0679,-6.1026,-6.106,-6.1,-6.1006,-6.0878,-6.0117,-5.9717,-5.927,-5.8858,-5.8464,-5.838,-5.803,-5.7653,-5.7409,-5.7409,-5.7409,-5.7376,-5.7442,-5.7204,-5.7342,-5.7336,-5.6376,-5.5653,-5.5122,-5.4665,-5.4242,-5.4146,-5.4103,-5.406,-5.3974,-5.3714,-5.3452,-5.3277,-5.3011,-5.2833,-5.2698,-5.2729,-5.2729,-5.2729,-5.2329,-5.2144,-5.1898,-5.2236,-5.2175,-5.199,-5.2637,-5.2606,-5.2236,-5.1467,-5.0605,-4.9897,-4.922,-4.9189,-4.9774,-4.9497,-4.962,-4.9755,-4.9508,-4.9625,-4.9719,-4.9468,-4.9515,-4.9653,-4.9892,-5.0129,-5.0129,-5.005,-5.005,-5.0207,-5.0395,-5.0628,-5.0781,-5.0896,-5.1124,-5.1199,-5.1462,-5.1684,-5.1868,-5.1904,-5.2013,-5.2266,-5.2373,-5.2373,-5.2409,-5.248,-5.2445,-5.2376,-5.2376,-5.221,-5.2243,-5.2277,-5.2075,-5.1374,-5.1569,-5.1696,-5.1098,-5.0434,-4.9546,-4.8889,-4.8397,-4.7869,-4.7637,-4.7637,-4.7671,-5.9098,-5.9032,-6.0355,-6.106,-6.1235,-6.1086,-6.0933,-6.0886,-6.0805,-6.085,-6.081,-6.0524,-6.0565,-6.0932,-6.1072,-6.1053,-6.0203,-6.0311,-5.9543,-5.9126,-5.8673,-5.8667,-5.8582,-5.827,-5.7972,-5.8005,-5.7793,-5.7694,-5.7674,-5.7318,-5.7107,-5.6751,-5.6115,-5.5596,-5.5122,-5.4623,-5.42,-5.4103,-5.4103,-5.406,-5.3931,-5.3714,-5.3496,-5.3277,-5.3011,-5.2819,-5.2774,-5.2729,-5.2729,-5.2729,-5.2698,-5.2606,-5.2513,-5.2575,-5.2544,-5.2483,-5.2606,-5.2544,-5.2206,-5.1959,-5.1128,-5.0574,-4.9743,-4.9835,-5.0494,-5.029,-5.0179,-5.0252,-5.0283,-5.0069,-4.9864,-4.954,-4.9765,-4.9904,-4.9875,-5.0074,-5.0565,-5.0517,-5.0248,-5.0405,-5.0543,-5.0775,-5.0896,-5.1048,-5.1237,-5.1237,-5.1312,-5.1536,-5.1758,-5.1831,-5.1941,-5.2194,-5.2409,-5.2445,-5.2516,-5.2587,-5.2516,-5.2409,-5.2409,-5.2445,-5.2409,-5.2343,-5.2376,-5.2373,-5.2098,-5.1927,-5.1759,-5.1163,-5.0208,-4.9419,-4.8793,-4.8264,-4.7703,-4.7637,-4.7704,-5.8237,-5.8966,-5.9694,-6.0423,-6.1036,-6.1298,-6.1413,-6.135,-6.1069,-6.0655,-6.0092,-6.0067,-6.0082,-6.0244,-6.0284,-6.0298,-6.0278,-6.0819,-6.0265,-5.9512,-5.9039,-5.9086,-5.8873,-5.8436,-5.8469,-5.8422,-5.8111,-5.7714,-5.7694,-5.7126,-5.6566,-5.6217,-5.6034,-5.5636,-5.5182,-5.4762,-5.4358,-5.4252,-5.4103,-5.406,-5.3888,-5.3714,-5.3452,-5.3264,-5.3042,-5.2863,-5.2774,-5.2729,-5.2729,-5.2729,-5.2698,-5.2329,-5.2236,-5.239,-5.2175,-5.2144,-5.2483,-5.2329,-5.2113,-5.1929,-5.1867,-5.1498,-5.1097,-5.0882,-5.0864,-5.1043,-5.0931,-5.0874,-5.0898,-5.0279,-4.9821,-5.0078,-5.0326,-5.0196,-5.0033,-5.0469,-5.111,-5.1095,-5.0747,-5.0721,-5.0833,-5.096,-5.1048,-5.1129,-5.1442,-5.1237,-5.1312,-5.1462,-5.1684,-5.1794,-5.1941,-5.2158,-5.2338,-5.248,-5.2518,-5.2624,-5.2659,-5.2622,-5.2518,-5.2518,-5.248,-5.2409,-5.2409,-5.2338,-5.2194,-5.2056,-5.1888,-5.1496,-5.0841,-5.0081,-4.922,-4.8363,-4.7735,-4.7604,-4.7605,-5.8237,-5.8966,-5.9694,-6.0125,-6.0291,-6.0447,-6.0712,-6.1103,-6.0589,-6.039,-6.0721,-5.9661,-5.9569,-6.0008,-5.951,-5.9392,-5.9259,-5.9232,-5.9491,-5.9285,-5.9186,-5.9669,-5.9661,-5.9264,-5.9231,-5.8918,-5.8474,-5.7793,-5.799,-5.7255,-5.6366,-5.6017,-5.6141,-5.5933,-5.5547,-5.5261,-5.4783,-5.4369,-5.4146,-5.406,-5.3888,-5.3671,-5.3409,-5.3175,-5.2953,-5.2819,-5.2729,-5.2729,-5.2729,-5.2729,-5.2729,-5.2513,-5.2544,-5.2606,-5.2544,-5.2513,-5.2637,-5.2606,-5.2452,-5.2421,-5.2359,-5.2329,-5.2113,-5.2175,-5.2021,-5.177,-5.1654,-5.1642,-5.1522,-5.1058,-5.0528,-5.0567,-5.0586,-5.0416,-5.0222,-5.0445,-5.1032,-5.112,-5.0834,-5.1165,-5.1276,-5.1506,-5.1523,-5.1572,-5.1777,-5.1404,-5.1275,-5.1457,-5.1573,-5.1684,-5.1937,-5.2122,-5.2305,-5.2483,-5.2553,-5.2659,-5.2729,-5.2799,-5.2729,-5.2624,-5.2518,-5.248,-5.2445,-5.2338,-5.223,-5.2158,-5.2086,-5.1595,-5.1135,-5.0298,-4.9438,-4.8555,-4.7834,-4.7735,-4.7604,-5.8038,-5.8535,-5.9264,-5.9562,-5.9562,-5.9562,-5.986,-6.0191,-6.0357,-6.049,-6.0125,-5.9297,-5.9164,-5.9363,-5.8833,-5.8509,-5.8475,-5.8641,-5.8906,-5.9098,-5.9051,-5.9886,-6.0117,-5.9911,-5.9572,-5.9267,-5.8756,-5.7943,-5.7928,-5.7134,-5.6173,-5.5775,-5.6195,-5.6002,-5.5601,-5.5346,-5.5091,-5.4539,-5.4189,-5.406,-5.3844,-5.3596,-5.3321,-5.31,-5.2833,-5.2729,-5.2729,-5.2729,-5.2729,-5.2729,-5.2729,-5.2698,-5.2698,-5.2698,-5.2729,-5.2667,-5.2698,-5.2698,-5.2637,-5.2667,-5.2698,-5.2729,-5.2698,-5.2483,-5.2404,-5.2154,-5.2299,-5.2412,-5.2262,-5.1974,-5.1455,-5.0985,-5.0775,-5.0533,-5.0452,-5.0367,-5.0612,-5.089,-5.1182,-5.1577,-5.1875,-5.2177,-5.2265,-5.2275,-5.2215,-5.2048,-5.1772,-5.1534,-5.155,-5.1499,-5.1758,-5.205,-5.2269,-5.2485,-5.2589,-5.2694,-5.2902,-5.3006,-5.2938,-5.2834,-5.2694,-5.2587,-5.2516,-5.2409,-5.2302,-5.223,-5.2158,-5.1891,-5.1394,-5.0624,-5.0093,-4.9542,-4.8689,-4.7965,-4.7801,-5.774,-5.7873,-5.8535,-5.88,-5.88,-5.88,-5.88,-5.8899,-6.0125,-6.0191,-5.9131,-5.8833,-5.8767,-5.8661,-5.8124,-5.786,-5.7952,-5.8144,-5.8481,-5.8859,-5.8764,-5.9432,-6.0002,-6.0051,-5.9721,-5.9408,-5.8905,-5.8067,-5.7167,-5.6531,-5.6035,-5.5507,-5.6242,-5.6153,-5.5431,-5.5559,-5.5207,-5.4514,-5.4186,-5.3974,-5.3758,-5.354,-5.3321,-5.3131,-5.2908,-5.2729,-5.2729,-5.2729,-5.2729,-5.2729,-5.2729,-5.2729,-5.2729,-5.2729,-5.2729,-5.2729,-5.2729,-5.2729,-5.2729,-5.2729,-5.2653,-5.2653,-5.2653,-5.2315,-5.2175,-5.2449,-5.2657,-5.2623,-5.241,-5.248,-5.2115,-5.1483,-5.1155,-5.0879,-5.0723,-5.0803,-5.1097,-5.1487,-5.1987,-5.2352,-5.2721,-5.2991,-5.3144,-5.3155,-5.3208,-5.2969,-5.2725,-5.2275,-5.2037,-5.1922,-5.1839,-5.2134,-5.2349,-5.2605,-5.2655,-5.2829,-5.3142,-5.3211,-5.3211,-5.3041,-5.2902,-5.2727,-5.2551,-5.2445,-5.2338,-5.2338,-5.2233,-5.1963,-5.1726,-5.1364,-5.09,-5.0568,-4.9776,-4.8754,-4.8195,-5.7276,-5.7806,-5.7972,-5.8038,-5.8071,-5.8038,-5.774,-5.7376,-5.88,-5.9231,-5.8833,-5.8336,-5.8025,-5.7873,-5.7674,-5.7397,-5.7336,-5.7475,-5.8009,-5.8386,-5.8477,-5.8756,-5.9521,-5.9663,-5.9655,-5.9441,-5.8865,-5.7945,-5.7013,-5.6401,-5.6001,-5.5595,-5.6247,-5.6284,-5.5378,-5.5613,-5.5216,-5.4391,-5.4065,-5.3833,-5.3714,-5.3365,-5.3131,-5.3042,-5.2877,-5.2729,-5.2729,-5.2729,-5.2729,-5.2729,-5.2729,-5.2729,-5.2729,-5.2729,-5.2729,-5.2729,-5.2729,-5.2729,-5.2729,-5.2684,-5.2653,-5.2563,-5.2471,-5.2058,-5.201,-5.2513,-5.2675,-5.2548,-5.2602,-5.2807,-5.2712,-5.2109,-5.1525,-5.1256,-5.1089,-5.1407,-5.1685,-5.2221,-5.2828,-5.3233,-5.3604,-5.383,-5.4022,-5.4038,-5.4058,-5.403,-5.3889,-5.3606,-5.3351,-5.3155,-5.2308,-5.2469,-5.2548,-5.2741,-5.284,-5.3198,-5.3577,-5.3718,-5.3718,-5.3481,-5.3142,-5.2931,-5.2748,-5.2511,-5.2373,-5.2373,-5.2302,-5.2158,-5.1924,-5.1732,-5.1498,-5.1133,-5.073,-4.9871,-4.9148,-5.6912,-5.7276,-5.7309,-5.7508,-5.7773,-5.7806,-5.7541,-5.7376,-5.8071,-5.8204,-5.7972,-5.7806,-5.7688,-5.7397,-5.7159,-5.6941,-5.6708,-5.6643,-5.7182,-5.7723,-5.8018,-5.8264,-5.8683,-5.9094,-5.9078,-5.893,-5.8207,-5.7348,-5.6695,-5.6033,-5.5569,-5.5431,-5.6134,-5.6178,-5.5389,-5.5239,-5.5,-5.4172,-5.3784,-5.3659,-5.3584,-5.3277,-5.3144,-5.31,-5.2922,-5.2743,-5.2729,-5.2729,-5.2729,-5.2729,-5.2729,-5.2729,-5.2729,-5.2729,-5.2729,-5.2729,-5.2729,-5.2729,-5.2729,-5.2653,-5.2608,-5.2563,-5.2563,-5.2301,-5.1379,-5.1757,-5.2215,-5.2213,-5.2866,-5.3138,-5.305,-5.2552,-5.2191,-5.1932,-5.2117,-5.2404,-5.2861,-5.3415,-5.4002,-5.459,-5.494,-5.5253,-5.5408,-5.5562,-5.5445,-5.5024,-5.4882,-5.4425,-5.4273,-5.4437,-5.3586,-5.3079,-5.3405,-5.3494,-5.3695,-5.3959,-5.4282,-5.4288,-5.4259,-5.3784,-5.3342,-5.3161,-5.2945,-5.2674,-5.2473,-5.2373,-5.2299,-5.2227,-5.223,-5.2137,-5.1867,-5.1562,-5.1191,-5.0889,-5.0434,-5.6713,-5.668,-5.6713,-5.7044,-5.7574,-5.7641,-5.7608,-5.7608,-5.7641,-5.7309,-5.6978,-5.7541,-5.7622,-5.7133,-5.6823,-5.6467,-5.6275,-5.6417,-5.6751,-5.702,-5.7029,-5.7527,-5.8011,-5.8339,-5.8511,-5.8339,-5.7707,-5.7053,-5.6424,-5.5912,-5.5624,-5.5339,-5.5323,-5.5368,-5.4911,-5.4804,-5.4703,-5.3965,-5.3584,-5.3496,-5.3365,-5.3219,-5.3233,-5.3144,-5.3011,-5.2774,-5.2729,-5.2729,-5.2729,-5.2729,-5.2729,-5.2729,-5.2729,-5.2729,-5.2729,-5.2729,-5.2729,-5.2729,-5.2729,-5.2729,-5.2653,-5.2653,-5.2653,-5.2267,-5.13,-5.1387,-5.1845,-5.2162,-5.2828,-5.3196,-5.3112,-5.3133,-5.2803,-5.2704,-5.2997,-5.3286,-5.3825,-5.4365,-5.5012,-5.5628,-5.5908,-5.6231,-5.6426,-5.6614,-5.6502,-5.6079,-5.5705,-5.5137,-5.4853,-5.5264,-5.5127,-5.4749,-5.4754,-5.4812,-5.4452,-5.4678,-5.4907,-5.4856,-5.4727,-5.4119,-5.3711,-5.3799,-5.3518,-5.2807,-5.2638,-5.2605,-5.244,-5.2338,-5.2373,-5.2338,-5.217,-5.1897,-5.1717,-5.1448,-5.1523,-5.668,-5.668,-5.668,-5.6779,-5.6945,-5.6912,-5.6912,-5.6912,-5.6945,-5.6812,-5.6879,-5.7303,-5.7344,-5.6395,-5.6887,-5.6784,-5.649,-5.6384,-5.6507,-5.6776,-5.6711,-5.7037,-5.7527,-5.806,-5.8257,-5.8043,-5.7691,-5.7347,-5.6491,-5.6204,-5.5877,-5.5343,-5.5547,-5.5378,-5.4814,-5.4624,-5.4281,-5.3758,-5.3702,-5.3627,-5.3452,-5.3352,-5.31,-5.3011,-5.2966,-5.2788,-5.2729,-5.2729,-5.2729,-5.2729,-5.2729,-5.2729,-5.2729,-5.2729,-5.2729,-5.2729,-5.2729,-5.2729,-5.2729,-5.2729,-5.2653,-5.2518,-5.2502,-5.2301,-5.1778,-5.1884,-5.2065,-5.1801,-5.2374,-5.3028,-5.309,-5.3386,-5.3267,-5.3391,-5.3606,-5.389,-5.4317,-5.4786,-5.5288,-5.5653,-5.5894,-5.6179,-5.6492,-5.6757,-5.7105,-5.6846,-5.6925,-5.6429,-5.6136,-5.6374,-5.6469,-5.6188,-5.5946,-5.516,-5.442,-5.5147,-5.5447,-5.5375,-5.5293,-5.4923,-5.4753,-5.4781,-5.4364,-5.3346,-5.3006,-5.297,-5.2771,-5.2373,-5.2338,-5.2338,-5.2373,-5.2269,-5.205,-5.1875,-5.178]},{"header":{"parameterUnit":"m.s-1","parameterCategory":1,"la1":31.0,"la2":29.5877,"lo1":-88.7671,"lo2":-86.6584,"dy":0.0162,"dx":0.0185,"nx":115,"ny":88,"refTime":"2024-03-14T12:00:00:Z","depth":0,"parameterNumber":3,"parameterNumberName":"V-component_of_WINDS"},"data":[0.0,0.0,0.0,0.0,0.0,0.0,0.0,0.0,0.0,0.0,0.0,0.0,0.0,0.0,0.0,0.0,0.0,0.0,0.0,0.0,0.0,0.0,0.0,0.0,0.0,0.0,0.0,0.0,0.0,0.0,0.0,0.0,0.0,0.0,0.0,0.0,0.0,0.0,0.0,0.0,0.0,0.0,0.0,0.0,0.0,0.0,0.0,0.0,0.0,0.0,0.0,0.0,0.0,0.0,0.0,0.0,0.0,0.0,0.0,0.0,0.0,0.0,0.0,0.0,0.0,0.0,0.0,0.0,0.0,0.0,0.0,0.0,0.0,0.0,0.0,0.0,0.0,0.0,0.0,0.0,0.0,0.0,0.0,0.0,0.0,0.0,0.0,0.0,0.0,0.0,0.0,0.0,0.0,0.0,0.0,0.0,0.0,0.0,0.0,0.0,0.0,0.0,0.0,0.0,0.0,0.0,0.0,0.0,0.0,0.0,0.0,0.0,0.0,0.0,0.0,0.0,0.0,0.0,0.0,0.0,0.0,0.0,0.0,0.0,0.0,0.0,0.0,0.0,0.0,0.0,0.0,0.0,0.0,0.0,0.0,0.0,0.0,0.0,0.0,0.0,0.0,0.0,0.0,0.0,0.0,0.0,0.0,0.0,0.0,0.0,0.0,0.0,0.0,0.0,0.0,0.0,0.0,0.0,0.0,0.0,0.0,0.0,0.0,0.0,0.0,0.0,0.0,0.0,0.0,0.0,0.0,0.0,0.0,0.0,0.0,0.0,0.0,0.0,0.0,0.0,0.0,0.0,0.0,0.0,0.0,0.0,0.0,0.0,0.0,0.0,0.0,0.0,0.0,0.0,0.0,0.0,0.0,0.0,0.0,0.0,0.0,0.0,0.0,0.0,0.0,0.0,0.0,0.0,0.0,0.0,0.0,0.0,0.0,0.0,0.0,0.0,0.0,0.0,0.0,0.0,0.0,0.0,0.0,0.0,0.0,0.0,0.0,0.0,0.0,0.0,0.0,0.0,0.0,0.0,0.0,0.0,0.0,0.0,0.0,0.0,0.0,0.0,0.0,0.0,0.0,0.0,0.0,0.0,0.0,0.0,0.0,0.0,0.0,0.0,0.0,0.0,0.0,0.0,0.0,0.0,0.0,0.0,0.0,0.0,0.0,0.0,0.0,0.0,0.0,0.0,0.0,0.0,0.0,0.0,0.0,0.0,0.0,0.0,0.0,0.0,0.0,0.0,0.0,0.0,0.0,0.0,0.0,0.0,0.0,0.0,0.0,0.0,0.0,0.0,0.0,0.0,0.0,0.0,0.0,0.0,0.0,0.0,0.0,0.0,0.0,0.0,0.0,0.0,0.0,0.0,0.0,0.0,0.0,0.0,0.0,0.0,0.0,0.0,0.0,0.0,0.0,0.0,0.0,0.0,0.0,0.0,0.0,0.0,0.0,0.0,0.0,0.0,0.0,0.0,0.0,0.0,0.0,0.0,0.0,0.0,0.0,0.0,0.0,0.0,0.0,0.0,0.0,0.0,0.0,0.0,0.0,0.0,0.0,0.0,0.0,0.0,0.0,0.0,0.0,0.0,0.0,0.0,0.0,0.0,0.0,0.0,0.0,0.0,0.0,0.0,0.0,0.0,0.0,0.0,0.0,0.0,0.0,0.0,0.0,0.0,0.0,0.0,0.0,0.0,0.0,0.0,0.0,0.0,0.0,0.0,0.0,0.0,0.0,0.0,0.0,0.0,0.0,0.0,0.0,0.0,0.0,0.0,0.0,0.0,0.0,0.0,0.0,0.0,0.0,0.0,0.0,0.0,0.0,0.0,0.0,0.0,0.0,0.0,0.0,0.0,0.0,0.0,0.0,0.0,0.0,0.0,0.0,0.0,0.0,0.0,0.0,0.0,0.0,0.0,0.0,0.0,0.0,0.0,0.0,0.0,0.0,0.0,0.0,0.0,0.0,0.0,0.0,0.0,0.0,0.0,0.0,0.0,0.0,0.0,0.0,0.0,0.0,0.0,0.0,0.0,0.0,0.0,0.0,0.0,0.0,0.0,0.0,0.0,0.0,0.0,0.0,0.0,0.0,0.0,0.0,0.0,0.0,0.0,0.0,0.0,0.0,0.0,0.0,0.0,0.0,0.0,0.0,0.0,0.0,0.0,0.0,0.0,0.0,0.0,0.0,0.0,0.0,0.0,0.0,0.0,0.0,0.0,0.0,0.0,0.0,0.0,0.0,0.0,0.0,0.0,0.0,0.0,0.0,0.0,0.0,0.0,0.0,0.0,0.0,0.0,0.0,0.0,0.0,0.0,0.0,0.0,0.0,0.0,0.0,0.0,0.0,0.0,0.0,0.0,0.0,0.0,0.0,0.0,0.0,0.0,0.0,0.0,0.0,0.0,0.0,0.0,0.0,0.0,0.0,0.0,0.0,0.0,0.0,0.0,0.0,0.0,0.0,0.0,0.0,0.0,0.0,0.0,0.0,0.0,0.0,0.0,0.0,0.0,0.0,0.0,0.0,0.0,0.0,0.0,0.0,0.0,0.0,0.0,0.0,0.0,0.0,0.0,0.0,0.0,0.0,0.0,0.0,0.0,0.0,0.0,0.0,0.0,0.0,0.0,0.0,0.0,0.0,0.0,0.0,0.0,0.0,0.0,0.0,0.0,0.0,0.0,0.0,0.0,0.0,0.0,0.0,0.0,0.0,0.0,0.0,0.0,0.0,0.0,0.0,0.0,0.0,0.0,0.0,0.0,0.0,0.0,0.0,0.0,0.0,0.0,0.0,0.0,0.0,0.0,0.0,0.0,0.0,0.0,0.0,0.0,0.0,0.0,0.0,0.0,0.0,0.0,0.0,0.0,0.0,0.0,0.0,0.0,0.0,0.0,0.0,0.0,0.0,0.0,0.0,0.0,0.0,0.0,0.0,0.0,0.0,0.0,0.0,0.0,0.0,0.0,0.0,0.0,0.0,0.0,0.0,0.0,0.0,0.0,0.0,0.0,0.0,0.0,0.0,0.0,0.0,0.0,0.0,0.0,0.0,0.0,0.0,0.0,0.0,0.0,0.0,0.0,0.0,0.0,0.0,0.0,0.0,0.0,0.0,0.0,0.0,0.0,0.0,0.0,0.0,0.0,0.0,0.0,0.0,0.0,0.0,0.0,0.0,0.0,0.0,0.0,0.0,0.0,0.0,0.0,0.0,0.0,0.0,0.0,0.0,0.0,0.0,0.0,0.0,0.0,0.0,0.0,0.0,0.0,0.0,0.0,0.0,0.0,0.0,0.0,0.0,0.0,0.0,0.0,0.0,0.0,0.0,0.0,0.0,0.0,0.0,0.0,0.0,0.0,0.0,0.0,0.0,0.0,0.0,0.0,0.0,0.0,0.0,0.0,0.0,0.0,0.0,0.0,0.0,0.0,0.0,0.0,0.0,0.0,0.0,0.0,0.0,0.0,0.0,0.0,0.0,0.0,0.0,0.0,0.0,0.0,0.0,0.0,0.0,0.0,0.0,0.0,0.0,0.0,0.0,0.0,0.0,0.0,0.0,0.0,0.0,0.0,0.0,0.0,0.0,0.0,0.0,0.0,0.0,0.0,0.0,0.0,0.0,0.0,0.0,0.0,0.0,0.0,0.0,0.0,0.0,0.0,0.0,0.0,0.0,0.0,0.0,0.0,0.0,0.0,0.0,0.0,0.0,0.0,0.0,0.0,0.0,0.0,0.0,0.0,0.0,0.0,0.0,0.0,0.0,0.0,0.0,0.0,0.0,0.0,0.0,0.0,0.0,0.0,0.0,0.0,0.0,0.0,0.0,0.0,0.0,0.0,0.0,0.0,0.0,0.0,0.0,0.0,0.0,0.0,0.0,0.0,0.0,0.0,0.0,0.0,0.0,0.0,0.0,0.0,0.0,0.0,0.0,0.0,0.0,0.0,0.0,0.0,0.0,0.0,0.0,0.0,0.0,0.0,0.0,0.0,0.0,0.0,0.0,0.0,0.0,0.0,0.0,0.0,0.0,0.0,0.0,0.0,0.0,0.0,0.0,0.0,0.0,0.0,0.0,0.0,0.0,0.0,0.0,0.0,0.0,0.0,0.0,0.0,0.0,0.0,0.0,0.0,0.0,0.0,0.0,0.0,0.0,0.0,0.0,0.0,0.0,0.0,0.0,0.0,0.0,0.0,0.0,0.0,0.0,0.0,0.0,0.0,0.0,0.0,0.0,0.0,0.0,0.0,0.0,0.0,0.0,0.0,0.0,0.0,0.0,0.0,1.3667,0.0,0.0,0.0,0.0,0.0,0.0,0.0,0.0,0.0,0.0,0.0,0.0,0.0,0.0,0.0,0.0,0.0,0.0,0.0,0.0,0.0,0.0,0.0,0.0,0.0,0.0,0.0,0.0,0.0,0.0,0.0,0.0,0.0,0.0,0.0,0.0,0.0,0.0,0.0,0.0,0.0,0.0,0.0,0.0,0.0,0.0,0.0,0.0,0.0,0.0,0.0,0.0,0.0,0.0,0.0,0.0,0.0,0.0,0.0,0.0,0.0,0.0,0.0,0.0,0.0,0.0,0.0,0.0,0.0,0.0,0.0,0.0,0.0,0.0,0.0,0.0,0.0,0.0,0.0,0.0,0.0,0.0,0.0,0.0,0.0,0.0,0.0,0.0,0.0,0.0,0.0,0.0,0.0,0.0,0.0,0.0,0.0,0.0,0.0,0.0,0.0,0.0,0.0,0.0,0.0,0.0,0.0,0.0,0.0,0.0,1.3092,1.3491,1.3998,1.4119,1.3841,0.0,0.0,0.0,0.0,0.0,0.0,0.0,0.0,0.0,0.0,0.0,0.0,0.0,0.0,0.0,0.0,0.0,0.0,0.0,0.0,0.0,0.0,0.0,0.0,0.0,0.0,0.0,0.0,0.0,0.0,0.0,0.0,0.0,0.0,0.0,0.0,0.0,0.0,0.0,0.0,0.0,0.0,0.0,0.0,0.0,0.0,0.0,0.0,0.0,0.0,0.0,0.0,0.0,0.0,0.0,0.0,0.0,0.0,0.0,0.0,0.0,0.0,0.0,0.0,0.0,0.0,0.0,0.0,0.0,0.0,0.0,0.0,0.0,0.0,0.0,0.0,0.0,0.0,0.0,0.0,0.0,0.0,0.0,0.0,0.0,0.0,0.0,0.0,0.0,0.0,0.0,0.0,0.0,0.0,0.0,0.0,0.0,0.0,0.0,0.0,0.0,0.0,0.0,0.0,0.0,0.0,0.0,0.0,0.0,0.0,0.0,0.0,1.4298,1.4458,1.4449,0.0,0.0,0.0,0.0,0.0,0.0,0.0,0.0,0.0,0.0,0.0,0.0,0.0,0.0,0.0,0.0,0.0,0.0,0.0,0.0,0.0,0.0,0.0,0.0,0.0,0.0,0.0,0.0,0.0,0.0,0.0,0.0,0.0,0.0,0.0,0.0,0.0,0.0,0.0,0.0,0.0,0.0,0.0,0.0,0.0,0.0,0.0,0.0,0.0,0.0,0.0,0.0,0.0,0.0,0.0,0.0,0.0,0.0,0.0,0.0,0.0,0.0,0.0,0.0,0.0,0.0,0.0,0.0,0.0,0.0,0.0,0.0,0.0,0.0,0.0,0.0,0.0,0.0,0.0,0.0,0.0,0.0,0.0,0.0,0.0,0.0,0.0,0.0,0.0,0.0,0.0,0.0,0.0,0.0,0.0,0.0,0.0,0.0,0.0,0.0,0.0,0.0,0.0,0.0,0.0,0.0,0.0,0.0,0.0,0.0,1.4238,1.5713,1.58,0.0,1.5749,0.0,0.0,0.0,0.0,0.0,0.0,0.0,0.0,0.0,0.0,0.0,0.0,0.0,0.0,0.0,0.0,0.0,0.0,0.0,0.0,0.0,0.0,0.0,0.0,0.0,0.0,0.0,0.0,0.0,0.0,0.0,0.0,0.0,0.0,0.0,0.0,0.0,0.0,0.0,0.0,0.0,0.0,0.0,0.0,0.0,0.0,0.0,0.0,0.0,0.0,0.0,0.0,0.0,0.0,0.0,0.0,0.0,0.0,0.0,0.0,0.0,0.0,0.0,0.0,0.0,0.0,0.0,0.0,0.0,0.0,0.0,0.0,0.0,0.0,0.0,0.0,0.0,0.0,0.0,0.0,0.0,0.0,0.0,0.0,0.0,0.0,0.0,0.0,0.0,0.0,0.0,0.0,0.0,0.0,0.0,0.0,0.0,0.0,0.0,0.0,0.0,0.0,0.0,0.0,0.0,0.0,0.0,0.0,0.0,0.0,1.4504,1.5802,1.5954,1.5759,0.0,0.0,0.0,0.0,0.0,0.0,0.0,0.0,0.0,0.0,0.0,0.0,0.0,0.0,0.0,0.0,0.0,0.0,0.0,0.0,0.0,0.0,0.0,0.0,0.0,0.0,0.0,0.0,0.0,0.0,0.0,0.0,0.0,0.0,0.0,0.0,0.0,0.0,0.0,0.0,0.0,0.0,0.0,0.0,0.0,0.0,0.0,0.0,0.0,0.0,0.0,0.0,0.0,0.0,0.0,0.0,0.0,0.0,0.0,0.0,0.0,0.0,0.0,0.0,0.0,0.0,0.0,0.0,0.0,0.0,0.0,0.0,0.0,0.0,0.0,0.0,0.0,0.0,0.0,0.0,0.0,0.0,0.0,0.0,0.0,0.0,0.0,0.0,0.0,0.0,0.0,0.0,0.0,0.0,0.0,0.0,0.0,0.0,0.0,0.0,0.0,0.0,0.0,0.0,0.0,0.0,0.0,0.0,0.0,0.0,1.4747,1.5102,1.6157,1.5924,1.5558,1.5129,0.0,0.0,0.0,0.0,0.0,0.0,0.0,0.0,0.0,0.0,0.0,0.0,0.0,0.0,0.0,0.0,0.0,0.0,0.0,0.0,0.0,0.0,0.0,0.0,0.0,0.0,0.0,0.0,0.0,0.0,0.0,0.0,0.0,0.0,0.0,0.0,0.0,0.0,0.0,0.0,0.0,0.0,0.0,0.0,0.0,0.0,0.0,0.0,0.0,0.0,0.0,0.0,0.0,0.0,0.0,0.0,0.0,0.0,0.0,0.0,0.0,0.0,0.0,0.0,0.0,0.0,0.0,0.0,0.0,0.0,0.0,0.0,0.0,0.0,0.0,0.0,0.0,0.0,0.0,0.0,0.0,0.0,0.0,0.0,0.0,0.0,0.0,0.0,0.0,0.0,0.0,0.0,0.0,0.0,0.0,0.0,0.0,0.0,0.0,0.0,0.0,0.0,0.0,0.0,0.0,0.0,0.0,0.0,1.7802,1.6418,1.6255,1.7508,1.6029,1.5532,0.0,0.0,0.0,0.0,0.0,0.0,0.0,0.0,0.0,0.0,0.0,0.0,0.0,0.0,0.0,0.0,0.0,0.0,0.0,0.0,0.0,0.0,0.0,0.0,0.0,0.0,0.0,0.0,0.0,0.0,0.0,0.0,0.0,0.0,0.0,0.0,0.0,0.0,0.0,0.0,0.0,0.0,0.0,0.0,0.0,0.0,0.0,0.0,0.0,0.0,0.0,0.0,0.0,0.0,0.0,0.0,0.0,0.0,0.0,0.0,0.0,0.0,0.0,0.0,0.0,0.0,0.0,0.0,0.0,0.0,0.0,0.0,0.0,0.0,0.0,0.0,0.0,0.0,0.0,0.0,0.0,0.0,0.0,0.0,0.0,0.0,0.0,0.0,0.0,0.0,0.0,0.0,0.0,0.0,0.0,0.0,0.0,0.0,0.0,0.0,0.0,0.0,0.0,0.0,0.0,0.0,0.0,0.0,0.0,1.5649,1.6154,1.666,1.7128,1.6648,1.6433,0.0,0.0,0.0,0.0,0.0,0.0,0.0,0.0,0.0,0.0,0.0,0.0,0.0,0.0,0.0,0.0,0.0,0.0,0.0,0.0,0.0,0.0,0.0,0.0,0.0,0.0,0.0,0.0,0.0,0.0,0.0,0.0,0.0,0.0,0.0,0.0,0.0,0.0,0.0,0.0,0.0,0.0,0.0,0.0,0.0,0.0,0.0,0.0,0.0,0.0,0.0,0.0,0.0,0.0,0.0,0.0,0.0,0.0,0.0,0.0,0.0,0.0,0.0,0.0,0.0,0.0,0.0,0.0,0.0,0.0,0.0,0.0,0.0,0.0,0.0,0.0,0.0,0.0,0.0,0.0,0.0,0.0,0.0,0.0,0.0,0.0,0.0,0.0,0.0,0.0,0.0,0.0,0.0,0.0,0.0,0.0,0.0,0.0,0.0,0.0,0.0,0.0,0.0,0.0,0.0,0.0,0.0,0.0,0.0,1.5388,0.0,1.7461,1.752,1.716,1.6767,0.0,0.0,0.0,0.0,0.0,0.0,0.0,0.0,0.0,0.0,0.0,0.0,0.0,0.0,0.0,0.0,0.0,0.0,0.0,0.0,0.0,0.0,0.0,0.0,0.0,0.0,0.0,0.0,0.0,0.0,0.0,0.0,0.0,0.0,0.0,0.0,0.0,0.0,0.0,0.0,0.0,0.0,0.0,0.0,0.0,0.0,0.0,0.0,0.0,0.0,0.0,0.0,0.0,0.0,0.0,0.0,0.0,0.0,0.0,0.0,0.0,0.0,0.0,0.0,0.0,0.0,0.0,0.0,0.0,0.0,0.0,0.0,0.0,0.0,0.0,0.0,0.0,0.0,0.0,0.0,0.0,0.0,0.0,0.0,0.0,0.0,0.0,0.0,0.0,0.0,0.0,0.0,0.0,0.0,0.0,0.0,0.0,0.0,0.0,0.0,0.0,0.0,0.0,0.0,0.0,0.0,0.0,0.0,1.6446,1.761,1.8414,1.8845,1.8899,1.7474,1.6459,0.0,0.0,0.0,0.0,0.0,0.0,0.0,0.0,0.0,0.0,0.0,0.0,0.0,0.0,0.0,0.0,0.0,0.0,0.0,0.0,0.0,0.0,0.0,0.0,0.0,0.0,0.0,0.0,0.0,0.0,0.0,0.0,0.0,0.0,0.0,0.0,0.0,0.0,0.0,0.0,0.0,0.0,0.0,0.0,0.0,0.0,0.0,0.0,0.0,0.0,0.0,0.0,0.0,0.0,0.0,0.0,0.0,0.0,0.0,0.0,0.0,0.0,0.0,0.0,0.0,0.0,0.0,0.0,0.0,0.0,0.0,0.0,0.0,0.0,0.0,0.0,0.0,0.0,0.0,0.0,0.0,0.0,0.0,0.0,0.0,0.0,0.0,0.0,0.0,0.0,0.0,0.0,0.0,0.0,0.0,0.0,0.0,0.0,0.0,0.0,0.0,0.0,0.0,0.0,0.0,0.0,0.0,0.0,0.0,1.7143,1.9079,2.0234,2.0409,1.866,1.7922,0.0,0.0,0.0,0.0,0.0,0.0,0.0,0.0,0.0,0.0,0.0,0.0,0.0,0.0,0.0,0.0,0.0,0.0,0.0,0.0,0.0,0.0,0.0,0.0,0.0,0.0,0.0,0.0,0.0,0.0,0.0,0.0,0.0,0.0,0.0,0.0,0.0,0.0,0.0,0.0,0.0,0.0,0.0,0.0,0.0,0.0,0.0,0.0,0.0,0.0,0.0,0.0,0.0,0.0,0.0,0.0,0.0,0.0,0.0,0.0,0.0,0.0,0.0,0.0,0.0,0.0,0.0,0.0,0.0,0.0,0.0,0.0,0.0,0.0,0.0,0.0,0.0,0.0,0.0,0.0,0.0,0.0,0.0,0.0,0.0,0.0,0.0,0.0,0.0,0.0,0.0,0.0,0.0,0.0,0.0,0.0,0.0,0.0,0.0,0.0,0.0,0.0,0.0,0.0,0.0,0.0,0.0,0.0,0.0,1.8775,2.0402,2.1461,2.168,1.9931,1.8911,1.8767,0.0,0.0,0.0,0.0,0.0,0.0,0.0,0.0,0.0,0.0,0.0,0.0,0.0,0.0,0.0,0.0,0.0,0.0,0.0,0.0,0.0,0.0,0.0,0.0,0.0,0.0,0.0,0.0,0.0,0.0,0.0,0.0,0.0,0.0,0.0,0.0,0.0,0.0,0.0,0.0,0.0,0.0,0.0,0.0,0.0,0.0,0.0,0.0,0.0,0.0,0.0,0.0,0.0,0.0,0.0,0.0,0.0,0.0,0.0,0.0,0.0,0.0,0.0,0.0,0.0,0.0,0.0,0.0,0.0,0.0,0.0,0.0,0.0,0.0,0.0,0.0,0.0,0.0,0.0,0.0,0.0,0.0,0.0,0.0,0.0,0.0,0.0,0.0,0.0,0.0,0.0,0.0,0.0,0.0,0.0,0.0,0.0,0.0,0.0,0.0,0.0,0.0,0.0,0.0,0.0,0.0,0.0,0.0,2.1909,2.2372,2.2664,2.2706,2.1213,1.9637,0.0,0.0,0.0,0.0,0.0,0.0,0.0,0.0,0.0,0.0,0.0,0.0,0.0,0.0,0.0,0.0,0.0,0.0,0.0,0.0,0.0,0.0,0.0,0.0,0.0,0.0,0.0,0.0,0.0,0.0,0.0,0.0,0.0,0.0,0.0,0.0,0.0,0.0,0.0,0.0,0.0,0.0,0.0,0.0,0.0,0.0,0.0,0.0,0.0,0.0,0.0,0.0,0.0,0.0,0.0,0.0,0.0,0.0,0.0,0.0,0.0,0.0,0.0,0.0,0.0,0.0,0.0,0.0,0.0,0.0,0.0,0.0,0.0,0.0,0.0,0.0,0.0,0.0,0.0,0.0,0.0,0.0,0.0,0.0,0.0,0.0,0.0,0.0,0.0,0.0,0.0,0.0,0.0,0.0,0.0,0.0,0.0,0.0,0.0,0.0,0.0,0.0,0.0,0.0,0.0,0.0,0.0,0.0,0.0,2.3289,2.4602,2.5194,2.4989,2.2918,2.1229,0.0,0.0,0.0,0.0,0.0,0.0,0.0,0.0,0.0,0.0,0.0,0.0,0.0,0.0,0.0,0.0,0.0,0.0,0.0,0.0,0.0,0.0,0.0,0.0,0.0,0.0,0.0,0.0,0.0,0.0,0.0,0.0,0.0,0.0,0.0,0.0,0.0,0.0,0.0,0.0,0.0,0.0,0.0,0.0,0.0,0.0,0.0,0.0,0.0,0.0,0.0,0.0,0.0,0.0,0.0,0.0,0.0,0.0,0.0,0.0,0.0,0.0,0.0,0.0,0.0,0.0,0.0,0.0,0.0,0.0,0.0,0.0,0.0,0.0,0.0,0.0,0.0,0.0,0.0,0.0,0.0,0.0,0.0,0.0,0.0,0.0,0.0,0.0,0.0,0.0,0.0,0.0,0.0,0.0,0.0,0.0,0.0,0.0,0.0,0.0,0.0,0.0,0.0,0.0,0.0,0.0,0.0,0.0,2.2853,2.4395,2.6214,2.7104,2.6982,2.5236,2.3176,0.0,0.0,0.0,0.0,0.0,0.0,0.0,0.0,0.0,0.0,0.0,0.0,0.0,0.0,0.0,0.0,0.0,0.0,0.0,0.0,0.0,0.0,0.0,0.0,0.0,0.0,0.0,0.0,0.0,0.0,0.0,0.0,0.0,0.0,0.0,0.0,0.0,0.0,0.0,0.0,0.0,0.0,0.0,0.0,0.0,0.0,0.0,0.0,0.0,0.0,0.0,0.0,0.0,0.0,0.0,0.0,0.0,0.0,0.0,0.0,0.0,0.0,0.0,0.0,0.0,0.0,0.0,0.0,0.0,0.0,0.0,0.0,0.0,0.0,0.0,0.0,0.0,0.0,0.0,0.0,0.0,0.0,0.0,0.0,0.0,0.0,0.0,0.0,0.0,0.0,0.0,0.0,0.0,0.0,0.0,0.0,0.0,0.0,0.0,0.0,0.0,0.0,0.0,0.0,0.0,0.0,0.0,0.0,2.3705,2.5331,2.7366,2.8432,2.8408,2.7522,2.5104,0.0,0.0,0.0,0.0,0.0,0.0,0.0,0.0,0.0,0.0,0.0,0.0,0.0,0.0,0.0,0.0,0.0,0.0,0.0,0.0,0.0,0.0,0.0,0.0,0.0,0.0,0.0,0.0,0.0,0.0,0.0,0.0,0.0,0.0,0.0,0.0,0.0,0.0,0.0,0.0,0.0,0.0,0.0,0.0,0.0,0.0,0.0,0.0,0.0,0.0,0.0,0.0,0.0,0.0,0.0,0.0,0.0,0.0,0.0,0.0,0.0,0.0,0.0,0.0,0.0,0.0,0.0,0.0,0.0,0.0,0.0,0.0,0.0,0.0,0.0,0.0,0.0,0.0,0.0,0.0,0.0,0.0,0.0,0.0,0.0,0.0,0.0,0.0,0.0,0.0,0.0,0.0,0.0,0.0,0.0,0.0,0.0,0.0,0.0,0.0,0.0,0.0,0.0,0.0,0.0,0.0,0.0,0.0,2.4116,2.6284,2.7675,2.8538,2.8685,2.7302,2.537,0.0,0.0,0.0,0.0,0.0,0.0,0.0,0.0,0.0,0.0,0.0,0.0,0.0,0.0,0.0,0.0,0.0,0.0,0.0,0.0,0.0,0.0,0.0,0.0,0.0,0.0,0.0,0.0,0.0,0.0,0.0,0.0,0.0,0.0,0.0,0.0,0.0,0.0,0.0,0.0,0.0,0.0,0.0,0.0,0.0,0.0,0.0,0.0,1.595,0.0,0.0,0.0,0.0,0.0,0.0,0.0,0.0,0.0,0.0,0.0,0.0,0.0,0.0,0.0,0.0,0.0,0.0,0.0,0.0,0.0,0.0,0.0,0.0,0.0,0.0,0.0,0.0,0.0,0.0,0.0,0.0,0.0,0.0,0.0,0.0,0.0,0.0,0.0,0.0,0.0,0.0,0.0,0.0,0.0,0.0,0.0,0.0,0.0,0.0,0.0,0.0,0.0,0.0,0.0,0.0,0.0,0.0,0.0,2.4975,2.6911,2.7904,2.8581,2.8866,2.7674,2.5887,0.0,0.0,0.0,0.0,0.0,0.0,0.0,0.0,0.0,0.0,0.0,0.0,0.0,0.0,0.0,0.0,0.0,0.0,0.0,0.0,0.0,0.0,0.0,0.0,0.0,0.0,0.0,0.0,0.0,0.0,0.0,0.0,0.0,0.0,0.0,0.0,0.0,0.0,0.0,0.0,0.0,0.0,0.0,0.0,0.0,0.0,0.0,0.0,0.0,0.0,0.0,0.0,0.0,0.0,0.0,0.0,0.0,0.0,0.0,0.0,0.0,0.0,0.0,0.0,0.0,0.0,0.0,0.0,0.0,0.0,0.0,0.0,0.0,0.0,0.0,0.0,0.0,0.0,0.0,0.0,0.0,0.0,0.0,0.0,0.0,0.0,0.0,0.0,0.0,0.0,0.0,0.0,0.0,0.0,0.0,0.0,0.0,0.0,0.0,0.0,0.0,0.0,0.0,0.0,0.0,0.0,0.0,2.4071,2.5786,2.7497,2.8132,2.8628,2.9024,2.8231,2.6528,2.3979,0.0,0.0,0.0,0.0,0.0,0.0,0.0,0.0,0.0,0.0,0.0,0.0,0.0,0.0,0.0,0.0,0.0,0.0,0.0,0.0,0.0,0.0,0.0,0.0,0.0,0.0,0.0,0.0,0.0,0.0,0.0,0.0,0.0,0.0,0.0,0.0,0.0,0.0,1.6811,1.8057,0.0,0.0,0.0,0.0,0.0,0.0,0.0,0.0,1.7329,0.0,0.0,0.0,0.0,0.0,0.0,0.0,0.0,0.0,0.0,0.0,0.0,0.0,0.0,0.0,0.0,0.0,0.0,0.0,0.0,0.0,0.0,0.0,0.0,0.0,0.0,0.0,0.0,0.0,0.0,0.0,0.0,0.0,0.0,0.0,0.0,0.0,0.0,0.0,0.0,0.0,0.0,0.0,0.0,0.0,0.0,0.0,0.0,0.0,0.0,0.0,0.0,0.0,0.0,0.0,0.0,2.3476,2.4336,2.5886,2.82,2.8538,2.8768,2.8839,2.8267,2.6872,2.4657,0.0,0.0,0.0,0.0,0.0,0.0,0.0,0.0,0.0,0.0,0.0,0.0,0.0,0.0,0.0,0.0,0.0,0.0,0.0,0.0,0.0,0.0,0.0,0.0,0.0,0.0,0.0,0.0,0.0,0.0,0.0,0.0,0.0,0.0,0.0,0.0,0.0,0.0,0.0,2.0105,2.0635,0.0,0.0,0.0,0.0,0.0,0.0,0.0,0.0,1.772,0.0,0.0,0.0,0.0,0.0,0.0,0.0,0.0,0.0,0.0,0.0,0.0,0.0,0.0,0.0,0.0,0.0,0.0,0.0,0.0,0.0,0.0,0.0,0.0,0.0,0.0,0.0,0.0,0.0,0.0,0.0,0.0,0.0,0.0,0.0,0.0,0.0,0.0,0.0,0.0,0.0,0.0,0.0,0.0,0.0,0.0,0.0,0.0,0.0,0.0,0.0,0.0,0.0,0.0,0.0,2.3968,2.559,2.7458,2.9449,2.9289,2.9296,2.954,2.8473,2.6906,0.0,0.0,0.0,0.0,0.0,0.0,0.0,0.0,0.0,0.0,0.0,0.0,0.0,0.0,0.0,0.0,0.0,0.0,0.0,0.0,0.0,0.0,0.0,0.0,0.0,0.0,0.0,0.0,0.0,0.0,0.0,0.0,0.0,0.0,0.0,0.0,0.0,0.0,0.0,0.0,2.107,2.191,2.2106,0.0,0.0,0.0,0.0,0.0,0.0,1.8945,1.8542,0.0,0.0,0.0,0.0,0.0,0.0,0.0,0.0,0.0,0.0,0.0,0.0,0.0,0.0,0.0,0.0,0.0,0.0,0.0,0.0,0.0,0.0,0.0,0.0,0.0,0.0,0.0,0.0,0.0,0.0,0.0,0.0,0.0,0.0,0.0,0.0,0.0,0.0,0.0,0.0,0.0,0.0,0.0,0.0,0.0,0.0,0.0,0.0,0.0,0.0,0.0,0.0,0.0,0.0,0.0,2.4215,2.6672,2.882,3.0489,2.9902,2.9797,3.0225,2.8834,2.7111,0.0,0.0,0.0,0.0,0.0,0.0,0.0,0.0,0.0,0.0,0.0,0.0,0.0,0.0,0.0,0.0,0.0,0.0,0.0,0.0,0.0,0.0,0.0,0.0,0.0,0.0,0.0,0.0,0.0,0.0,0.0,0.0,0.0,0.0,0.0,0.0,0.0,0.0,0.0,0.0,0.0,2.2902,2.3063,2.2472,0.0,0.0,0.0,0.0,1.996,2.0434,0.0,0.0,0.0,0.0,0.0,0.0,0.0,0.0,0.0,0.0,0.0,0.0,0.0,0.0,0.0,0.0,0.0,0.0,0.0,0.0,0.0,0.0,0.0,0.0,0.0,0.0,0.0,0.0,0.0,0.0,0.0,0.0,0.0,0.0,0.0,0.0,0.0,0.0,0.0,0.0,0.0,0.0,0.0,0.0,0.0,0.0,0.0,0.0,0.0,0.0,0.0,0.0,0.0,0.0,0.0,0.0,2.4225,2.655,2.8673,3.0444,3.0138,2.9989,3.027,2.9642,2.796,0.0,0.0,0.0,0.0,0.0,0.0,0.0,0.0,0.0,0.0,0.0,0.0,0.0,0.0,0.0,0.0,0.0,0.0,0.0,0.0,0.0,0.0,0.0,0.0,0.0,0.0,0.0,0.0,0.0,0.0,0.0,0.0,0.0,0.0,0.0,0.0,0.0,0.0,0.0,0.0,0.0,2.3647,2.2495,2.2363,2.2286,0.0,0.0,2.2407,2.3264,2.4308,0.0,0.0,0.0,0.0,0.0,0.0,0.0,0.0,0.0,0.0,0.0,0.0,0.0,0.0,0.0,0.0,0.0,0.0,0.0,0.0,0.0,0.0,0.0,0.0,0.0,0.0,0.0,0.0,0.0,0.0,0.0,0.0,0.0,0.0,0.0,0.0,0.0,0.0,0.0,0.0,0.0,0.0,0.0,0.0,0.0,0.0,0.0,0.0,0.0,0.0,0.0,0.0,0.0,0.0,0.0,2.3631,2.5307,2.7388,2.9455,3.1326,3.0548,3.0235,3.0692,2.9806,2.8054,0.0,0.0,0.0,0.0,0.0,0.0,0.0,0.0,0.0,0.0,0.0,0.0,0.0,0.0,0.0,0.0,0.0,0.0,0.0,0.0,0.0,0.0,0.0,0.0,0.0,0.0,0.0,0.0,0.0,0.0,0.0,0.0,0.0,0.0,0.0,0.0,0.0,0.0,0.0,0.0,0.0,0.0,2.4628,2.4774,0.0,0.0,0.0,2.4737,2.4296,0.0,0.0,0.0,0.0,0.0,0.0,0.0,0.0,0.0,0.0,0.0,0.0,0.0,0.0,0.0,0.0,0.0,0.0,0.0,0.0,0.0,0.0,0.0,0.0,0.0,0.0,0.0,0.0,0.0,0.0,0.0,0.0,0.0,0.0,0.0,0.0,0.0,0.0,0.0,0.0,0.0,0.0,0.0,0.0,0.0,0.0,0.0,0.0,0.0,0.0,0.0,0.0,0.0,0.0,0.0,0.0,0.0,2.6017,2.821,3.0326,3.2211,3.1082,3.0697,3.1157,3.0057,0.0,0.0,0.0,0.0,0.0,0.0,0.0,0.0,0.0,0.0,0.0,0.0,0.0,0.0,0.0,0.0,0.0,0.0,0.0,0.0,0.0,0.0,0.0,0.0,0.0,0.0,0.0,1.6253,0.0,0.0,0.0,0.0,0.0,0.0,0.0,0.0,0.0,0.0,0.0,0.0,0.0,0.0,2.5632,2.597,2.6489,2.6766,0.0,0.0,2.654,2.5509,2.6342,2.6357,0.0,0.0,0.0,0.0,0.0,0.0,0.0,0.0,0.0,0.0,0.0,0.0,0.0,0.0,0.0,0.0,0.0,0.0,0.0,0.0,0.0,0.0,0.0,0.0,0.0,0.0,0.0,0.0,0.0,0.0,0.0,0.0,0.0,0.0,0.0,0.0,0.0,0.0,0.0,0.0,0.0,0.0,0.0,0.0,0.0,0.0,0.0,0.0,0.0,0.0,0.0,0.0,0.0,0.0,0.0,2.586,2.8671,3.1002,3.2755,3.1802,3.1376,3.1685,3.0698,2.8835,0.0,0.0,0.0,0.0,0.0,0.0,0.0,0.0,0.0,0.0,0.0,0.0,0.0,0.0,0.0,0.0,0.0,0.0,0.0,0.0,0.0,0.0,0.0,0.0,0.0,0.0,0.0,0.0,0.0,0.0,0.0,0.0,0.0,0.0,0.0,0.0,0.0,0.0,0.0,0.0,0.0,2.5519,2.5056,2.6117,2.7146,0.0,0.0,2.7383,2.7784,2.9214,2.9463,2.7094,0.0,0.0,0.0,0.0,0.0,0.0,0.0,0.0,0.0,0.0,0.0,0.0,0.0,0.0,0.0,0.0,0.0,0.0,0.0,0.0,0.0,0.0,0.0,0.0,0.0,0.0,0.0,0.0,0.0,0.0,0.0,0.0,0.0,0.0,0.0,0.0,0.0,0.0,0.0,0.0,0.0,0.0,0.0,0.0,0.0,0.0,0.0,0.0,0.0,0.0,0.0,0.0,0.0,2.463,2.6382,2.8787,3.066,3.1844,3.172,3.1361,3.0836,3.0744,2.9584,0.0,0.0,0.0,0.0,0.0,0.0,0.0,0.0,0.0,0.0,0.0,0.0,0.0,0.0,0.0,0.0,0.0,0.0,0.0,0.0,0.0,0.0,0.0,0.0,0.0,0.0,0.0,0.0,2.0251,2.0236,1.974,0.0,0.0,0.0,0.0,0.0,0.0,0.0,0.0,0.0,0.0,2.7051,2.7236,2.8089,0.0,0.0,2.9214,2.9277,2.9151,2.9679,2.9679,2.8436,2.8396,0.0,0.0,0.0,0.0,0.0,0.0,0.0,0.0,0.0,0.0,0.0,0.0,0.0,0.0,0.0,0.0,0.0,0.0,0.0,0.0,0.0,0.0,0.0,0.0,0.0,0.0,0.0,0.0,0.0,0.0,0.0,0.0,0.0,0.0,0.0,0.0,0.0,0.0,0.0,0.0,0.0,0.0,0.0,0.0,0.0,0.0,0.0,0.0,0.0,0.0,0.0,0.0,2.4775,2.6775,2.9059,3.0715,3.1754,3.1908,3.157,3.0721,3.0905,3.0095,0.0,0.0,0.0,0.0,0.0,0.0,0.0,0.0,0.0,0.0,0.0,0.0,0.0,0.0,0.0,0.0,0.0,0.0,0.0,0.0,0.0,0.0,0.0,0.0,0.0,0.0,0.0,0.0,2.151,2.1368,2.075,0.0,0.0,0.0,0.0,0.0,0.0,0.0,0.0,0.0,0.0,2.8238,2.8636,2.9463,3.0069,3.0108,3.064,3.0857,3.0301,3.0303,3.0088,2.9327,0.0,0.0,0.0,0.0,0.0,0.0,0.0,0.0,0.0,0.0,0.0,0.0,0.0,0.0,0.0,0.0,0.0,0.0,0.0,0.0,0.0,0.0,0.0,0.0,0.0,0.0,0.0,0.0,0.0,0.0,1.8071,0.0,0.0,0.0,0.0,0.0,0.0,0.0,0.0,0.0,0.0,0.0,0.0,0.0,0.0,0.0,0.0,0.0,0.0,0.0,0.0,0.0,0.0,2.4719,2.6775,2.9555,3.1581,3.2778,3.2594,3.2236,3.1779,3.1272,3.0325,2.8799,0.0,0.0,0.0,0.0,0.0,0.0,0.0,0.0,0.0,0.0,0.0,0.0,0.0,0.0,0.0,0.0,0.0,0.0,0.0,0.0,0.0,0.0,0.0,0.0,0.0,0.0,2.0735,2.0884,2.1426,0.0,0.0,0.0,0.0,0.0,0.0,0.0,0.0,0.0,0.0,2.8088,2.8699,2.8686,2.9763,3.0637,3.0835,3.1505,3.1843,3.124,3.1358,3.1138,0.0,0.0,0.0,0.0,0.0,0.0,0.0,0.0,0.0,0.0,0.0,0.0,0.0,0.0,0.0,0.0,0.0,0.0,0.0,0.0,0.0,0.0,0.0,0.0,0.0,0.0,0.0,2.0086,2.0037,0.0,0.0,0.0,0.0,0.0,0.0,0.0,0.0,0.0,0.0,0.0,3.0292,2.9713,0.0,0.0,0.0,0.0,0.0,0.0,0.0,0.0,0.0,0.0,0.0,0.0,2.5532,2.7257,2.9722,3.134,3.2072,3.2528,3.2479,3.1848,3.1915,3.1159,2.9324,0.0,0.0,0.0,0.0,0.0,0.0,0.0,0.0,0.0,0.0,0.0,0.0,0.0,0.0,0.0,0.0,0.0,0.0,0.0,0.0,0.0,0.0,0.0,0.0,0.0,2.3109,0.0,0.0,0.0,0.0,0.0,0.0,0.0,0.0,0.0,0.0,0.0,2.7311,2.79,2.8486,2.89,2.9159,3.0131,3.0694,0.0,0.0,0.0,0.0,0.0,0.0,0.0,0.0,0.0,0.0,0.0,0.0,0.0,0.0,2.992,2.7059,2.6317,2.6007,2.5602,0.0,0.0,0.0,0.0,0.0,0.0,0.0,0.0,0.0,0.0,0.0,0.0,0.0,0.0,0.0,0.0,2.2084,0.0,0.0,0.0,0.0,0.0,0.0,0.0,0.0,2.9063,3.0701,3.2283,3.1698,3.1804,0.0,3.1907,3.0444,0.0,0.0,0.0,0.0,0.0,0.0,0.0,0.0,2.6839,2.8096,3.0068,3.1396,3.1972,3.261,3.2632,3.2053,3.2241,3.1738,3.036,2.9371,2.8403,0.0,0.0,0.0,0.0,0.0,0.0,0.0,0.0,0.0,0.0,0.0,0.0,0.0,0.0,0.0,0.0,0.0,0.0,0.0,0.0,0.0,0.0,0.0,2.5021,0.0,0.0,0.0,0.0,0.0,0.0,0.0,0.0,0.0,2.7029,2.778,2.8536,2.9043,2.9161,2.9389,2.9877,0.0,0.0,0.0,0.0,0.0,0.0,0.0,3.2167,3.2294,3.2804,3.3225,3.3338,3.3902,3.3978,3.2776,0.0,0.0,2.9424,2.8715,2.8481,2.8239,2.836,2.8394,2.8174,2.8349,2.8395,0.0,0.0,0.0,0.0,0.0,0.0,0.0,0.0,2.5415,2.5714,0.0,2.447,0.0,0.0,0.0,0.0,0.0,2.5872,0.0,0.0,3.1568,3.2738,3.3093,3.3049,3.3209,3.352,3.3896,3.3608,3.259,2.9866,0.0,0.0,0.0,0.0,0.0,0.0,2.8446,2.93,3.0648,3.1695,3.2443,3.274,3.2742,3.2512,3.2293,3.2038,3.1803,3.0564,2.9801,2.9466,2.6311,0.0,0.0,0.0,0.0,0.0,0.0,0.0,0.0,0.0,0.0,0.0,0.0,0.0,0.0,0.0,0.0,0.0,0.0,0.0,0.0,2.5499,0.0,0.0,0.0,0.0,0.0,0.0,0.0,0.0,0.0,0.0,2.9341,2.9443,2.9745,3.0543,0.0,0.0,0.0,0.0,3.1964,3.23,3.3476,3.4136,3.3613,3.3711,3.3701,3.3381,0.0,0.0,3.3885,3.4203,3.3998,3.249,3.2391,3.2382,3.2146,3.1317,3.0841,3.077,3.0086,2.9645,2.9548,2.9139,2.8805,2.9918,0.0,0.0,0.0,0.0,2.6862,2.7274,2.7721,2.7968,2.8125,2.8197,2.7465,0.0,0.0,0.0,0.0,0.0,0.0,2.8508,3.0472,3.1265,3.2293,3.3551,3.3278,3.3407,3.3984,3.3453,3.316,3.3056,3.2028,3.0444,2.8342,0.0,0.0,0.0,0.0,2.9421,2.9925,3.0938,3.1929,3.2723,3.2418,3.2448,3.2764,3.2925,3.2771,3.2305,3.1898,3.1135,2.9933,2.8551,0.0,0.0,0.0,0.0,0.0,0.0,0.0,0.0,0.0,0.0,0.0,0.0,0.0,0.0,0.0,0.0,0.0,0.0,0.0,2.8122,2.824,2.7955,0.0,0.0,0.0,0.0,0.0,0.0,0.0,0.0,0.0,3.0327,3.0263,3.0548,0.0,0.0,3.1094,3.1564,3.2054,3.2275,3.1949,0.0,0.0,0.0,3.3172,3.3435,3.3444,3.3961,3.4549,3.51,3.5274,3.4989,3.3997,3.3511,3.3004,3.2246,3.1118,3.0263,3.0007,3.0051,3.0056,2.9803,2.9895,2.9854,3.2997,3.1116,2.9813,2.9174,2.9125,2.9397,2.9931,3.0558,3.0636,3.0795,3.0976,3.0275,2.9528,2.8845,2.841,0.0,0.0,0.0,3.0215,3.2044,3.22,3.2893,3.401,3.3792,3.3956,3.4493,3.394,3.3701,3.3787,3.3735,3.2782,3.1029,0.0,0.0,2.984,3.0639,3.1136,3.1302,3.1995,3.2663,3.3212,3.3027,3.2936,3.3034,3.3265,3.3165,3.2685,3.2555,3.2034,3.1043,3.0062,2.9164,0.0,0.0,0.0,0.0,0.0,0.0,0.0,0.0,0.0,0.0,0.0,2.5385,0.0,0.0,0.0,0.0,2.7655,2.851,2.9853,2.9655,0.0,0.0,0.0,0.0,0.0,0.0,0.0,3.0277,3.0487,3.0727,3.0898,3.0943,3.1158,3.1677,3.1531,3.1546,3.193,0.0,3.2488,3.2199,3.2962,3.3457,3.312,3.3231,3.3473,3.3527,3.4085,3.4592,3.4856,3.4936,3.4682,3.3991,3.3568,3.2988,3.1928,3.1022,3.0408,3.0151,3.0325,3.0414,3.0191,3.0326,3.019,3.5222,3.4902,3.2405,3.1426,3.1538,3.1693,3.2298,3.3158,3.3234,3.3474,3.3803,3.2782,3.2294,3.2212,3.0841,0.0,3.1651,3.185,3.2576,3.3857,3.3857,3.4076,3.4513,3.4534,3.4702,3.498,3.4958,3.4857,3.4629,3.4877,3.4705,3.4042,3.3479,3.3297,3.3498,3.3307,3.3146,3.3124,3.3369,3.3582,3.3891,3.4178,3.3952,3.3272,3.3463,3.3339,3.2959,3.2636,3.2486,3.2489,3.1066,3.0225,3.0223,0.0,0.0,0.0,0.0,0.0,0.0,0.0,0.0,0.0,0.0,0.0,0.0,0.0,0.0,0.0,3.0009,0.0,3.0903,3.0153,0.0,0.0,0.0,3.0018,3.0248,3.0248,3.0248,3.0248,0.0,0.0,0.0,0.0,3.1528,3.1528,3.1531,3.1671,3.2181,3.2466,3.2625,3.2775,3.3224,3.3573,3.3471,3.3581,3.3639,3.3707,3.3894,3.3995,3.3827,3.3742,3.3495,3.3152,3.2957,3.2623,3.1522,3.1291,3.1176,3.0981,3.0799,3.0634,3.0596,3.0292,2.9947,3.4466,3.4059,3.3452,3.3274,3.3418,3.3506,3.3746,3.4163,3.4185,3.4361,3.4703,3.419,3.408,3.4159,3.335,3.3301,3.3838,3.3679,3.3876,3.4338,3.436,3.4536,3.4869,3.4869,3.4924,3.4958,3.4582,3.4284,3.401,3.4065,3.4238,3.4527,3.4285,3.3956,3.352,3.3798,3.3744,3.3391,3.3475,3.3529,3.3604,3.4227,3.4204,3.3471,3.3332,3.3241,3.3128,3.2757,3.2564,3.2787,3.2404,3.2277,3.2497,3.0877,0.0,0.0,0.0,0.0,0.0,0.0,0.0,0.0,0.0,3.0676,3.1589,0.0,3.2781,0.0,3.2357,3.1946,3.1768,3.1516,0.0,0.0,3.1661,3.1487,3.1574,3.1574,3.1462,3.1332,3.1487,3.1598,3.1588,3.1743,3.1831,3.17,3.1926,3.2352,3.2871,3.2643,3.2463,3.2549,3.2649,3.2766,3.2957,3.3258,3.3513,3.3683,3.3768,3.3768,3.3725,3.37,3.3674,3.3478,3.3187,3.2746,3.2316,3.1823,3.1291,3.1065,3.0632,3.0241,3.0241,2.9908,2.9521,3.3723,3.3427,3.3252,3.3064,3.2873,3.3275,3.3614,3.3952,3.3952,3.4199,3.4646,3.4857,3.5165,3.5451,3.5161,3.4998,3.492,3.4779,3.4637,3.4513,3.4646,3.4758,3.4813,3.5035,3.5091,3.498,3.4692,3.456,3.4505,3.4395,3.4582,3.4997,3.5046,3.4747,3.4183,3.4427,3.4481,3.4378,3.4464,3.4517,3.4517,3.4786,3.4642,3.4066,3.3682,3.357,3.3727,3.3152,3.3032,3.3315,3.3206,3.3192,3.3446,3.2576,3.2603,0.0,0.0,0.0,0.0,0.0,0.0,0.0,0.0,0.0,0.0,0.0,3.3652,0.0,3.3567,0.0,3.3093,3.2955,3.2857,3.2769,3.2743,3.2568,3.2261,3.2236,3.2168,3.2078,3.195,3.1805,3.1717,3.1805,3.1849,3.1717,3.1937,3.2211,3.2568,3.2484,3.24,3.24,3.24,3.2444,3.255,3.2766,3.2982,3.3086,3.3129,3.3086,3.3129,3.3154,3.3129,3.3086,3.286,3.2558,3.2206,3.1805,3.129,3.0679,3.0278,3.0124,3.0313,2.9766,2.9234,3.3155,3.2928,3.2631,3.2099,3.1476,3.2189,3.2618,3.2917,3.2917,3.3317,3.4026,3.5024,3.5753,3.6223,3.6223,3.595,3.5423,3.5368,3.5035,3.4513,3.4813,3.4813,3.459,3.5091,3.5202,3.5002,3.5035,3.5146,3.5257,3.5091,3.5091,3.5368,3.5533,3.5423,3.5035,3.498,3.5146,3.5423,3.5676,3.584,3.5785,3.5588,3.5221,3.4773,3.428,3.414,3.4358,3.3777,3.3559,3.3948,3.3655,3.3577,3.3877,3.3807,3.4009,0.0,3.453,0.0,0.0,0.0,0.0,0.0,0.0,0.0,0.0,3.4259,3.4283,3.4118,3.4163,3.423,3.4388,3.4181,3.3892,3.3428,3.3546,3.3414,3.275,3.2611,3.2587,3.2515,3.2082,3.1789,3.1717,3.1717,3.1717,3.1717,3.1717,3.1829,3.1962,3.2138,3.2269,3.2288,3.2313,3.2288,3.2356,3.24,3.2444,3.2444,3.2487,3.24,3.2444,3.2444,3.2444,3.2444,3.2463,3.2247,3.1694,3.162,3.1259,3.0499,3.0155,3.0033,3.0237,2.9681,2.9209,3.3426,3.2826,3.2733,3.2435,3.1999,3.1465,3.1263,3.1338,3.1338,3.2083,3.3399,3.4987,3.5785,3.5895,3.5895,3.5676,3.5368,3.5146,3.4869,3.4534,3.459,3.4702,3.4924,3.5035,3.5035,3.5035,3.5202,3.5091,3.4702,3.4869,3.5035,3.5091,3.4869,3.4902,3.5312,0.0,0.0,0.0,3.595,3.6059,3.5808,3.5753,3.5598,3.5266,3.4795,0.0,3.4213,3.4019,3.3907,3.3945,3.4064,0.0,0.0,0.0,0.0,0.0,0.0,0.0,0.0,0.0,0.0,0.0,3.5515,3.5365,3.5012,3.5594,3.5575,3.4733,3.487,3.4835,3.4438,3.4388,3.4247,3.4078,3.3995,3.3766,3.3438,3.3278,3.2971,3.2563,3.2394,3.2154,3.1813,3.1717,3.1717,3.1717,3.1717,3.1717,3.1761,3.1805,3.1849,3.1849,3.1981,3.2069,3.2094,3.2269,3.2356,3.24,3.24,3.24,3.24,3.24,3.24,3.24,3.24,3.2376,3.2228,3.2054,3.1777,3.1631,3.0773,2.9908,2.9478,2.912,2.8879,3.2861,0.0,3.2509,3.2037,0.0,3.1365,3.1126,3.0842,3.1192,3.2192,3.3649,3.4681,3.529,3.5566,3.5233,3.4953,3.4746,3.4168,3.3999,3.4173,3.4195,3.4406,3.4758,3.5035,3.5091,3.5002,3.5146,3.5035,3.4758,3.4758,3.4758,3.4758,3.4758,3.4813,3.498,3.5091,3.5312,3.5588,3.6059,3.6223,3.6059,3.5895,3.584,3.5817,0.0,0.0,0.0,0.0,0.0,0.0,0.0,0.0,0.0,0.0,0.0,3.6303,3.611,3.6088,3.6377,3.64,3.6324,3.6218,3.6193,3.6068,3.5815,3.616,3.621,3.5652,3.5697,3.569,3.544,3.5415,3.5198,3.481,3.4752,3.4617,3.4068,3.3786,3.3549,3.3308,3.3044,3.2683,3.2154,3.2082,3.1961,3.1765,3.1717,3.1717,3.1717,3.1717,3.1717,3.1717,3.1761,3.1805,3.1717,3.1893,3.1981,3.1893,3.1981,3.2025,3.2069,3.2094,3.2025,3.2069,3.2069,3.2025,3.2001,3.1743,3.1366,3.11,3.0428,2.9624,2.8859,2.8657,2.8714,3.2383,3.2383,3.2305,3.1879,3.1207,3.1696,3.1669,3.1264,0.0,0.0,0.0,3.428,3.4813,3.5245,3.4733,3.4403,3.4283,3.3495,3.3406,3.3901,3.3977,3.4206,3.4513,3.5035,3.5146,3.4924,3.498,3.498,3.4924,3.4702,3.459,3.4534,3.4813,3.4758,3.459,3.5091,3.5533,3.573,3.6114,3.6254,3.6254,3.6004,3.6004,3.6277,3.5648,3.5571,3.62,3.5497,3.5191,3.5504,3.5455,3.5538,3.585,3.5987,3.6453,3.7215,3.7167,3.7121,3.7167,3.724,3.7038,3.6606,3.6455,3.6405,3.6405,3.6405,3.6405,3.6405,3.6405,3.6405,3.6405,3.6405,3.6135,3.5404,3.5493,3.528,3.4627,3.4317,3.4102,3.3982,3.3645,3.3236,3.2731,3.2635,3.2491,3.2126,3.1982,3.1789,3.1741,3.1717,3.1717,3.1717,3.1673,3.1584,3.1383,3.1451,3.1496,3.1362,3.1496,3.1629,3.1629,3.1649,3.1717,3.1761,3.1649,3.1629,3.1581,3.1273,3.075,3.0319,2.9981,2.9521,2.8685,2.8474,2.8562,3.3242,3.3223,3.2871,3.2998,3.3344,3.2813,3.2834,3.3141,3.2901,3.2585,3.2268,3.3831,3.4702,3.5035,3.4958,3.4891,3.4869,3.4461,3.4317,0.0,3.4427,3.4459,3.4534,3.459,3.4568,3.459,3.4869,3.4869,3.4646,3.4813,3.4813,3.4513,3.4534,3.4513,3.459,3.5091,3.5423,3.5478,3.6004,3.6254,3.6254,3.6277,3.6277,3.6277,3.6185,3.6022,3.5895,3.6008,3.5985,3.5804,3.5985,3.6372,3.6855,3.6561,3.6692,3.7421,3.7134,3.6943,3.717,3.7419,3.7418,3.7111,3.6681,3.6405,3.6405,3.6405,3.6405,3.6405,3.643,3.6405,3.6405,3.6405,3.6285,3.5904,3.5715,3.5475,3.5089,3.4824,3.4486,3.4078,3.3934,3.3741,3.3284,3.3188,3.314,3.2996,3.2563,3.2202,3.1862,3.1717,3.1717,3.1673,3.1496,3.1339,3.125,3.1139,3.1095,3.1074,3.1229,3.1362,3.1339,3.1516,3.1629,3.1673,3.1472,3.1407,3.1339,3.1205,3.0903,3.0738,3.0366,2.9805,2.9145,2.8787,2.8457,3.3228,3.3335,3.3223,3.3168,3.3296,3.3516,3.3458,3.3354,3.3722,3.3521,3.2972,3.377,3.4267,3.4513,3.4263,3.4393,3.4702,3.3817,3.3754,3.446,3.3967,3.3977,3.4435,3.4367,3.4311,3.4311,3.459,3.459,3.4311,3.459,3.4646,3.4513,3.4479,3.4479,3.4534,3.5091,3.5423,3.5423,3.6004,3.6254,3.6254,3.6254,3.6254,3.6254,3.6254,3.6223,3.6059,3.6223,3.6223,3.6059,3.6386,3.6634,3.685,3.6985,3.7292,3.777,3.7709,3.7648,3.7635,3.7592,3.727,3.6595,3.6737,3.6707,3.643,3.6405,3.6531,3.6807,3.6606,3.6405,3.6405,3.6405,3.6288,3.6028,3.5764,3.5476,3.5235,3.4969,3.4727,3.4462,3.4414,3.4222,3.3765,3.3693,3.3573,3.3332,3.2827,3.2394,3.213,3.1841,3.1629,3.1496,3.1273,3.1095,3.0982,3.096,3.0916,3.0826,3.096,3.1095,3.1139,3.1273,3.1318,3.1318,3.1229,3.1139,3.1139,3.0814,3.0608,3.0514,3.0007,2.9425,2.8869,2.8296,2.7877,3.3165,3.3418,3.3418,3.3285,3.326,3.4105,3.4085,3.372,3.4302,3.4351,3.3993,3.3817,3.3847,3.425,3.3956,3.4163,3.4603,3.359,3.3657,3.4481,3.3726,3.3759,3.4357,3.4199,3.4086,3.4164,3.4398,3.4398,3.4276,3.451,3.4622,3.4479,3.4479,3.4479,3.4513,3.5091,3.5423,3.5423,3.6004,3.6254,3.6332,3.6369,3.6438,3.6438,3.6438,3.6438,3.6438,3.6323,3.6254,3.6332,3.6495,3.6634,3.6688,3.7143,3.7542,3.7892,3.8104,3.8198,3.8072,3.7785,3.727,3.6552,3.6796,3.6916,3.6689,3.6436,3.6486,3.6885,3.6631,3.6405,3.6405,3.6405,3.631,3.6098,3.5812,3.5572,3.5356,3.4945,3.4655,3.4703,3.4655,3.4414,3.4126,3.4102,3.403,3.3549,3.3092,3.2803,3.2515,3.2061,3.1642,3.1416,3.1189,3.0984,3.0736,3.0736,3.0736,3.0532,3.0736,3.0871,3.0916,3.0939,3.1029,3.1029,3.096,3.0916,3.0847,3.0568,3.0313,3.0246,2.9834,2.917,2.8611,2.8091,2.7635,3.3355,3.3418,3.3355,3.3713,3.4218,3.4674,3.4923,3.5005,3.4655,3.4554,3.4526,3.3696,3.3841,3.4668,3.4696,3.5084,3.5764,3.5203,3.4962,3.5028,3.46,3.428,3.4142,3.4086,3.4086,3.4151,3.4531,3.4623,3.4388,3.4849,3.4928,3.4522,3.4479,3.4457,3.459,3.5091,3.5423,3.5423,3.6004,3.6254,3.6355,3.6736,3.6911,3.6911,3.6911,3.6911,3.6865,3.6507,3.6254,3.6332,3.6332,3.644,3.6657,3.6742,3.7036,3.7596,3.7702,3.7868,3.8247,3.7889,3.7678,3.7708,3.6973,3.685,3.7345,3.6574,3.6171,3.6436,3.6408,3.6405,3.6405,3.6405,3.6358,3.6263,3.5883,3.5668,3.5715,3.4845,3.4149,3.4411,3.4342,3.4054,3.415,3.439,3.4462,3.4006,3.3766,3.3382,3.2661,3.2101,3.1661,3.1547,3.129,3.1055,3.0919,3.0556,3.0421,3.0352,3.0442,3.0646,3.0691,3.0826,3.0984,3.0849,3.0781,3.0623,3.0578,3.0373,3.0214,3.0167,2.9984,2.9755,2.8973,2.8517,2.8376,3.3038,3.3374,3.3165,3.3228,3.3607,3.4298,3.4511,3.4431,3.4349,3.435,3.432,3.3682,3.3968,3.4874,3.5128,3.562,3.6326,3.5561,3.5364,3.5561,3.4715,3.4199,3.4086,3.3918,3.3749,3.3678,3.4368,3.4539,3.4116,3.4541,3.4709,3.4534,3.4479,3.459,3.4813,3.5035,3.5312,3.5643,3.5895,3.6251,3.6658,3.6865,3.6979,3.6979,3.6979,3.6979,3.6933,3.6553,3.6254,3.6254,3.6254,3.6332,3.6495,3.6603,3.6874,3.7304,3.7625,3.7801,3.7698,3.7927,3.7865,3.7358,3.7363,3.7366,3.7318,3.6677,3.6282,3.6402,3.6416,3.6405,3.6405,3.6405,3.6335,3.6193,3.5955,3.5812,3.5764,3.528,3.4943,3.4895,3.4751,3.4631,3.4535,3.4679,3.4727,3.4438,3.4222,3.367,3.2859,3.2293,3.1778,3.1406,3.1246,3.1297,3.1298,3.0997,3.0721,3.0629,3.0514,3.0352,3.0397,3.0465,3.051,3.0556,3.0442,3.0397,3.0352,3.0306,3.0216,3.017,2.9917,2.9642,2.9228,2.8907,2.8723,3.2912,3.3355,3.3102,3.3102,3.3228,3.4047,3.4304,3.4165,3.4391,3.4451,3.4405,3.4144,3.4484,3.5299,3.551,3.6059,3.6719,3.5998,3.5801,3.6042,3.5013,3.4418,3.4361,3.4111,3.3904,3.3853,3.4718,3.4956,3.4475,3.4515,3.4709,3.4709,3.4709,3.4843,3.5045,3.5013,3.5358,3.5893,3.5969,3.6349,3.7028,3.7323,3.7323,3.7242,3.7048,3.6979,3.6956,3.653,3.6254,3.6254,3.6254,3.6254,3.6309,3.6495,3.6766,3.712,3.7655,3.7829,3.7445,3.7992,3.7976,3.7273,3.7572,3.7678,3.7288,3.6676,3.6358,3.6358,3.6253,3.6168,3.6168,3.6216,3.6193,3.5908,3.586,3.5716,3.562,3.5426,3.5064,3.5016,3.4799,3.4872,3.4799,3.4775,3.4751,3.4703,3.4318,3.3839,3.3266,3.2696,3.2176,3.1779,3.1832,3.1646,3.1505,3.1181,3.0973,3.0744,3.0399,3.0216,3.0216,3.0216,3.0216,3.0375,3.0261,3.0216,3.0261,3.0216,3.0216,3.0147,2.994,2.9665,2.9458,2.9228,2.9251,3.3355,3.3355,3.3355,3.3544,3.3859,3.4235,3.4528,3.4716,3.4798,3.5046,3.5232,3.4943,3.5396,3.6213,3.5848,3.6295,3.7161,3.6784,3.6566,3.6566,3.5771,3.5226,3.5013,3.4933,3.4853,3.4811,3.5532,3.6124,3.6317,3.5627,3.519,3.5168,3.5146,3.5168,3.5238,3.5133,3.5445,3.6302,3.6488,3.6793,3.7292,3.8057,3.8183,3.777,3.7311,3.7048,3.7012,3.6553,3.6277,3.6277,3.6254,3.6254,3.6332,3.6332,3.6603,3.7066,3.7679,3.7974,3.7926,3.8003,3.7979,3.7882,3.7573,3.736,3.7545,3.6719,3.6283,3.6383,3.5989,3.5718,3.5668,3.586,3.5908,3.5668,3.5428,3.5428,3.5572,3.487,3.4269,3.4388,3.4365,3.4462,3.4775,3.4775,3.4775,3.4679,3.4342,3.3982,3.3743,3.3266,3.3006,3.3031,3.2887,3.232,3.1043,3.1136,3.095,3.0698,3.0629,3.0285,3.0239,3.0216,3.0216,3.0216,3.0216,3.0216,3.0216,3.0216,3.0216,3.0193,3.0193,2.9986,2.9734,2.9963,2.994,3.3038,3.3102,3.3292,3.3374,3.3292,3.3859,3.4298,3.4548,3.461,3.4922,3.5294,3.5046,3.5356,3.6095,3.6131,3.6617,3.733,3.6894,3.6697,3.6594,3.588,3.5429,3.5312,3.488,3.4703,3.4846,3.5487,3.614,3.6572,3.602,3.5692,3.5627,3.5364,3.5457,3.5826,3.5609,3.5924,3.6847,3.6871,3.72,3.7999,3.7873,3.7908,3.8298,3.8137,3.7862,3.754,3.7035,3.6622,3.6277,3.6254,3.6254,3.6332,3.6657,3.6904,3.7143,3.7679,3.7974,3.7974,3.7974,3.7974,3.795,3.7829,3.7738,3.7746,3.7191,3.6686,3.6374,3.6087,3.5673,3.5308,3.5476,3.5716,3.562,3.5524,3.5476,3.5548,3.5257,3.4991,3.4871,3.4679,3.4631,3.4679,3.4775,3.4775,3.4799,3.4607,3.4318,3.3863,3.341,3.3173,3.2769,3.2645,3.2358,3.1574,3.1757,3.18,3.1341,3.1042,3.0813,3.0698,3.0285,3.0216,3.017,3.017,3.0216,3.0216,3.0216,3.0216,3.0216,3.0216,3.0147,3.0009,3.0124,3.0101,3.3038,3.3102,3.3292,3.3292,3.3165,3.367,3.4047,3.4235,3.436,3.4735,3.5108,3.4984,3.5294,3.5849,3.6178,3.6585,3.7171,3.7008,3.6915,3.6894,3.627,3.5941,3.5881,3.5465,3.5286,3.5367,3.5793,3.6324,3.679,3.6435,3.6275,3.6173,3.5845,3.5961,3.6355,3.606,3.6232,3.692,3.7126,3.7537,3.8157,3.8066,3.8227,3.8676,3.8688,3.8252,3.7586,3.7058,3.6645,3.6323,3.6254,3.6254,3.6332,3.6766,3.7036,3.7143,3.7572,3.7945,3.7974,3.7974,3.7974,3.7974,3.7974,3.7974,3.8003,3.7493,3.6988,3.6509,3.608,3.5549,3.5089,3.5138,3.5332,3.5332,3.5332,3.5332,3.5332,3.5332,3.5211,3.5042,3.4896,3.4823,3.4775,3.4775,3.4775,3.4775,3.4775,3.4558,3.415,3.3886,3.3622,3.3004,3.3068,3.2853,3.2385,3.245,3.2239,3.1825,3.1041,3.0926,3.0857,3.0468,3.0148,3.0148,3.0125,3.017,3.0216,3.0216,3.0216,3.0216,3.0216,3.0193,3.0147,3.0193,3.0147,3.3437,3.3355,3.3418,3.3355,3.3418,3.3733,3.3922,3.3985,3.4235,3.4548,3.4859,3.4859,3.5232,3.5726,3.5932,3.63,3.6789,3.7089,3.7248,3.7248,3.6946,3.6803,3.6803,3.6639,3.6639,3.6639,3.6676,3.6899,3.7265,3.6894,3.6697,3.6697,3.661,3.6566,3.6697,3.6355,3.6333,3.6883,3.7384,3.7677,3.7722,3.8612,3.9089,3.9147,3.8757,3.8068,3.7048,3.6622,3.6369,3.6277,3.6254,3.6254,3.6332,3.6603,3.682,3.7066,3.7411,3.7702,3.7921,3.7921,3.7945,3.7998,3.7974,3.7974,3.7902,3.7541,3.7036,3.6459,3.5978,3.5449,3.4968,3.4823,3.4872,3.4823,3.4872,3.4872,3.4872,3.4823,3.4775,3.4775,3.4726,3.4775,3.4775,3.4726,3.4726,3.4726,3.4726,3.4726,3.4533,3.446,3.4532,3.4264,3.3728,3.3175,3.3102,3.3007,3.254,3.203,3.1107,3.0603,3.0786,3.0581,3.0102,2.9942,3.0057,3.008,3.0216,3.0216,3.0216,3.0216,3.0216,3.0216,3.0216,3.0216,3.0216,3.3691,3.3437,3.3418,3.3418,3.3418,3.3544,3.367,3.3859,3.4047,3.4235,3.4548,3.4797,3.5046,3.5294,3.5665,3.5972,3.6239,3.6606,3.695,3.7275,3.685,3.6789,3.7093,3.6789,3.6688,3.685,3.6599,3.682,3.727,3.7221,3.7156,3.7112,3.685,3.6894,3.7112,3.6956,3.717,3.7851,3.8015,3.8312,3.8726,3.8898,3.8912,3.878,3.8298,3.7701,3.7025,3.6874,3.6645,3.63,3.6254,3.6254,3.6332,3.6549,3.6742,3.682,3.7089,3.7251,3.7411,3.7625,3.7756,3.7809,3.7892,3.7974,3.7974,3.7829,3.7324,3.6579,3.6242,3.5833,3.5064,3.4775,3.4799,3.4775,3.4775,3.4775,3.4775,3.4628,3.4531,3.4531,3.4531,3.4531,3.4531,3.4531,3.4531,3.4531,3.4457,3.4359,3.4433,3.431,3.4014,3.3866,3.3545,3.3446,3.3281,3.3043,3.2692,3.2274,3.1513,3.0782,3.0874,3.0665,3.0187,2.9894,2.9965,3.0034,3.0148,3.017,3.017,3.0216,3.0216,3.0216,3.0216,3.0216,3.0216,3.3809,3.3437,3.3418,3.3418,3.3418,3.3418,3.3481,3.367,3.3733,3.3922,3.4235,3.4423,3.4673,3.4922,3.5356,3.5665,3.587,3.5993,3.6401,3.6972,3.6789,3.685,3.7214,3.695,3.685,3.7032,3.6911,3.7011,3.7374,3.7374,3.7374,3.7309,3.709,3.709,3.7391,3.7352,3.7546,3.7955,3.8209,3.8529,3.8807,3.8957,3.8971,3.8768,3.8344,3.7839,3.7356,3.715,3.6805,3.6369,3.6254,3.6254,3.6309,3.644,3.658,3.6712,3.6874,3.6982,3.7143,3.7411,3.7596,3.7649,3.7838,3.7974,3.7974,3.7974,3.7565,3.6867,3.6483,3.6122,3.5569,3.5159,3.5087,3.5063,3.4944,3.475,3.4677,3.4482,3.4408,3.4359,3.431,3.4286,3.431,3.431,3.431,3.4261,3.4162,3.4014,3.4089,3.3965,3.3767,3.3618,3.3519,3.3419,3.3319,3.3082,3.2845,3.2495,3.2029,3.1459,3.1235,3.0813,3.0284,3.0021,2.9982,2.994,3.0033,3.0057,3.0057,3.0148,3.017,3.0216,3.0216,3.0216,3.0216,3.3867,3.3476,3.3437,3.3418,3.3418,3.3418,3.3418,3.3418,3.3418,3.3607,3.3859,3.3985,3.4298,3.4735,3.4984,3.5294,3.5747,3.5603,3.5788,3.63,3.6545,3.6789,3.7032,3.7154,3.7253,3.7314,3.7314,3.7374,3.7495,3.7435,3.7374,3.7435,3.7413,3.7352,3.7352,3.7352,3.7374,3.7614,3.806,3.8334,3.8326,3.8879,3.9239,3.917,3.8757,3.8229,3.7632,3.715,3.6736,3.6323,3.6254,3.6254,3.6254,3.6332,3.644,3.6657,3.6712,3.682,3.7036,3.7304,3.7489,3.7489,3.7785,3.7974,3.7945,3.795,3.7733,3.7156,3.6747,3.6459,3.6242,3.593,3.5665,3.5545,3.5063,3.4676,3.4433,3.4335,3.4211,3.4113,3.4064,3.4064,3.4087,3.4087,3.4064,3.4014,3.3988,3.3767,3.3717,3.3668,3.3668,3.3519,3.3269,3.322,3.3119,3.2773,3.2537,3.2519,3.2194,3.1735,3.1285,3.0793,3.047,3.0233,2.9969,2.9909,2.9916,3.001,3.0011,3.0057,3.0125,3.017,3.0262,3.0285,3.0331,3.4297,3.3887,3.3555,3.3418,3.3418,3.3418,3.3418,3.3418,3.3418,3.3481,3.3607,3.3796,3.411,3.4548,3.4797,3.5108,3.5418,3.5418,3.5418,3.5665,3.5993,3.6585,3.7093,3.7093,3.7154,3.7335,3.7214,3.7275,3.7698,3.7495,3.7495,3.7758,3.7517,3.7374,3.7374,3.7435,3.7632,3.8022,3.8209,3.8633,3.8971,3.9157,3.9124,3.878,3.8665,3.8137,3.7311,3.6759,3.6438,3.63,3.6254,3.6254,3.6254,3.6332,3.6332,3.6386,3.6417,3.6417,3.6603,3.6982,3.7143,3.7036,3.7625,3.7868,3.7732,3.7868,3.7709,3.73,3.7036,3.6819,3.6483,3.629,3.605,3.5567,3.5011,3.4481,3.4211,3.4014,3.3866,3.384,3.384,3.384,3.384,3.384,3.3767,3.3717,3.3568,3.3319,3.3319,3.3292,3.3292,3.3069,3.2919,3.2919,3.2818,3.2493,3.237,3.2448,3.2191,3.1762,3.1268,3.0718,3.0568,3.0422,3.0042,2.9916,2.9954,3.0053,3.0056,2.9966,3.0217,3.0308,3.0422,3.0468,3.0491,3.4453,3.4107,3.3613,3.3535,3.3652,3.3496,3.3481,3.3544,3.3481,3.3544,3.3733,3.367,3.4047,3.461,3.4673,3.4984,3.5356,3.5232,3.5294,3.5479,3.5911,3.6524,3.7032,3.7093,3.7214,3.7396,3.7214,3.7335,3.7577,3.7495,3.7495,3.7616,3.7495,3.7435,3.7616,3.7616,3.7938,3.8477,3.8596,3.8834,3.9249,3.9308,3.9193,3.8941,3.8872,3.8413,3.7448,3.6874,3.6507,3.6346,3.6254,3.6254,3.6254,3.6254,3.6254,3.6254,3.6254,3.6254,3.6363,3.6796,3.7012,3.7012,3.7601,3.7892,3.7838,3.7921,3.7805,3.7589,3.7348,3.718,3.7084,3.6867,3.6576,3.6111,3.5268,3.4596,3.416,3.3965,3.3767,3.3618,3.3542,3.3542,3.3542,3.3519,3.3542,3.3492,3.3319,3.3119,3.2969,3.2891,3.2841,3.2667,3.2617,3.2718,3.2667,3.2392,3.2037,3.2066,3.179,3.1455,3.1214,3.07,3.0597,3.0428,3.0105,2.9921,2.9964,3.0003,2.9873,2.992,3.0217,3.0491,3.0606,3.0857,3.088,3.4473,3.4101,3.3613,3.3672,3.3945,3.3613,3.3603,3.3812,3.3583,3.367,3.3985,3.367,3.3985,3.4797,3.4548,3.4797,3.5356,3.5108,3.517,3.5479,3.6055,3.6606,3.6789,3.7214,3.7314,3.7374,3.7374,3.7435,3.7495,3.7495,3.7435,3.7495,3.7495,3.7616,3.7818,3.7938,3.8298,3.8633,3.8752,3.893,3.9249,3.9308,3.9262,3.9239,3.9078,3.8642,3.7862,3.7311,3.6874,3.63,3.6277,3.6254,3.6254,3.6309,3.6309,3.6309,3.6332,3.6386,3.6386,3.682,3.7066,3.712,3.7601,3.7998,3.7945,3.7945,3.795,3.7878,3.7541,3.7541,3.7632,3.7416,3.7052,3.6582,3.5788,3.5001,3.4424,3.4111,3.3866,3.3392,3.3292,3.3292,3.3292,3.3292,3.3365,3.3623,3.3353,3.311,3.301,3.2959,3.2712,3.2342,3.2392,3.2493,3.2443,3.2342,3.1885,3.1629,3.1219,3.0897,3.0987,3.0729,3.0579,3.0414,3.029,3.0144,2.9969,2.99,2.9732,2.9919,3.0193,3.0628,3.0973,3.1359,3.1542,3.4648,3.4492,3.373,3.3672,3.3965,3.3613,3.3677,3.3995,3.3618,3.3583,3.3607,3.3733,3.4047,3.4485,3.4506,3.4735,3.5294,3.5046,3.5108,3.5479,3.6116,3.6423,3.6667,3.7132,3.7374,3.7374,3.7374,3.7495,3.7698,3.7555,3.7555,3.7758,3.7758,3.7818,3.7938,3.8178,3.8477,3.8752,3.8812,3.899,3.9249,3.9308,3.9308,3.9285,3.8987,3.8459,3.793,3.7678,3.7196,3.653,3.63,3.6369,3.6355,3.6495,3.6495,3.6386,3.6472,3.6495,3.644,3.6742,3.7036,3.6904,3.7548,3.7945,3.7702,3.7892,3.7974,3.7974,3.7878,3.7724,3.766,3.7412,3.7116,3.672,3.6081,3.5415,3.4928,3.4249,3.3691,3.3442,3.3292,3.3292,3.3292,3.3292,3.3407,3.3683,3.3508,3.3169,3.3045,3.2994,3.2628,3.2234,3.219,3.224,3.2088,3.1936,3.1527,3.1167,3.0754,3.0495,3.0557,3.0742,3.0653,3.0657,3.0658,3.0404,3.01,2.9693,2.9487,2.984,3.0235,3.067,3.1151,3.1698,3.2013,3.4531,3.4609,3.3769,3.3672,3.4004,3.3828,3.3858,3.3961,3.3833,3.3804,3.3875,3.3994,3.412,3.4381,3.4498,3.477,3.5004,3.4984,3.4984,3.5294,3.5849,3.6361,3.6789,3.7214,3.7555,3.7435,3.7577,3.7758,3.7818,3.7758,3.7818,3.8058,3.7998,3.8096,3.8276,3.8537,3.8752,3.899,3.9049,3.9108,3.9249,3.9308,3.9308,3.9285,3.901,3.8596,3.7862,3.8045,3.7425,3.6736,3.6746,3.6769,3.6401,3.644,3.6417,3.6363,3.644,3.6495,3.644,3.6742,3.7036,3.6928,3.7601,3.7838,3.7838,3.7921,3.7974,3.7974,3.7974,3.7814,3.7465,3.7459,3.7244,3.692,3.6506,3.603,3.5608,3.4648,3.3767,3.3519,3.3369,3.3342,3.3292,3.3292,3.3444,3.364,3.3839,3.3498,3.3032,3.2884,3.2536,3.2221,3.2082,3.1936,3.1732,3.1424,3.1013,3.0703,3.0443,3.0256,3.0235,3.0495,3.0733,3.0666,3.0547,3.0421,3.0126,2.9678,2.9572,3.0068,3.0561,3.0886,3.1346,3.1909,3.2203,3.4473,3.4726,3.3867,3.3769,3.4101,3.4004,3.3917,3.395,3.402,3.4009,3.4273,3.4147,3.4409,3.4538,3.4595,3.4725,3.4879,3.4984,3.5108,3.5294,3.5809,3.6361,3.6911,3.7456,3.7758,3.7555,3.7818,3.7998,3.7998,3.7998,3.8141,3.8298,3.8178,3.8335,3.8693,3.8871,3.899,3.9226,3.9249,3.9249,3.9308,3.9308,3.9308,3.9285,3.9262,3.8734,3.816,3.8206,3.7999,3.6599,3.7412,3.7298,3.6778,3.6533,3.6533,3.6556,3.6618,3.6495,3.6549,3.6796,3.7143,3.7143,3.7655,3.7974,3.7974,3.7921,3.7868,3.7892,3.7838,3.7601,3.7197,3.7311,3.7311,3.7056,3.6832,3.6601,3.609,3.5004,3.412,3.3781,3.3461,3.3292,3.3292,3.3292,3.3457,3.3652,3.3851,3.3771,3.3279,3.2879,3.2561,3.2243,3.2009,3.1629,3.1373,3.1137,3.0672,3.0464,3.0151,3.0099,3.0047,3.0203,3.0443,3.0432,3.0294,3.0245,3.0141,2.9742,2.9845,3.0422,3.0758,3.102,3.1497,3.2184,3.2319,3.5215,3.5215,3.4336,3.4199,3.4453,3.3867,3.3794,3.4015,3.3989,3.3812,3.3709,3.4398,3.4765,3.4909,3.4855,3.4858,3.488,3.5046,3.5356,3.5665,3.6055,3.6484,3.7032,3.7517,3.7818,3.7938,3.8058,3.8238,3.8298,3.832,3.838,3.8418,3.8514,3.8752,3.8871,3.9049,3.919,3.9308,3.9308,3.9308,3.9308,3.9308,3.9308,3.9308,3.9308,3.8803,3.8275,3.8596,3.8481,3.7196,3.8135,3.8086,3.7618,3.7527,3.7535,3.7348,3.7037,3.6766,3.6688,3.6904,3.7066,3.7227,3.7601,3.7921,3.7945,3.7785,3.7732,3.7625,3.7465,3.7227,3.712,3.7143,3.7036,3.6811,3.6637,3.6349,3.5751,3.5058,3.4342,3.4042,3.3664,3.3407,3.3522,3.3563,3.364,3.3782,3.3873,3.3763,3.3317,3.3012,3.2797,3.2405,3.1986,3.1527,3.1034,3.0797,3.0433,3.0256,3.0047,3.0047,2.9994,2.9994,3.0057,3.0172,3.0234,3.0273,3.0049,2.9783,3.0028,3.0482,3.0767,3.1026,3.1584,3.2118,3.2381,3.5176,3.5312,3.4668,3.4375,3.4336,3.418,3.3926,3.375,3.3941,3.4005,3.4132,3.4532,3.4866,3.4986,3.4842,3.4664,3.4588,3.4922,3.5418,3.587,3.6116,3.6524,3.7032,3.7517,3.7758,3.7878,3.8058,3.8298,3.8537,3.844,3.8559,3.8834,3.8871,3.8871,3.9049,3.9249,3.9308,3.9308,3.9308,3.9308,3.9308,3.9308,3.9308,3.9308,3.9285,3.8918,3.8539,3.8724,3.8666,3.8053,3.8651,3.8784,3.8554,3.8359,3.8201,3.759,3.7176,3.6874,3.6742,3.6958,3.7066,3.7143,3.7572,3.7838,3.7892,3.7785,3.7596,3.7542,3.7304,3.7012,3.6904,3.6904,3.682,3.6719,3.6563,3.632,3.5899,3.5445,3.4982,3.4469,3.405,3.3935,3.4096,3.4062,3.3931,3.3889,3.3921,3.3675,3.3382,3.3063,3.2775,3.2259,3.179,3.14,3.0955,3.0695,3.037,3.012,2.9994,2.9994,2.9994,2.9994,3.0047,3.013,3.0172,3.0213,3.017,2.9998,3.0269,3.0486,3.0658,3.0967,3.1539,3.1961,3.2174,3.5176,3.5469,3.4922,3.4512,3.4258,3.4336,3.4043,3.3574,3.3897,3.4285,3.4576,3.4624,3.4959,3.5288,3.5164,3.4776,3.4275,3.4735,3.517,3.5809,3.5849,3.6279,3.695,3.7314,3.7374,3.7577,3.7758,3.8156,3.8633,3.8596,3.8834,3.9072,3.899,3.899,3.9249,3.9308,3.9308,3.9308,3.9308,3.9308,3.9308,3.9308,3.9308,3.9308,3.9367,3.9173,3.8747,3.914,3.8953,3.8717,3.8958,3.9335,3.9062,3.9126,3.8563,3.7493,3.7036,3.6928,3.6982,3.7089,3.7251,3.7251,3.7518,3.7785,3.7838,3.7785,3.7596,3.7489,3.7304,3.6958,3.6796,3.6712,3.6657,3.658,3.6557,3.6449,3.6031,3.5677,3.5409,3.4952,3.4509,3.4326,3.4372,3.4205,3.3959,3.3831,3.381,3.3643,3.3303,3.2902,3.2564,3.2006,3.1551,3.1208,3.0895,3.0685,3.0349,3.0047,2.9994,2.9994,2.9994,2.9994,3.0047,3.0047,3.0047,3.0089,3.0068,3.016,3.0384,3.0504,3.0592,3.0911,3.1534,3.1724,3.1812,3.5898,3.5879,3.5059,3.4668,3.4512,3.3926,3.3555,3.3457,3.3749,3.4176,3.462,3.4595,3.5335,3.6156,3.6099,3.5656,3.5229,3.4735,3.4984,3.5747,3.5665,3.5911,3.6462,3.6828,3.695,3.7071,3.7314,3.7976,3.8455,3.8574,3.8871,3.9167,3.9249,3.9249,3.9308,3.9308,3.9308,3.9308,3.9308,3.9308,3.9308,3.9308,3.9308,3.9367,3.9521,3.9476,3.9163,3.9488,3.9531,3.8906,3.9391,3.9323,3.8713,3.9148,3.8851,3.8174,3.7679,3.7489,3.7435,3.7435,3.7489,3.7542,3.7732,3.7921,3.7892,3.7732,3.7489,3.7197,3.712,3.7036,3.682,3.6712,3.658,3.6417,3.6363,3.611,3.5734,3.578,3.5535,3.5527,3.5106,3.4647,3.4418,3.4205,3.4062,3.3831,3.3667,3.3551,3.3222,3.2821,3.2403,3.1911,3.1762,3.1466,3.1095,3.0861,3.0546,3.0212,3.0015,3.0015,2.9994,2.9994,2.9994,2.9994,2.9994,2.9994,3.0037,3.0203,3.0432,3.0596,3.0696,3.1046,3.1483,3.1527,3.1527,3.6152,3.5976,3.5351,3.4941,3.4629,3.4043,3.3633,3.352,3.3733,3.4306,3.4816,3.4842,3.5416,3.6071,3.5605,3.522,3.506,3.4606,3.4859,3.5418,3.5479,3.5747,3.6239,3.634,3.6401,3.6585,3.6646,3.6889,3.7676,3.8335,3.8716,3.899,3.919,3.9308,3.9308,3.9308,3.9308,3.9308,3.9308,3.9426,3.9485,3.9426,3.9426,3.9567,3.9743,3.9663,3.964,3.9706,3.9864,3.9433,3.973,3.9531,3.9156,3.9091,3.8888,3.8599,3.8035,3.7756,3.7596,3.7619,3.7596,3.7596,3.7756,3.7756,3.7732,3.7679,3.7596,3.7435,3.7197,3.7036,3.6928,3.682,3.6712,3.6495,3.6223,3.5948,3.5688,3.5685,3.5663,3.571,3.5703,3.5267,3.4923,3.4877,3.4726,3.4434,3.4056,3.3706,3.3202,3.2631,3.2276,3.1869,3.1878,3.1951,3.1587,3.1246,3.1016,3.0639,3.0118,3.0077,3.0015,2.9994,3.0098,3.0056,3.0015,3.0015,3.0047,3.0235,3.0474,3.0651,3.0776,3.1064,3.1322,3.1373,3.1424,3.6471,3.6093,3.5497,3.5019,3.4648,3.4141,3.3711,3.3437,3.367,3.4302,3.5036,3.5405,3.561,3.528,3.4899,3.4863,3.4866,3.4375,3.4651,3.4922,3.5232,3.5418,3.5726,3.5788,3.5911,3.6178,3.6095,3.6279,3.6828,3.7495,3.8178,3.8693,3.899,3.919,3.9308,3.9308,3.9308,3.9308,3.9308,3.9426,3.9684,3.9567,3.9661,3.9861,3.9978,4.0036,4.0024,4.0229,4.0254,4.0001,3.9706,3.9506,3.9242,3.9145,3.9032,3.8864,3.8641,3.8515,3.8144,3.7899,3.7726,3.7702,3.7702,3.7785,3.7732,3.7679,3.7649,3.7596,3.7518,3.7304,3.7036,3.6874,3.6766,3.644,3.6114,3.5916,3.5702,3.5754,3.5868,3.5939,3.5979,3.5979,3.5726,3.568,3.5451,3.5069,3.4558,3.395,3.3279,3.2555,3.2272,3.1999,3.1839,3.1986,3.1863,3.1587,3.1304,3.1054,3.0565,3.0284,3.0284,3.0378,3.0461,3.0358,3.0192,3.0214,3.0266,3.0381,3.0443,3.0547,3.0651,3.0858,3.1064,3.1116,3.1424,3.6789,3.6392,3.523,3.4766,3.4648,3.3809,3.3476,3.3476,3.352,3.4246,3.5446,3.6156,3.5656,3.4764,3.4923,3.4912,3.4481,3.3753,3.4067,3.4381,3.4548,3.4859,3.517,3.5418,3.5479,3.5603,3.5665,3.5849,3.6095,3.6707,3.7495,3.8216,3.8455,3.893,3.9167,3.9249,3.9308,3.9308,3.9308,3.9485,3.9684,3.9743,3.9861,4.013,4.0421,4.0677,4.0677,4.0846,4.0755,4.029,3.9914,3.9585,3.9393,3.9369,3.9272,3.9248,3.9489,3.9266,3.8803,3.8251,3.7993,3.7945,3.7945,3.7921,3.7868,3.7921,3.7838,3.7679,3.7732,3.7518,3.7197,3.6874,3.682,3.6495,3.6168,3.5991,3.5822,3.5813,3.5904,3.6177,3.6208,3.6162,3.6031,3.5916,3.5748,3.5341,3.4566,3.39,3.3169,3.2535,3.244,3.2177,3.185,3.1857,3.1975,3.183,3.167,3.1449,3.1071,3.0843,3.0719,3.0793,3.0835,3.0775,3.063,3.0569,3.0527,3.0517,3.0548,3.0454,3.0495,3.0651,3.0858,3.0983,3.1476,3.7052,3.635,3.5699,3.5139,3.4648,3.4082,3.3809,3.3892,3.4274,3.5007,3.5956,3.595,3.593,3.5685,3.5001,3.5221,3.5356,3.429,3.4326,3.4421,3.461,3.4735,3.5046,3.5294,3.5418,3.5418,3.5541,3.5603,3.5665,3.6095,3.6524,3.7132,3.7676,3.8216,3.8574,3.9131,3.9308,3.9308,3.9308,3.9485,3.9743,3.9802,3.9919,4.0165,4.0537,4.0677,4.0735,4.1024,4.0803,4.0499,4.021,3.9898,3.9633,3.9681,3.9657,3.9633,3.997,3.9753,3.9369,3.8791,3.8359,3.7998,3.7974,3.7974,3.7974,3.7974,3.7974,3.7892,3.7892,3.7655,3.7411,3.7143,3.6928,3.6549,3.6223,3.6004,3.5895,3.584,3.584,3.6036,3.6145,3.62,3.6091,3.5927,3.5759,3.5536,3.4702,3.389,3.3151,3.2672,3.2552,3.2502,3.2197,3.2099,3.2292,3.2197,3.1961,3.1823,3.1609,3.1381,3.1195,3.1208,3.1187,3.1129,3.11,3.1133,3.1028,3.0766,3.0599,3.0496,3.0423,3.036,3.0568,3.0827,3.1373,3.7039,3.6547,3.6262,3.5772,3.5041,3.4499,3.4322,3.4516,3.4903,3.5525,3.6214,3.587,3.5944,3.6143,3.5746,3.5179,3.5346,3.4744,3.4644,3.4679,3.4727,3.4857,3.5149,3.5356,3.5418,3.5418,3.5418,3.5418,3.5418,3.5665,3.5911,3.6218,3.6585,3.7253,3.8335,3.8953,3.9308,3.9308,3.9308,3.9485,3.9743,3.9802,4.0036,4.0305,4.0595,4.0792,4.0908,4.1057,4.1028,4.0715,4.0475,4.0282,4.0114,4.0018,3.9994,4.0042,4.0138,3.9994,3.9729,3.9176,3.8671,3.8359,3.8046,3.7998,3.7974,3.7974,3.7974,3.7974,3.7974,3.7892,3.7542,3.7197,3.6928,3.6495,3.6059,3.584,3.5895,3.584,3.5785,3.584,3.5895,3.5895,3.5785,3.5621,3.5378,3.5068,3.4393,3.375,3.3345,3.2916,3.2752,3.2737,3.2675,3.2659,3.2685,3.2493,3.2321,3.2286,3.2106,3.1857,3.1692,3.165,3.1594,3.1508,3.1563,3.1642,3.155,3.1366,3.0956,3.0569,3.0475,3.0308,3.0464,3.0724,3.1013,3.6855,3.6856,3.6876,3.6481,3.5825,3.5061,3.4949,3.523,3.5361,3.5636,3.6118,3.6576,3.6403,3.5884,3.5852,3.5798,3.5349,3.4995,3.4868,3.4956,3.503,3.5037,3.5209,3.5376,3.5562,3.5438,3.55,3.5542,3.548,3.5604,3.5624,3.5644,3.6097,3.6707,3.8216,3.8953,3.9249,3.9308,3.9308,3.9485,3.9684,3.9802,4.013,4.0421,4.0735,4.0908,4.1057,4.1139,4.11,4.1004,4.0691,4.0403,4.0042,4.0306,4.0234,3.9922,4.0667,4.0763,4.0403,3.9417,3.896,3.8647,3.8262,3.8094,3.8046,3.8046,3.8166,3.8334,3.8166,3.7804,3.7435,3.7089,3.682,3.6495,3.6114,3.584,3.5895,3.595,3.595,3.5785,3.5588,3.5423,3.5312,3.5202,3.4869,3.4513,3.3952,3.3579,3.3353,3.3182,3.3012,3.2784,3.2784,3.2784,3.2727,3.2727,3.2644,3.2628,3.2561,3.2271,3.2209,3.225,3.2093,3.1918,3.2002,3.2218,3.2112,3.1993,3.141,3.0884,3.0475,3.036,3.0464,3.062,3.0858,3.7112,3.6879,3.7212,3.7258,3.691,3.6176,3.593,3.5996,3.6082,3.642,3.6821,3.685,3.687,3.6743,3.6656,3.6489,3.639,3.5616,3.5525,3.598,3.5651,3.5863,3.591,3.5851,3.5873,3.5873,3.5873,3.5852,3.5894,3.5832,3.5832,3.5915,3.6262,3.7011,3.7796,3.8455,3.9049,3.9249,3.9308,3.9367,3.9485,3.9837,4.0188,4.0421,4.0769,4.1,4.1172,4.1196,4.1196,4.1196,4.0884,4.0739,4.0547,4.0812,4.0763,4.0619,4.1124,4.11,4.0812,4.021,3.9537,3.8984,3.8455,3.8431,3.8888,3.8671,3.8767,3.8785,3.8593,3.8251,3.8065,3.7362,3.6975,3.6657,3.6332,3.6004,3.6004,3.6114,3.6114,3.5895,3.5698,3.5368,3.5146,3.498,3.4646,3.4534,3.4142,3.3805,3.3523,3.3466,3.3296,3.2898,3.2727,3.2727,3.2669,3.2555,3.2612,3.2649,3.2649,3.2545,3.2566,3.2587,3.254,3.2336,3.2538,3.2776,3.2553,3.2285,3.1716,3.1221,3.0758,3.0496,3.0568,3.0568,3.0516,3.6929,3.6887,3.7349,3.7693,3.7709,3.6977,3.6703,3.6856,3.6988,3.7289,3.7356,3.6999,3.6933,3.7156,3.7151,3.6957,3.7074,3.6598,3.6132,3.6588,3.6131,3.6216,3.6428,3.6411,3.6225,3.6246,3.6289,3.6227,3.6039,3.6165,3.6206,3.6329,3.6878,3.7236,3.7796,3.8514,3.9108,3.9308,3.9308,3.9367,3.9544,3.9837,4.013,4.0421,4.0769,4.1081,4.1139,4.1196,4.1196,4.1196,4.1172,4.11,4.1028,4.1076,4.1052,4.1004,4.11,4.1052,4.0787,4.0595,3.9946,3.9513,3.8864,3.8936,3.9362,3.9115,3.894,3.8909,3.8933,3.8506,3.8003,3.7331,3.7161,3.6843,3.6487,3.6214,3.6401,3.6535,3.6173,3.5954,3.5556,3.5224,3.498,3.4758,3.4479,3.4479,3.4367,3.403,3.3692,3.3579,3.3409,3.3012,3.2669,3.2612,3.2498,3.2383,3.2498,3.2669,3.2669,3.2612,3.2669,3.2628,3.2649,3.2727,3.2871,3.2922,3.2895,3.2595,3.1986,3.1407,3.0935,3.0748,3.0683,3.0568,3.0464,3.639,3.6846,3.7301,3.7757,3.7955,3.738,3.7266,3.7595,3.7975,3.7902,3.755,3.7443,3.727,3.7008,3.6942,3.677,3.6577,3.6815,3.675,3.6558,3.6357,3.6653,3.6699,3.6515,3.6535,3.6684,3.6665,3.6415,3.6227,3.6394,3.6472,3.6508,3.7001,3.7527,3.8192,3.8792,3.9222,3.9236,3.9308,3.9367,3.9603,3.9837,4.0188,4.0503,4.0792,4.1024,4.1139,4.1196,4.1196,4.1196,4.1172,4.0884,4.0812,4.0932,4.0763,4.0739,4.1004,4.0884,4.0715,4.0571,4.0523,4.0234,3.9922,3.9753,3.965,3.9611,3.9435,3.9126,3.8967,3.8233,3.7543,3.7395,3.7324,3.6974,3.6602,3.6668,3.7048,3.6868,3.6281,3.5846,3.5346,3.5024,3.4758,3.4568,3.4454,3.4479,3.4367,3.4142,3.3805,3.3636,3.3409,3.3069,3.2784,3.2555,3.242,3.2248,3.219,3.2326,3.242,3.242,3.2555,3.2669,3.2669,3.2784,3.3012,3.3084,3.3056,3.2727,3.2156,3.1675,3.1356,3.0811,3.0704,3.062,3.0547,3.639,3.6846,3.7301,3.757,3.7674,3.7497,3.7662,3.7996,3.786,3.7736,3.7943,3.7281,3.7133,3.7315,3.7006,3.6753,3.667,3.6565,3.6814,3.6776,3.6714,3.7195,3.7281,3.7032,3.7011,3.6995,3.6894,3.6729,3.6855,3.6916,3.678,3.6814,3.7335,3.7994,3.8624,3.9236,3.9166,3.914,3.9249,3.9367,3.9603,3.9896,4.0246,4.0619,4.0908,4.1081,4.1196,4.1196,4.1196,4.1196,4.1196,4.1028,4.1052,4.11,4.1052,4.1028,4.1124,4.11,4.098,4.0956,4.0908,4.0884,4.0715,4.0763,4.0643,4.0266,3.9905,3.9537,3.9179,3.8562,3.7903,3.7589,3.7432,3.7136,3.674,3.6567,3.6822,3.6632,3.6092,3.5826,3.5324,3.4987,3.4753,3.4541,3.4515,3.451,3.4423,3.422,3.3974,3.3805,3.3487,3.3126,3.2763,3.2477,3.2363,3.219,3.2076,3.196,3.2076,3.2248,3.242,3.2555,3.2612,3.2784,3.2955,3.3069,3.3182,3.279,3.242,3.2353,3.2029,3.1307,3.0768,3.0704,3.062,3.6266,3.6577,3.7032,3.7218,3.7218,3.7218,3.7405,3.7612,3.7715,3.7798,3.757,3.7053,3.697,3.7094,3.6763,3.6472,3.6451,3.6554,3.672,3.6929,3.7078,3.7512,3.7657,3.7618,3.7496,3.7395,3.7252,3.7002,3.7171,3.7103,3.7004,3.718,3.7815,3.8309,3.8752,3.9115,3.9205,3.9172,3.919,3.9367,3.9661,3.9931,4.0363,4.0653,4.1,4.1196,4.1196,4.1196,4.1196,4.1196,4.1196,4.1172,4.1172,4.1172,4.1196,4.1148,4.1172,4.1172,4.1124,4.1148,4.1172,4.1196,4.1172,4.1004,4.0851,4.0473,4.0221,3.9945,3.9561,3.9165,3.8424,3.7813,3.7571,3.7307,3.6824,3.6342,3.6268,3.6216,3.6005,3.5781,3.5486,3.5111,3.484,3.4682,3.4561,3.4531,3.4593,3.4597,3.4363,3.4086,3.3692,3.3239,3.282,3.2399,3.2305,3.2133,3.1865,3.1692,3.173,3.1903,3.2133,3.2383,3.2498,3.2669,3.2841,3.2955,3.3069,3.2979,3.2742,3.264,3.2453,3.1867,3.1243,3.0852,3.0747,3.608,3.6163,3.6577,3.6742,3.6742,3.6742,3.6742,3.6804,3.757,3.7612,3.6949,3.6763,3.6722,3.6744,3.6497,3.633,3.6477,3.6686,3.681,3.6869,3.7167,3.7499,3.7767,3.7981,3.7772,3.7756,3.7527,3.7171,3.7125,3.724,3.7353,3.744,3.8025,3.8503,3.8723,3.9084,3.9379,3.9607,3.9459,3.9485,3.9779,4.0071,4.0363,4.0677,4.0966,4.1196,4.1196,4.1196,4.1196,4.1196,4.1196,4.1196,4.1196,4.1196,4.1196,4.1196,4.1196,4.1196,4.1196,4.1196,4.123,4.123,4.123,4.0965,4.0763,4.0793,4.0588,3.9925,3.9494,3.901,3.8387,3.7663,3.7252,3.6966,3.6516,3.6405,3.6531,3.6387,3.6149,3.5896,3.5561,3.5157,3.4926,3.4767,3.4471,3.4481,3.4568,3.4682,3.4688,3.4367,3.4068,3.3614,3.335,3.2871,3.2346,3.2136,3.1616,3.15,3.15,3.1556,3.1865,3.2153,3.244,3.2612,3.2784,3.2784,3.2877,3.2866,3.2874,3.2644,3.2427,3.2293,3.1864,3.136,3.1,3.579,3.6121,3.6225,3.6266,3.6287,3.6266,3.608,3.5852,3.6742,3.7011,3.6763,3.6453,3.6434,3.6603,3.6478,3.6478,3.6791,3.6792,3.7045,3.7106,3.7254,3.7252,3.7283,3.7645,3.7731,3.7777,3.7591,3.7361,3.729,3.7508,3.7684,3.7588,3.8297,3.8864,3.8866,3.9212,3.9567,3.9973,3.9823,3.9743,3.9837,4.0305,4.0677,4.0792,4.0942,4.1196,4.1196,4.1196,4.1196,4.1196,4.1196,4.1196,4.1196,4.1196,4.1196,4.1196,4.1196,4.1196,4.1196,4.1254,4.123,4.1344,4.1272,4.1039,4.091,4.1028,4.0693,3.9959,3.9369,3.8897,3.8298,3.7599,3.7007,3.6645,3.6273,3.6499,3.6782,3.6565,3.6307,3.5991,3.5648,3.5376,3.5082,3.4842,3.4522,3.4421,3.4496,3.4646,3.4895,3.4767,3.4704,3.4318,3.4125,3.3681,3.2938,3.2281,3.1954,3.1563,3.1563,3.1581,3.1616,3.2119,3.2642,3.2653,3.2727,3.2727,3.2841,3.3069,3.3,3.2719,3.265,3.2497,3.2475,3.2078,3.1613,3.5562,3.579,3.5811,3.5935,3.6101,3.6121,3.5956,3.5852,3.6287,3.637,3.6225,3.6121,3.631,3.6478,3.6415,3.6538,3.6827,3.6784,3.6958,3.7129,3.7319,3.7297,3.7295,3.7376,3.7546,3.7633,3.753,3.742,3.7348,3.7706,3.7835,3.783,3.867,3.9154,3.9055,3.9402,3.9868,4.0269,4.0071,3.9978,4.0013,4.0421,4.0595,4.0653,4.0884,4.1115,4.1196,4.1196,4.1196,4.1196,4.1196,4.1196,4.1196,4.1196,4.1196,4.1196,4.1196,4.1196,4.1196,4.123,4.1287,4.1344,4.1344,4.1046,4.0322,4.0346,4.0521,3.9884,3.9928,3.95,3.8631,3.7919,3.7486,3.7042,3.6577,3.6439,3.6671,3.6625,3.6596,3.6562,3.6106,3.5625,3.5384,3.5142,3.4814,3.4383,3.4461,3.4673,3.491,3.5015,3.4965,3.4883,3.4599,3.4244,3.3634,3.2985,3.2374,3.2058,3.1722,3.1681,3.1814,3.2418,3.2843,3.2835,3.2789,3.2727,3.2919,3.3033,3.2955,3.2737,3.2726,3.2769,3.2769,3.2733,3.2285,3.5438,3.5418,3.5438,3.5645,3.5976,3.6018,3.5997,3.5997,3.6018,3.5811,3.5604,3.5956,3.6269,3.631,3.6288,3.6408,3.6633,3.6988,3.7119,3.7207,3.7479,3.7359,3.7403,3.7615,3.7636,3.7615,3.7655,3.7228,3.6905,3.7536,3.7962,3.8033,3.8468,3.8949,3.8987,3.9272,3.9744,4.0023,4.0013,4.013,4.0305,4.0561,4.0479,4.0595,4.0769,4.1139,4.1196,4.1196,4.1196,4.1196,4.1196,4.1196,4.1196,4.1196,4.1196,4.1196,4.1196,4.1196,4.1196,4.1196,4.123,4.123,4.123,4.0836,4.017,4.0058,4.0233,4.0206,4.0172,3.9814,3.8943,3.825,3.7838,3.7507,3.7023,3.6537,3.6648,3.6756,3.6845,3.6907,3.6481,3.5909,3.5602,3.5376,3.4964,3.4534,3.4471,3.4789,3.4945,3.4954,3.4951,3.4963,3.4882,3.45,3.4191,3.3754,3.3155,3.2555,3.2237,3.2037,3.2034,3.2646,3.2957,3.2917,3.2892,3.2871,3.2768,3.2784,3.2727,3.2784,3.2758,3.2824,3.3106,3.3092,3.2903,3.5418,3.5418,3.5418,3.548,3.5583,3.5562,3.5562,3.5562,3.5583,3.55,3.5542,3.5894,3.6269,3.6449,3.6767,3.7141,3.7656,3.7675,3.749,3.7579,3.7536,3.7395,3.7359,3.7615,3.7742,3.7784,3.7824,3.7777,3.7302,3.7732,3.7867,3.7681,3.8624,3.8866,3.8649,3.9053,3.9528,3.9779,3.9919,3.9954,4.0188,4.0386,4.0653,4.0769,4.0826,4.1057,4.1196,4.1196,4.1196,4.1196,4.1196,4.1196,4.1196,4.1196,4.1196,4.1196,4.1196,4.1196,4.1196,4.1196,4.123,4.1402,4.1296,4.1046,4.0636,4.0628,4.0586,4.029,4.0188,3.9778,3.9105,3.8433,3.7995,3.7821,3.7448,3.7038,3.6897,3.7041,3.7205,3.7011,3.6646,3.6135,3.5644,3.5294,3.4652,3.4326,3.4119,3.4411,3.4738,3.48,3.4944,3.5025,3.5044,3.4972,3.4753,3.4627,3.4145,3.3437,3.2814,3.2595,3.2575,3.2834,3.307,3.3012,3.3041,3.3099,3.2975,3.2727,3.2784,3.2784,3.2727,3.282,3.3239,3.3367,3.3226]}]]